<?xml version="1.0" encoding="UTF-8" standalone="no" ?>
<gpx xmlns="http://www.topografix.com/GPX/1/1" xmlns:xsi="http://www.w3.org/2001/XMLSchema-instance" xsi:schemaLocation="http://www.topografix.com/GPX/1/1 http://www.topografix.com/GPX/1/1/gpx.xsd" version="1.1" creator="VisuGPX - https://www.visugpx.com">
  <metadata>
    <name>TILLAY - CHEZINE - CENS</name>
    <desc><![CDATA[Balade bucolique, physique à ses heures. retour Cens > Thébaudières un peu trop roulant]]></desc>
  </metadata>
  <trk>
    <name><![CDATA[Gournerie - Orvault - 2013-10-06-01]]></name>
    <trkseg>
      <trkpt lat="47.23074" lon="-1.60659">
        <ele>42.314029</ele>
        <time>2013-10-06T08:06:12Z</time>
      </trkpt>
      <trkpt lat="47.23074" lon="-1.60659">
        <ele>43.572429</ele>
        <time>2013-10-06T08:06:13Z</time>
      </trkpt>
      <trkpt lat="47.23074" lon="-1.60659">
        <ele>43.5</ele>
        <time>2013-10-06T08:06:13Z</time>
      </trkpt>
      <trkpt lat="47.23067" lon="-1.60668">
        <ele>37.6</ele>
        <time>2013-10-06T08:11:33Z</time>
      </trkpt>
      <trkpt lat="47.23067" lon="-1.60668">
        <ele>37.6</ele>
        <time>2013-10-06T08:11:33Z</time>
      </trkpt>
      <trkpt lat="47.23069" lon="-1.60683">
        <ele>39.3</ele>
        <time>2013-10-06T08:12:36Z</time>
      </trkpt>
      <trkpt lat="47.23069" lon="-1.60683">
        <ele>39.3</ele>
        <time>2013-10-06T08:12:36Z</time>
      </trkpt>
      <trkpt lat="47.2307" lon="-1.60697">
        <ele>38.8</ele>
        <time>2013-10-06T08:12:43Z</time>
      </trkpt>
      <trkpt lat="47.23074" lon="-1.60712">
        <ele>38.5</ele>
        <time>2013-10-06T08:12:50Z</time>
      </trkpt>
      <trkpt lat="47.23075" lon="-1.60726">
        <ele>38.3</ele>
        <time>2013-10-06T08:12:54Z</time>
      </trkpt>
      <trkpt lat="47.23077" lon="-1.60741">
        <ele>38.1</ele>
        <time>2013-10-06T08:12:58Z</time>
      </trkpt>
      <trkpt lat="47.23086" lon="-1.60747">
        <ele>37.7</ele>
        <time>2013-10-06T08:13:03Z</time>
      </trkpt>
      <trkpt lat="47.23095" lon="-1.60738">
        <ele>37.4</ele>
        <time>2013-10-06T08:13:07Z</time>
      </trkpt>
      <trkpt lat="47.23104" lon="-1.60729">
        <ele>37</ele>
        <time>2013-10-06T08:13:10Z</time>
      </trkpt>
      <trkpt lat="47.23113" lon="-1.60722">
        <ele>36.9</ele>
        <time>2013-10-06T08:13:12Z</time>
      </trkpt>
      <trkpt lat="47.23122" lon="-1.60718">
        <ele>36.8</ele>
        <time>2013-10-06T08:13:14Z</time>
      </trkpt>
      <trkpt lat="47.23132" lon="-1.60713">
        <ele>36.6</ele>
        <time>2013-10-06T08:13:16Z</time>
      </trkpt>
      <trkpt lat="47.23141" lon="-1.6071">
        <ele>36.4</ele>
        <time>2013-10-06T08:13:18Z</time>
      </trkpt>
      <trkpt lat="47.23153" lon="-1.60716">
        <ele>34.7</ele>
        <time>2013-10-06T08:13:21Z</time>
      </trkpt>
      <trkpt lat="47.23161" lon="-1.60726">
        <ele>33.9</ele>
        <time>2013-10-06T08:13:23Z</time>
      </trkpt>
      <trkpt lat="47.23166" lon="-1.60736">
        <ele>33.8</ele>
        <time>2013-10-06T08:13:25Z</time>
      </trkpt>
      <trkpt lat="47.23173" lon="-1.60752">
        <ele>33.6</ele>
        <time>2013-10-06T08:13:28Z</time>
      </trkpt>
      <trkpt lat="47.2318" lon="-1.60764">
        <ele>33.3</ele>
        <time>2013-10-06T08:13:31Z</time>
      </trkpt>
      <trkpt lat="47.23191" lon="-1.60768">
        <ele>30.1</ele>
        <time>2013-10-06T08:13:34Z</time>
      </trkpt>
      <trkpt lat="47.23199" lon="-1.60775">
        <ele>28.3</ele>
        <time>2013-10-06T08:13:36Z</time>
      </trkpt>
      <trkpt lat="47.23207" lon="-1.60783">
        <ele>28</ele>
        <time>2013-10-06T08:13:38Z</time>
      </trkpt>
      <trkpt lat="47.23207" lon="-1.60783">
        <ele>28</ele>
        <time>2013-10-06T08:13:38Z</time>
      </trkpt>
      <trkpt lat="47.23216" lon="-1.60793">
        <ele>29.1</ele>
        <time>2013-10-06T08:13:40Z</time>
      </trkpt>
      <trkpt lat="47.23223" lon="-1.60802">
        <ele>29.8</ele>
        <time>2013-10-06T08:13:42Z</time>
      </trkpt>
      <trkpt lat="47.23232" lon="-1.60809">
        <ele>31</ele>
        <time>2013-10-06T08:13:44Z</time>
      </trkpt>
      <trkpt lat="47.23243" lon="-1.60818">
        <ele>33</ele>
        <time>2013-10-06T08:13:47Z</time>
      </trkpt>
      <trkpt lat="47.23253" lon="-1.60824">
        <ele>33.5</ele>
        <time>2013-10-06T08:13:50Z</time>
      </trkpt>
      <trkpt lat="47.23264" lon="-1.60818">
        <ele>33.5</ele>
        <time>2013-10-06T08:13:53Z</time>
      </trkpt>
      <trkpt lat="47.23273" lon="-1.60809">
        <ele>32.9</ele>
        <time>2013-10-06T08:13:56Z</time>
      </trkpt>
      <trkpt lat="47.23283" lon="-1.60815">
        <ele>32.9</ele>
        <time>2013-10-06T08:14:00Z</time>
      </trkpt>
      <trkpt lat="47.23289" lon="-1.60831">
        <ele>32.4</ele>
        <time>2013-10-06T08:14:04Z</time>
      </trkpt>
      <trkpt lat="47.23295" lon="-1.60848">
        <ele>29.2</ele>
        <time>2013-10-06T08:14:07Z</time>
      </trkpt>
      <trkpt lat="47.23304" lon="-1.60862">
        <ele>29.3</ele>
        <time>2013-10-06T08:14:10Z</time>
      </trkpt>
      <trkpt lat="47.23312" lon="-1.60872">
        <ele>29.3</ele>
        <time>2013-10-06T08:14:13Z</time>
      </trkpt>
      <trkpt lat="47.23322" lon="-1.60881">
        <ele>29.3</ele>
        <time>2013-10-06T08:14:16Z</time>
      </trkpt>
      <trkpt lat="47.23333" lon="-1.6089">
        <ele>29.6</ele>
        <time>2013-10-06T08:14:19Z</time>
      </trkpt>
      <trkpt lat="47.23342" lon="-1.60899">
        <ele>29.7</ele>
        <time>2013-10-06T08:14:22Z</time>
      </trkpt>
      <trkpt lat="47.23348" lon="-1.6091">
        <ele>29.6</ele>
        <time>2013-10-06T08:14:25Z</time>
      </trkpt>
      <trkpt lat="47.23357" lon="-1.60915">
        <ele>29.7</ele>
        <time>2013-10-06T08:14:29Z</time>
      </trkpt>
      <trkpt lat="47.23367" lon="-1.60909">
        <ele>30</ele>
        <time>2013-10-06T08:14:32Z</time>
      </trkpt>
      <trkpt lat="47.23378" lon="-1.60902">
        <ele>30</ele>
        <time>2013-10-06T08:14:36Z</time>
      </trkpt>
      <trkpt lat="47.23387" lon="-1.60896">
        <ele>30.3</ele>
        <time>2013-10-06T08:14:40Z</time>
      </trkpt>
      <trkpt lat="47.23396" lon="-1.60887">
        <ele>31.3</ele>
        <time>2013-10-06T08:14:43Z</time>
      </trkpt>
      <trkpt lat="47.23407" lon="-1.60881">
        <ele>30</ele>
        <time>2013-10-06T08:14:46Z</time>
      </trkpt>
      <trkpt lat="47.23421" lon="-1.60878">
        <ele>29.2</ele>
        <time>2013-10-06T08:14:49Z</time>
      </trkpt>
      <trkpt lat="47.2343" lon="-1.60881">
        <ele>29.9</ele>
        <time>2013-10-06T08:14:51Z</time>
      </trkpt>
      <trkpt lat="47.23439" lon="-1.60888">
        <ele>29.9</ele>
        <time>2013-10-06T08:14:53Z</time>
      </trkpt>
      <trkpt lat="47.23449" lon="-1.60901">
        <ele>28.9</ele>
        <time>2013-10-06T08:14:56Z</time>
      </trkpt>
      <trkpt lat="47.23454" lon="-1.60917">
        <ele>28.7</ele>
        <time>2013-10-06T08:14:59Z</time>
      </trkpt>
      <trkpt lat="47.23458" lon="-1.6093">
        <ele>28.7</ele>
        <time>2013-10-06T08:15:02Z</time>
      </trkpt>
      <trkpt lat="47.2346" lon="-1.60946">
        <ele>28.5</ele>
        <time>2013-10-06T08:15:06Z</time>
      </trkpt>
      <trkpt lat="47.23468" lon="-1.60952">
        <ele>27.8</ele>
        <time>2013-10-06T08:15:10Z</time>
      </trkpt>
      <trkpt lat="47.23479" lon="-1.60943">
        <ele>27.3</ele>
        <time>2013-10-06T08:15:14Z</time>
      </trkpt>
      <trkpt lat="47.23489" lon="-1.6093">
        <ele>23.2</ele>
        <time>2013-10-06T08:15:17Z</time>
      </trkpt>
      <trkpt lat="47.23496" lon="-1.60922">
        <ele>21.7</ele>
        <time>2013-10-06T08:15:19Z</time>
      </trkpt>
      <trkpt lat="47.23503" lon="-1.60913">
        <ele>22.4</ele>
        <time>2013-10-06T08:15:21Z</time>
      </trkpt>
      <trkpt lat="47.2351" lon="-1.60903">
        <ele>22.2</ele>
        <time>2013-10-06T08:15:23Z</time>
      </trkpt>
      <trkpt lat="47.23519" lon="-1.60893">
        <ele>20</ele>
        <time>2013-10-06T08:15:25Z</time>
      </trkpt>
      <trkpt lat="47.23527" lon="-1.60884">
        <ele>17.9</ele>
        <time>2013-10-06T08:15:27Z</time>
      </trkpt>
      <trkpt lat="47.23537" lon="-1.60874">
        <ele>16.9</ele>
        <time>2013-10-06T08:15:29Z</time>
      </trkpt>
      <trkpt lat="47.23545" lon="-1.60864">
        <ele>16.8</ele>
        <time>2013-10-06T08:15:31Z</time>
      </trkpt>
      <trkpt lat="47.23555" lon="-1.60856">
        <ele>16.5</ele>
        <time>2013-10-06T08:15:34Z</time>
      </trkpt>
      <trkpt lat="47.23566" lon="-1.60864">
        <ele>16.1</ele>
        <time>2013-10-06T08:15:37Z</time>
      </trkpt>
      <trkpt lat="47.23579" lon="-1.60869">
        <ele>15.8</ele>
        <time>2013-10-06T08:15:40Z</time>
      </trkpt>
      <trkpt lat="47.2359" lon="-1.60872">
        <ele>15.7</ele>
        <time>2013-10-06T08:15:43Z</time>
      </trkpt>
      <trkpt lat="47.23598" lon="-1.60879">
        <ele>15.8</ele>
        <time>2013-10-06T08:15:46Z</time>
      </trkpt>
      <trkpt lat="47.23606" lon="-1.60888">
        <ele>15.9</ele>
        <time>2013-10-06T08:15:49Z</time>
      </trkpt>
      <trkpt lat="47.23615" lon="-1.60894">
        <ele>16.1</ele>
        <time>2013-10-06T08:15:52Z</time>
      </trkpt>
      <trkpt lat="47.23624" lon="-1.60899">
        <ele>16.1</ele>
        <time>2013-10-06T08:15:55Z</time>
      </trkpt>
      <trkpt lat="47.23635" lon="-1.60905">
        <ele>15.7</ele>
        <time>2013-10-06T08:15:58Z</time>
      </trkpt>
      <trkpt lat="47.23647" lon="-1.60919">
        <ele>14.7</ele>
        <time>2013-10-06T08:16:01Z</time>
      </trkpt>
      <trkpt lat="47.23657" lon="-1.60928">
        <ele>13.7</ele>
        <time>2013-10-06T08:16:03Z</time>
      </trkpt>
      <trkpt lat="47.23665" lon="-1.60942">
        <ele>13.5</ele>
        <time>2013-10-06T08:16:05Z</time>
      </trkpt>
      <trkpt lat="47.2367" lon="-1.60955">
        <ele>12.9</ele>
        <time>2013-10-06T08:16:08Z</time>
      </trkpt>
      <trkpt lat="47.23677" lon="-1.60967">
        <ele>11.9</ele>
        <time>2013-10-06T08:16:13Z</time>
      </trkpt>
      <trkpt lat="47.23681" lon="-1.60979">
        <ele>11.7</ele>
        <time>2013-10-06T08:16:18Z</time>
      </trkpt>
      <trkpt lat="47.23687" lon="-1.60992">
        <ele>11.7</ele>
        <time>2013-10-06T08:16:23Z</time>
      </trkpt>
      <trkpt lat="47.23691" lon="-1.61005">
        <ele>11.9</ele>
        <time>2013-10-06T08:16:27Z</time>
      </trkpt>
      <trkpt lat="47.23691" lon="-1.61018">
        <ele>12.8</ele>
        <time>2013-10-06T08:16:41Z</time>
      </trkpt>
      <trkpt lat="47.23698" lon="-1.61006">
        <ele>14.3</ele>
        <time>2013-10-06T08:17:14Z</time>
      </trkpt>
      <trkpt lat="47.23705" lon="-1.60994">
        <ele>14.7</ele>
        <time>2013-10-06T08:17:20Z</time>
      </trkpt>
      <trkpt lat="47.23714" lon="-1.60996">
        <ele>15.1</ele>
        <time>2013-10-06T08:17:24Z</time>
      </trkpt>
      <trkpt lat="47.23726" lon="-1.60993">
        <ele>15.7</ele>
        <time>2013-10-06T08:17:28Z</time>
      </trkpt>
      <trkpt lat="47.23735" lon="-1.60987">
        <ele>16.4</ele>
        <time>2013-10-06T08:17:32Z</time>
      </trkpt>
      <trkpt lat="47.23744" lon="-1.60976">
        <ele>17.3</ele>
        <time>2013-10-06T08:17:37Z</time>
      </trkpt>
      <trkpt lat="47.23748" lon="-1.60962">
        <ele>17.8</ele>
        <time>2013-10-06T08:17:41Z</time>
      </trkpt>
      <trkpt lat="47.2375" lon="-1.60948">
        <ele>18.2</ele>
        <time>2013-10-06T08:17:45Z</time>
      </trkpt>
      <trkpt lat="47.23753" lon="-1.60934">
        <ele>18.7</ele>
        <time>2013-10-06T08:17:49Z</time>
      </trkpt>
      <trkpt lat="47.23758" lon="-1.60918">
        <ele>19.3</ele>
        <time>2013-10-06T08:17:53Z</time>
      </trkpt>
      <trkpt lat="47.23761" lon="-1.60905">
        <ele>20</ele>
        <time>2013-10-06T08:17:57Z</time>
      </trkpt>
      <trkpt lat="47.23765" lon="-1.60891">
        <ele>20.6</ele>
        <time>2013-10-06T08:18:01Z</time>
      </trkpt>
      <trkpt lat="47.23772" lon="-1.60878">
        <ele>21.5</ele>
        <time>2013-10-06T08:18:05Z</time>
      </trkpt>
      <trkpt lat="47.23779" lon="-1.60869">
        <ele>22.3</ele>
        <time>2013-10-06T08:18:09Z</time>
      </trkpt>
      <trkpt lat="47.23789" lon="-1.60869">
        <ele>22.9</ele>
        <time>2013-10-06T08:18:12Z</time>
      </trkpt>
      <trkpt lat="47.238" lon="-1.6087">
        <ele>23.3</ele>
        <time>2013-10-06T08:18:15Z</time>
      </trkpt>
      <trkpt lat="47.2381" lon="-1.6087">
        <ele>23.9</ele>
        <time>2013-10-06T08:18:18Z</time>
      </trkpt>
      <trkpt lat="47.23819" lon="-1.60869">
        <ele>24.5</ele>
        <time>2013-10-06T08:18:21Z</time>
      </trkpt>
      <trkpt lat="47.23829" lon="-1.60865">
        <ele>25</ele>
        <time>2013-10-06T08:18:24Z</time>
      </trkpt>
      <trkpt lat="47.23841" lon="-1.60859">
        <ele>25.5</ele>
        <time>2013-10-06T08:18:28Z</time>
      </trkpt>
      <trkpt lat="47.23851" lon="-1.60854">
        <ele>25.9</ele>
        <time>2013-10-06T08:18:31Z</time>
      </trkpt>
      <trkpt lat="47.2386" lon="-1.6085">
        <ele>26.4</ele>
        <time>2013-10-06T08:18:34Z</time>
      </trkpt>
      <trkpt lat="47.2387" lon="-1.60847">
        <ele>27.2</ele>
        <time>2013-10-06T08:18:39Z</time>
      </trkpt>
      <trkpt lat="47.23881" lon="-1.60841">
        <ele>27.8</ele>
        <time>2013-10-06T08:18:43Z</time>
      </trkpt>
      <trkpt lat="47.23889" lon="-1.6083">
        <ele>28.4</ele>
        <time>2013-10-06T08:18:46Z</time>
      </trkpt>
      <trkpt lat="47.23893" lon="-1.60817">
        <ele>28.9</ele>
        <time>2013-10-06T08:18:49Z</time>
      </trkpt>
      <trkpt lat="47.23901" lon="-1.60809">
        <ele>29.8</ele>
        <time>2013-10-06T08:18:53Z</time>
      </trkpt>
      <trkpt lat="47.23912" lon="-1.60808">
        <ele>30.3</ele>
        <time>2013-10-06T08:18:56Z</time>
      </trkpt>
      <trkpt lat="47.23924" lon="-1.6081">
        <ele>30.6</ele>
        <time>2013-10-06T08:18:59Z</time>
      </trkpt>
      <trkpt lat="47.23935" lon="-1.60813">
        <ele>30.8</ele>
        <time>2013-10-06T08:19:02Z</time>
      </trkpt>
      <trkpt lat="47.23943" lon="-1.60817">
        <ele>31.3</ele>
        <time>2013-10-06T08:19:05Z</time>
      </trkpt>
      <trkpt lat="47.23954" lon="-1.6082">
        <ele>31.7</ele>
        <time>2013-10-06T08:19:08Z</time>
      </trkpt>
      <trkpt lat="47.23964" lon="-1.60823">
        <ele>32.2</ele>
        <time>2013-10-06T08:19:11Z</time>
      </trkpt>
      <trkpt lat="47.23973" lon="-1.60825">
        <ele>32.6</ele>
        <time>2013-10-06T08:19:14Z</time>
      </trkpt>
      <trkpt lat="47.23983" lon="-1.60826">
        <ele>32.8</ele>
        <time>2013-10-06T08:19:17Z</time>
      </trkpt>
      <trkpt lat="47.23993" lon="-1.60827">
        <ele>33.1</ele>
        <time>2013-10-06T08:19:21Z</time>
      </trkpt>
      <trkpt lat="47.24001" lon="-1.60836">
        <ele>33.3</ele>
        <time>2013-10-06T08:19:25Z</time>
      </trkpt>
      <trkpt lat="47.24008" lon="-1.6085">
        <ele>33.5</ele>
        <time>2013-10-06T08:19:29Z</time>
      </trkpt>
      <trkpt lat="47.24013" lon="-1.60863">
        <ele>33.8</ele>
        <time>2013-10-06T08:19:32Z</time>
      </trkpt>
      <trkpt lat="47.24018" lon="-1.60878">
        <ele>33.9</ele>
        <time>2013-10-06T08:19:35Z</time>
      </trkpt>
      <trkpt lat="47.24029" lon="-1.6088">
        <ele>34.3</ele>
        <time>2013-10-06T08:19:39Z</time>
      </trkpt>
      <trkpt lat="47.24038" lon="-1.60874">
        <ele>35.7</ele>
        <time>2013-10-06T08:19:42Z</time>
      </trkpt>
      <trkpt lat="47.24045" lon="-1.60866">
        <ele>37.4</ele>
        <time>2013-10-06T08:19:45Z</time>
      </trkpt>
      <trkpt lat="47.24043" lon="-1.60849">
        <ele>38.1</ele>
        <time>2013-10-06T08:19:49Z</time>
      </trkpt>
      <trkpt lat="47.24041" lon="-1.60836">
        <ele>38.3</ele>
        <time>2013-10-06T08:19:51Z</time>
      </trkpt>
      <trkpt lat="47.24041" lon="-1.60822">
        <ele>38.4</ele>
        <time>2013-10-06T08:19:53Z</time>
      </trkpt>
      <trkpt lat="47.24047" lon="-1.60813">
        <ele>38.5</ele>
        <time>2013-10-06T08:19:57Z</time>
      </trkpt>
      <trkpt lat="47.24055" lon="-1.60806">
        <ele>38.4</ele>
        <time>2013-10-06T08:20:01Z</time>
      </trkpt>
      <trkpt lat="47.24063" lon="-1.60795">
        <ele>38</ele>
        <time>2013-10-06T08:20:05Z</time>
      </trkpt>
      <trkpt lat="47.24073" lon="-1.60787">
        <ele>38</ele>
        <time>2013-10-06T08:20:09Z</time>
      </trkpt>
      <trkpt lat="47.24081" lon="-1.60782">
        <ele>38.1</ele>
        <time>2013-10-06T08:20:12Z</time>
      </trkpt>
      <trkpt lat="47.24093" lon="-1.60784">
        <ele>38</ele>
        <time>2013-10-06T08:20:16Z</time>
      </trkpt>
      <trkpt lat="47.24102" lon="-1.60796">
        <ele>37.6</ele>
        <time>2013-10-06T08:20:20Z</time>
      </trkpt>
      <trkpt lat="47.24108" lon="-1.60808">
        <ele>37.3</ele>
        <time>2013-10-06T08:20:24Z</time>
      </trkpt>
      <trkpt lat="47.24113" lon="-1.60822">
        <ele>36.8</ele>
        <time>2013-10-06T08:20:29Z</time>
      </trkpt>
      <trkpt lat="47.24121" lon="-1.60816">
        <ele>38.2</ele>
        <time>2013-10-06T08:20:52Z</time>
      </trkpt>
      <trkpt lat="47.2413" lon="-1.60822">
        <ele>53.4</ele>
        <time>2013-10-06T08:23:43Z</time>
      </trkpt>
      <trkpt lat="47.24138" lon="-1.60815">
        <ele>52.8</ele>
        <time>2013-10-06T08:32:28Z</time>
      </trkpt>
      <trkpt lat="47.24144" lon="-1.60804">
        <ele>52.1</ele>
        <time>2013-10-06T08:32:35Z</time>
      </trkpt>
      <trkpt lat="47.24135" lon="-1.60812">
        <ele>58.4</ele>
        <time>2013-10-06T08:33:01Z</time>
      </trkpt>
      <trkpt lat="47.24135" lon="-1.60827">
        <ele>56.4</ele>
        <time>2013-10-06T08:34:50Z</time>
      </trkpt>
      <trkpt lat="47.24138" lon="-1.60841">
        <ele>55.6</ele>
        <time>2013-10-06T08:34:57Z</time>
      </trkpt>
      <trkpt lat="47.2414" lon="-1.60855">
        <ele>54.8</ele>
        <time>2013-10-06T08:35:05Z</time>
      </trkpt>
      <trkpt lat="47.24137" lon="-1.60868">
        <ele>54</ele>
        <time>2013-10-06T08:35:12Z</time>
      </trkpt>
      <trkpt lat="47.24127" lon="-1.6087">
        <ele>53.6</ele>
        <time>2013-10-06T08:35:17Z</time>
      </trkpt>
      <trkpt lat="47.24121" lon="-1.60879">
        <ele>52.5</ele>
        <time>2013-10-06T08:36:10Z</time>
      </trkpt>
      <trkpt lat="47.24117" lon="-1.60892">
        <ele>52.7</ele>
        <time>2013-10-06T08:36:15Z</time>
      </trkpt>
      <trkpt lat="47.24111" lon="-1.60902">
        <ele>53</ele>
        <time>2013-10-06T08:36:20Z</time>
      </trkpt>
      <trkpt lat="47.24102" lon="-1.60907">
        <ele>53.4</ele>
        <time>2013-10-06T08:36:24Z</time>
      </trkpt>
      <trkpt lat="47.24092" lon="-1.60912">
        <ele>53.9</ele>
        <time>2013-10-06T08:36:28Z</time>
      </trkpt>
      <trkpt lat="47.24081" lon="-1.60918">
        <ele>54.3</ele>
        <time>2013-10-06T08:36:32Z</time>
      </trkpt>
      <trkpt lat="47.24071" lon="-1.60925">
        <ele>54.5</ele>
        <time>2013-10-06T08:36:36Z</time>
      </trkpt>
      <trkpt lat="47.2406" lon="-1.60932">
        <ele>54.5</ele>
        <time>2013-10-06T08:36:40Z</time>
      </trkpt>
      <trkpt lat="47.24049" lon="-1.60935">
        <ele>54.3</ele>
        <time>2013-10-06T08:36:43Z</time>
      </trkpt>
      <trkpt lat="47.24044" lon="-1.6095">
        <ele>53.9</ele>
        <time>2013-10-06T08:36:48Z</time>
      </trkpt>
      <trkpt lat="47.24044" lon="-1.60966">
        <ele>53.3</ele>
        <time>2013-10-06T08:36:52Z</time>
      </trkpt>
      <trkpt lat="47.24044" lon="-1.60982">
        <ele>51.6</ele>
        <time>2013-10-06T08:36:55Z</time>
      </trkpt>
      <trkpt lat="47.24047" lon="-1.60998">
        <ele>51.2</ele>
        <time>2013-10-06T08:36:58Z</time>
      </trkpt>
      <trkpt lat="47.24049" lon="-1.61015">
        <ele>48.6</ele>
        <time>2013-10-06T08:37:01Z</time>
      </trkpt>
      <trkpt lat="47.24052" lon="-1.61032">
        <ele>46.2</ele>
        <time>2013-10-06T08:37:04Z</time>
      </trkpt>
      <trkpt lat="47.24056" lon="-1.6105">
        <ele>43.2</ele>
        <time>2013-10-06T08:37:07Z</time>
      </trkpt>
      <trkpt lat="47.24058" lon="-1.61067">
        <ele>40.2</ele>
        <time>2013-10-06T08:37:10Z</time>
      </trkpt>
      <trkpt lat="47.24061" lon="-1.61086">
        <ele>38.9</ele>
        <time>2013-10-06T08:37:13Z</time>
      </trkpt>
      <trkpt lat="47.24062" lon="-1.611">
        <ele>38.3</ele>
        <time>2013-10-06T08:37:15Z</time>
      </trkpt>
      <trkpt lat="47.24062" lon="-1.61118">
        <ele>36.7</ele>
        <time>2013-10-06T08:37:17Z</time>
      </trkpt>
      <trkpt lat="47.2406" lon="-1.61135">
        <ele>35.9</ele>
        <time>2013-10-06T08:37:19Z</time>
      </trkpt>
      <trkpt lat="47.24058" lon="-1.6115">
        <ele>35.9</ele>
        <time>2013-10-06T08:37:21Z</time>
      </trkpt>
      <trkpt lat="47.24054" lon="-1.61168">
        <ele>35.1</ele>
        <time>2013-10-06T08:37:23Z</time>
      </trkpt>
      <trkpt lat="47.2405" lon="-1.61186">
        <ele>33.6</ele>
        <time>2013-10-06T08:37:25Z</time>
      </trkpt>
      <trkpt lat="47.24046" lon="-1.61206">
        <ele>31.6</ele>
        <time>2013-10-06T08:37:27Z</time>
      </trkpt>
      <trkpt lat="47.24043" lon="-1.61222">
        <ele>29.7</ele>
        <time>2013-10-06T08:37:29Z</time>
      </trkpt>
      <trkpt lat="47.24039" lon="-1.61238">
        <ele>28.9</ele>
        <time>2013-10-06T08:37:31Z</time>
      </trkpt>
      <trkpt lat="47.2403" lon="-1.61247">
        <ele>28.5</ele>
        <time>2013-10-06T08:37:34Z</time>
      </trkpt>
      <trkpt lat="47.24017" lon="-1.6125">
        <ele>23.4</ele>
        <time>2013-10-06T08:37:37Z</time>
      </trkpt>
      <trkpt lat="47.24006" lon="-1.61248">
        <ele>20.6</ele>
        <time>2013-10-06T08:37:39Z</time>
      </trkpt>
      <trkpt lat="47.23993" lon="-1.61245">
        <ele>18.1</ele>
        <time>2013-10-06T08:37:41Z</time>
      </trkpt>
      <trkpt lat="47.23978" lon="-1.6124">
        <ele>16.5</ele>
        <time>2013-10-06T08:37:43Z</time>
      </trkpt>
      <trkpt lat="47.23965" lon="-1.61237">
        <ele>14.7</ele>
        <time>2013-10-06T08:37:45Z</time>
      </trkpt>
      <trkpt lat="47.23952" lon="-1.6124">
        <ele>12.3</ele>
        <time>2013-10-06T08:37:47Z</time>
      </trkpt>
      <trkpt lat="47.2394" lon="-1.61243">
        <ele>9.5</ele>
        <time>2013-10-06T08:37:49Z</time>
      </trkpt>
      <trkpt lat="47.23929" lon="-1.6125">
        <ele>8.4</ele>
        <time>2013-10-06T08:37:51Z</time>
      </trkpt>
      <trkpt lat="47.23917" lon="-1.61258">
        <ele>7.2</ele>
        <time>2013-10-06T08:37:53Z</time>
      </trkpt>
      <trkpt lat="47.23905" lon="-1.61263">
        <ele>6.4</ele>
        <time>2013-10-06T08:37:55Z</time>
      </trkpt>
      <trkpt lat="47.23892" lon="-1.61268">
        <ele>6.1</ele>
        <time>2013-10-06T08:37:57Z</time>
      </trkpt>
      <trkpt lat="47.2388" lon="-1.61273">
        <ele>4.9</ele>
        <time>2013-10-06T08:37:59Z</time>
      </trkpt>
      <trkpt lat="47.23869" lon="-1.61281">
        <ele>3.3</ele>
        <time>2013-10-06T08:38:01Z</time>
      </trkpt>
      <trkpt lat="47.23858" lon="-1.61295">
        <ele>2.5</ele>
        <time>2013-10-06T08:38:03Z</time>
      </trkpt>
      <trkpt lat="47.23847" lon="-1.61308">
        <ele>2.3</ele>
        <time>2013-10-06T08:38:05Z</time>
      </trkpt>
      <trkpt lat="47.23837" lon="-1.61318">
        <ele>2.6</ele>
        <time>2013-10-06T08:38:07Z</time>
      </trkpt>
      <trkpt lat="47.23826" lon="-1.61324">
        <ele>1</ele>
        <time>2013-10-06T08:38:09Z</time>
      </trkpt>
      <trkpt lat="47.23818" lon="-1.61333">
        <ele>-1.1</ele>
        <time>2013-10-06T08:38:11Z</time>
      </trkpt>
      <trkpt lat="47.23811" lon="-1.61342">
        <ele>-1.5</ele>
        <time>2013-10-06T08:38:13Z</time>
      </trkpt>
      <trkpt lat="47.23802" lon="-1.61354">
        <ele>-1.7</ele>
        <time>2013-10-06T08:38:16Z</time>
      </trkpt>
      <trkpt lat="47.23795" lon="-1.61362">
        <ele>-1.8</ele>
        <time>2013-10-06T08:38:19Z</time>
      </trkpt>
      <trkpt lat="47.23791" lon="-1.61376">
        <ele>-1.8</ele>
        <time>2013-10-06T08:38:23Z</time>
      </trkpt>
      <trkpt lat="47.23789" lon="-1.61393">
        <ele>-0.8</ele>
        <time>2013-10-06T08:38:26Z</time>
      </trkpt>
      <trkpt lat="47.23788" lon="-1.61408">
        <ele>0.5</ele>
        <time>2013-10-06T08:38:28Z</time>
      </trkpt>
      <trkpt lat="47.23789" lon="-1.61427">
        <ele>3</ele>
        <time>2013-10-06T08:38:30Z</time>
      </trkpt>
      <trkpt lat="47.23788" lon="-1.61444">
        <ele>3.7</ele>
        <time>2013-10-06T08:38:32Z</time>
      </trkpt>
      <trkpt lat="47.23784" lon="-1.61462">
        <ele>3.9</ele>
        <time>2013-10-06T08:38:34Z</time>
      </trkpt>
      <trkpt lat="47.2378" lon="-1.6148">
        <ele>2.3</ele>
        <time>2013-10-06T08:38:36Z</time>
      </trkpt>
      <trkpt lat="47.23774" lon="-1.61495">
        <ele>1.5</ele>
        <time>2013-10-06T08:38:38Z</time>
      </trkpt>
      <trkpt lat="47.23769" lon="-1.61508">
        <ele>1.1</ele>
        <time>2013-10-06T08:38:40Z</time>
      </trkpt>
      <trkpt lat="47.23768" lon="-1.61523">
        <ele>0.9</ele>
        <time>2013-10-06T08:38:43Z</time>
      </trkpt>
      <trkpt lat="47.23763" lon="-1.61534">
        <ele>0.8</ele>
        <time>2013-10-06T08:38:46Z</time>
      </trkpt>
      <trkpt lat="47.23751" lon="-1.61536">
        <ele>0.5</ele>
        <time>2013-10-06T08:38:49Z</time>
      </trkpt>
      <trkpt lat="47.23743" lon="-1.61528">
        <ele>17.5</ele>
        <time>2013-10-06T08:38:53Z</time>
      </trkpt>
      <trkpt lat="47.23734" lon="-1.61519">
        <ele>-0.6</ele>
        <time>2013-10-06T08:38:57Z</time>
      </trkpt>
      <trkpt lat="47.23723" lon="-1.61521">
        <ele>-3.9</ele>
        <time>2013-10-06T08:39:01Z</time>
      </trkpt>
      <trkpt lat="47.23712" lon="-1.61524">
        <ele>-5.3</ele>
        <time>2013-10-06T08:39:04Z</time>
      </trkpt>
      <trkpt lat="47.23703" lon="-1.61527">
        <ele>-5.7</ele>
        <time>2013-10-06T08:39:07Z</time>
      </trkpt>
      <trkpt lat="47.23694" lon="-1.61535">
        <ele>-6.1</ele>
        <time>2013-10-06T08:39:10Z</time>
      </trkpt>
      <trkpt lat="47.23685" lon="-1.61543">
        <ele>-6.6</ele>
        <time>2013-10-06T08:39:13Z</time>
      </trkpt>
      <trkpt lat="47.23671" lon="-1.61547">
        <ele>-6.9</ele>
        <time>2013-10-06T08:39:17Z</time>
      </trkpt>
      <trkpt lat="47.2366" lon="-1.61547">
        <ele>-6.2</ele>
        <time>2013-10-06T08:39:19Z</time>
      </trkpt>
      <trkpt lat="47.23649" lon="-1.61546">
        <ele>-5.3</ele>
        <time>2013-10-06T08:39:21Z</time>
      </trkpt>
      <trkpt lat="47.2364" lon="-1.61543">
        <ele>-4.3</ele>
        <time>2013-10-06T08:39:23Z</time>
      </trkpt>
      <trkpt lat="47.23628" lon="-1.61544">
        <ele>-2.4</ele>
        <time>2013-10-06T08:39:27Z</time>
      </trkpt>
      <trkpt lat="47.23621" lon="-1.61554">
        <ele>-0.6</ele>
        <time>2013-10-06T08:39:31Z</time>
      </trkpt>
      <trkpt lat="47.23617" lon="-1.61565">
        <ele>1</ele>
        <time>2013-10-06T08:39:34Z</time>
      </trkpt>
      <trkpt lat="47.23609" lon="-1.61576">
        <ele>2.6</ele>
        <time>2013-10-06T08:39:37Z</time>
      </trkpt>
      <trkpt lat="47.236" lon="-1.61586">
        <ele>4.1</ele>
        <time>2013-10-06T08:39:40Z</time>
      </trkpt>
      <trkpt lat="47.23599" lon="-1.616">
        <ele>6</ele>
        <time>2013-10-06T08:39:44Z</time>
      </trkpt>
      <trkpt lat="47.23597" lon="-1.61613">
        <ele>7.7</ele>
        <time>2013-10-06T08:39:48Z</time>
      </trkpt>
      <trkpt lat="47.23592" lon="-1.61627">
        <ele>9.7</ele>
        <time>2013-10-06T08:39:52Z</time>
      </trkpt>
      <trkpt lat="47.23584" lon="-1.6164">
        <ele>11.7</ele>
        <time>2013-10-06T08:39:56Z</time>
      </trkpt>
      <trkpt lat="47.23576" lon="-1.61653">
        <ele>13.2</ele>
        <time>2013-10-06T08:40:00Z</time>
      </trkpt>
      <trkpt lat="47.23571" lon="-1.61665">
        <ele>14.4</ele>
        <time>2013-10-06T08:40:03Z</time>
      </trkpt>
      <trkpt lat="47.23562" lon="-1.61675">
        <ele>15.4</ele>
        <time>2013-10-06T08:40:06Z</time>
      </trkpt>
      <trkpt lat="47.23553" lon="-1.61684">
        <ele>16.4</ele>
        <time>2013-10-06T08:40:09Z</time>
      </trkpt>
      <trkpt lat="47.23544" lon="-1.61692">
        <ele>17.3</ele>
        <time>2013-10-06T08:40:12Z</time>
      </trkpt>
      <trkpt lat="47.23537" lon="-1.617">
        <ele>18.1</ele>
        <time>2013-10-06T08:40:15Z</time>
      </trkpt>
      <trkpt lat="47.2353" lon="-1.61709">
        <ele>18.9</ele>
        <time>2013-10-06T08:40:18Z</time>
      </trkpt>
      <trkpt lat="47.23521" lon="-1.61721">
        <ele>19.9</ele>
        <time>2013-10-06T08:40:22Z</time>
      </trkpt>
      <trkpt lat="47.23514" lon="-1.6173">
        <ele>20.7</ele>
        <time>2013-10-06T08:40:25Z</time>
      </trkpt>
      <trkpt lat="47.23504" lon="-1.61738">
        <ele>21.8</ele>
        <time>2013-10-06T08:40:29Z</time>
      </trkpt>
      <trkpt lat="47.23493" lon="-1.61748">
        <ele>23.3</ele>
        <time>2013-10-06T08:40:33Z</time>
      </trkpt>
      <trkpt lat="47.23485" lon="-1.61752">
        <ele>24.1</ele>
        <time>2013-10-06T08:40:36Z</time>
      </trkpt>
      <trkpt lat="47.23474" lon="-1.61749">
        <ele>24.8</ele>
        <time>2013-10-06T08:40:40Z</time>
      </trkpt>
      <trkpt lat="47.23466" lon="-1.6174">
        <ele>25.6</ele>
        <time>2013-10-06T08:40:44Z</time>
      </trkpt>
      <trkpt lat="47.23458" lon="-1.61732">
        <ele>26.3</ele>
        <time>2013-10-06T08:40:47Z</time>
      </trkpt>
      <trkpt lat="47.23448" lon="-1.61724">
        <ele>26.8</ele>
        <time>2013-10-06T08:40:50Z</time>
      </trkpt>
      <trkpt lat="47.23439" lon="-1.61719">
        <ele>27.2</ele>
        <time>2013-10-06T08:40:53Z</time>
      </trkpt>
      <trkpt lat="47.2343" lon="-1.61715">
        <ele>27.5</ele>
        <time>2013-10-06T08:40:56Z</time>
      </trkpt>
      <trkpt lat="47.23419" lon="-1.61715">
        <ele>28</ele>
        <time>2013-10-06T08:41:00Z</time>
      </trkpt>
      <trkpt lat="47.23407" lon="-1.61714">
        <ele>28.9</ele>
        <time>2013-10-06T08:41:04Z</time>
      </trkpt>
      <trkpt lat="47.23397" lon="-1.61712">
        <ele>29.6</ele>
        <time>2013-10-06T08:41:07Z</time>
      </trkpt>
      <trkpt lat="47.23387" lon="-1.61715">
        <ele>30.5</ele>
        <time>2013-10-06T08:41:11Z</time>
      </trkpt>
      <trkpt lat="47.23378" lon="-1.61721">
        <ele>31.1</ele>
        <time>2013-10-06T08:41:14Z</time>
      </trkpt>
      <trkpt lat="47.2337" lon="-1.61734">
        <ele>32</ele>
        <time>2013-10-06T08:41:18Z</time>
      </trkpt>
      <trkpt lat="47.23372" lon="-1.6175">
        <ele>32.7</ele>
        <time>2013-10-06T08:41:22Z</time>
      </trkpt>
      <trkpt lat="47.23378" lon="-1.61764">
        <ele>33.1</ele>
        <time>2013-10-06T08:41:26Z</time>
      </trkpt>
      <trkpt lat="47.23384" lon="-1.61776">
        <ele>33.1</ele>
        <time>2013-10-06T08:41:29Z</time>
      </trkpt>
      <trkpt lat="47.23389" lon="-1.61791">
        <ele>32.8</ele>
        <time>2013-10-06T08:41:32Z</time>
      </trkpt>
      <trkpt lat="47.23394" lon="-1.61805">
        <ele>32.7</ele>
        <time>2013-10-06T08:41:35Z</time>
      </trkpt>
      <trkpt lat="47.23399" lon="-1.61821">
        <ele>33.1</ele>
        <time>2013-10-06T08:41:38Z</time>
      </trkpt>
      <trkpt lat="47.23405" lon="-1.61836">
        <ele>33.5</ele>
        <time>2013-10-06T08:41:41Z</time>
      </trkpt>
      <trkpt lat="47.23411" lon="-1.61853">
        <ele>32.9</ele>
        <time>2013-10-06T08:41:44Z</time>
      </trkpt>
      <trkpt lat="47.23416" lon="-1.61868">
        <ele>34.1</ele>
        <time>2013-10-06T08:41:47Z</time>
      </trkpt>
      <trkpt lat="47.23418" lon="-1.61884">
        <ele>34.1</ele>
        <time>2013-10-06T08:41:50Z</time>
      </trkpt>
      <trkpt lat="47.23416" lon="-1.61899">
        <ele>34</ele>
        <time>2013-10-06T08:41:53Z</time>
      </trkpt>
      <trkpt lat="47.23411" lon="-1.61913">
        <ele>33.7</ele>
        <time>2013-10-06T08:41:56Z</time>
      </trkpt>
      <trkpt lat="47.23406" lon="-1.61926">
        <ele>33.5</ele>
        <time>2013-10-06T08:41:59Z</time>
      </trkpt>
      <trkpt lat="47.23401" lon="-1.61937">
        <ele>33.3</ele>
        <time>2013-10-06T08:42:02Z</time>
      </trkpt>
      <trkpt lat="47.23396" lon="-1.61948">
        <ele>33.1</ele>
        <time>2013-10-06T08:42:05Z</time>
      </trkpt>
      <trkpt lat="47.23391" lon="-1.61961">
        <ele>32.9</ele>
        <time>2013-10-06T08:42:09Z</time>
      </trkpt>
      <trkpt lat="47.23387" lon="-1.61975">
        <ele>32.7</ele>
        <time>2013-10-06T08:42:13Z</time>
      </trkpt>
      <trkpt lat="47.23383" lon="-1.61989">
        <ele>32.5</ele>
        <time>2013-10-06T08:42:17Z</time>
      </trkpt>
      <trkpt lat="47.23379" lon="-1.62004">
        <ele>32.3</ele>
        <time>2013-10-06T08:42:21Z</time>
      </trkpt>
      <trkpt lat="47.23375" lon="-1.62018">
        <ele>32.1</ele>
        <time>2013-10-06T08:42:25Z</time>
      </trkpt>
      <trkpt lat="47.23374" lon="-1.62033">
        <ele>31.9</ele>
        <time>2013-10-06T08:42:28Z</time>
      </trkpt>
      <trkpt lat="47.23374" lon="-1.6205">
        <ele>31.4</ele>
        <time>2013-10-06T08:42:31Z</time>
      </trkpt>
      <trkpt lat="47.23376" lon="-1.62068">
        <ele>31.3</ele>
        <time>2013-10-06T08:42:34Z</time>
      </trkpt>
      <trkpt lat="47.23378" lon="-1.62085">
        <ele>30.6</ele>
        <time>2013-10-06T08:42:37Z</time>
      </trkpt>
      <trkpt lat="47.23382" lon="-1.62101">
        <ele>30.1</ele>
        <time>2013-10-06T08:42:40Z</time>
      </trkpt>
      <trkpt lat="47.23386" lon="-1.62118">
        <ele>30.4</ele>
        <time>2013-10-06T08:42:43Z</time>
      </trkpt>
      <trkpt lat="47.23389" lon="-1.62134">
        <ele>32.5</ele>
        <time>2013-10-06T08:42:46Z</time>
      </trkpt>
      <trkpt lat="47.23393" lon="-1.62147">
        <ele>34.2</ele>
        <time>2013-10-06T08:42:48Z</time>
      </trkpt>
      <trkpt lat="47.23399" lon="-1.6216">
        <ele>36.8</ele>
        <time>2013-10-06T08:42:50Z</time>
      </trkpt>
      <trkpt lat="47.23405" lon="-1.62172">
        <ele>39.3</ele>
        <time>2013-10-06T08:42:52Z</time>
      </trkpt>
      <trkpt lat="47.23409" lon="-1.62185">
        <ele>40.2</ele>
        <time>2013-10-06T08:42:54Z</time>
      </trkpt>
      <trkpt lat="47.23414" lon="-1.62199">
        <ele>40</ele>
        <time>2013-10-06T08:42:56Z</time>
      </trkpt>
      <trkpt lat="47.23418" lon="-1.62213">
        <ele>40.1</ele>
        <time>2013-10-06T08:42:58Z</time>
      </trkpt>
      <trkpt lat="47.23422" lon="-1.62227">
        <ele>38.7</ele>
        <time>2013-10-06T08:43:00Z</time>
      </trkpt>
      <trkpt lat="47.23429" lon="-1.62246">
        <ele>37.8</ele>
        <time>2013-10-06T08:43:03Z</time>
      </trkpt>
      <trkpt lat="47.23433" lon="-1.62261">
        <ele>37.3</ele>
        <time>2013-10-06T08:43:05Z</time>
      </trkpt>
      <trkpt lat="47.23438" lon="-1.62276">
        <ele>36.2</ele>
        <time>2013-10-06T08:43:07Z</time>
      </trkpt>
      <trkpt lat="47.23443" lon="-1.6229">
        <ele>35.5</ele>
        <time>2013-10-06T08:43:09Z</time>
      </trkpt>
      <trkpt lat="47.23447" lon="-1.62305">
        <ele>34.9</ele>
        <time>2013-10-06T08:43:11Z</time>
      </trkpt>
      <trkpt lat="47.23452" lon="-1.62323">
        <ele>34.7</ele>
        <time>2013-10-06T08:43:14Z</time>
      </trkpt>
      <trkpt lat="47.23455" lon="-1.62337">
        <ele>34.6</ele>
        <time>2013-10-06T08:43:16Z</time>
      </trkpt>
      <trkpt lat="47.23459" lon="-1.62351">
        <ele>36.5</ele>
        <time>2013-10-06T08:43:18Z</time>
      </trkpt>
      <trkpt lat="47.23462" lon="-1.62364">
        <ele>37.5</ele>
        <time>2013-10-06T08:43:20Z</time>
      </trkpt>
      <trkpt lat="47.23466" lon="-1.62378">
        <ele>37.6</ele>
        <time>2013-10-06T08:43:23Z</time>
      </trkpt>
      <trkpt lat="47.23469" lon="-1.62393">
        <ele>37.5</ele>
        <time>2013-10-06T08:43:26Z</time>
      </trkpt>
      <trkpt lat="47.23475" lon="-1.62404">
        <ele>37.6</ele>
        <time>2013-10-06T08:43:29Z</time>
      </trkpt>
      <trkpt lat="47.23487" lon="-1.62402">
        <ele>37.7</ele>
        <time>2013-10-06T08:43:33Z</time>
      </trkpt>
      <trkpt lat="47.23497" lon="-1.62398">
        <ele>38</ele>
        <time>2013-10-06T08:43:36Z</time>
      </trkpt>
      <trkpt lat="47.23509" lon="-1.62393">
        <ele>38.6</ele>
        <time>2013-10-06T08:43:39Z</time>
      </trkpt>
      <trkpt lat="47.2352" lon="-1.62387">
        <ele>39.4</ele>
        <time>2013-10-06T08:43:42Z</time>
      </trkpt>
      <trkpt lat="47.23533" lon="-1.62381">
        <ele>38.6</ele>
        <time>2013-10-06T08:43:45Z</time>
      </trkpt>
      <trkpt lat="47.23544" lon="-1.62376">
        <ele>38.2</ele>
        <time>2013-10-06T08:43:47Z</time>
      </trkpt>
      <trkpt lat="47.23554" lon="-1.62371">
        <ele>38.2</ele>
        <time>2013-10-06T08:43:49Z</time>
      </trkpt>
      <trkpt lat="47.23564" lon="-1.62367">
        <ele>38.1</ele>
        <time>2013-10-06T08:43:51Z</time>
      </trkpt>
      <trkpt lat="47.23573" lon="-1.62364">
        <ele>38.2</ele>
        <time>2013-10-06T08:43:53Z</time>
      </trkpt>
      <trkpt lat="47.23586" lon="-1.62358">
        <ele>38</ele>
        <time>2013-10-06T08:43:56Z</time>
      </trkpt>
      <trkpt lat="47.23595" lon="-1.62354">
        <ele>38.1</ele>
        <time>2013-10-06T08:43:57Z</time>
      </trkpt>
      <trkpt lat="47.23604" lon="-1.6235">
        <ele>38.4</ele>
        <time>2013-10-06T08:43:59Z</time>
      </trkpt>
      <trkpt lat="47.23618" lon="-1.62344">
        <ele>38.1</ele>
        <time>2013-10-06T08:44:02Z</time>
      </trkpt>
      <trkpt lat="47.23627" lon="-1.62339">
        <ele>37.3</ele>
        <time>2013-10-06T08:44:04Z</time>
      </trkpt>
      <trkpt lat="47.23635" lon="-1.62335">
        <ele>36.6</ele>
        <time>2013-10-06T08:44:06Z</time>
      </trkpt>
      <trkpt lat="47.23647" lon="-1.62328">
        <ele>35.9</ele>
        <time>2013-10-06T08:44:09Z</time>
      </trkpt>
      <trkpt lat="47.2366" lon="-1.62325">
        <ele>35.8</ele>
        <time>2013-10-06T08:44:12Z</time>
      </trkpt>
      <trkpt lat="47.23672" lon="-1.62323">
        <ele>35.9</ele>
        <time>2013-10-06T08:44:15Z</time>
      </trkpt>
      <trkpt lat="47.23683" lon="-1.6232">
        <ele>35.9</ele>
        <time>2013-10-06T08:44:18Z</time>
      </trkpt>
      <trkpt lat="47.23696" lon="-1.6232">
        <ele>36.4</ele>
        <time>2013-10-06T08:44:21Z</time>
      </trkpt>
      <trkpt lat="47.23705" lon="-1.62321">
        <ele>36.3</ele>
        <time>2013-10-06T08:44:23Z</time>
      </trkpt>
      <trkpt lat="47.23714" lon="-1.62321">
        <ele>36.2</ele>
        <time>2013-10-06T08:44:25Z</time>
      </trkpt>
      <trkpt lat="47.23723" lon="-1.62321">
        <ele>36.6</ele>
        <time>2013-10-06T08:44:27Z</time>
      </trkpt>
      <trkpt lat="47.23736" lon="-1.62324">
        <ele>36.2</ele>
        <time>2013-10-06T08:44:30Z</time>
      </trkpt>
      <trkpt lat="47.23745" lon="-1.62325">
        <ele>35.1</ele>
        <time>2013-10-06T08:44:32Z</time>
      </trkpt>
      <trkpt lat="47.23756" lon="-1.62327">
        <ele>34.5</ele>
        <time>2013-10-06T08:44:34Z</time>
      </trkpt>
      <trkpt lat="47.23767" lon="-1.62327">
        <ele>34.8</ele>
        <time>2013-10-06T08:44:36Z</time>
      </trkpt>
      <trkpt lat="47.23777" lon="-1.62324">
        <ele>35.4</ele>
        <time>2013-10-06T08:44:38Z</time>
      </trkpt>
      <trkpt lat="47.23783" lon="-1.62314">
        <ele>35.6</ele>
        <time>2013-10-06T08:44:40Z</time>
      </trkpt>
      <trkpt lat="47.23784" lon="-1.623">
        <ele>35.2</ele>
        <time>2013-10-06T08:44:42Z</time>
      </trkpt>
      <trkpt lat="47.2378" lon="-1.62286">
        <ele>33.2</ele>
        <time>2013-10-06T08:44:44Z</time>
      </trkpt>
      <trkpt lat="47.23775" lon="-1.62271">
        <ele>32.9</ele>
        <time>2013-10-06T08:44:47Z</time>
      </trkpt>
      <trkpt lat="47.23772" lon="-1.62258">
        <ele>32.8</ele>
        <time>2013-10-06T08:44:50Z</time>
      </trkpt>
      <trkpt lat="47.23769" lon="-1.62246">
        <ele>32.6</ele>
        <time>2013-10-06T08:44:53Z</time>
      </trkpt>
      <trkpt lat="47.23772" lon="-1.62232">
        <ele>32.6</ele>
        <time>2013-10-06T08:44:57Z</time>
      </trkpt>
      <trkpt lat="47.23779" lon="-1.62222">
        <ele>32.3</ele>
        <time>2013-10-06T08:45:00Z</time>
      </trkpt>
      <trkpt lat="47.23788" lon="-1.6221">
        <ele>31.6</ele>
        <time>2013-10-06T08:45:03Z</time>
      </trkpt>
      <trkpt lat="47.23789" lon="-1.62196">
        <ele>31.3</ele>
        <time>2013-10-06T08:45:07Z</time>
      </trkpt>
      <trkpt lat="47.2378" lon="-1.62195">
        <ele>31.1</ele>
        <time>2013-10-06T08:45:13Z</time>
      </trkpt>
      <trkpt lat="47.2379" lon="-1.6219">
        <ele>32.7</ele>
        <time>2013-10-06T08:45:57Z</time>
      </trkpt>
      <trkpt lat="47.238" lon="-1.62186">
        <ele>32.7</ele>
        <time>2013-10-06T08:46:06Z</time>
      </trkpt>
      <trkpt lat="47.23798" lon="-1.62171">
        <ele>32.4</ele>
        <time>2013-10-06T08:46:11Z</time>
      </trkpt>
      <trkpt lat="47.23795" lon="-1.62157">
        <ele>32.3</ele>
        <time>2013-10-06T08:46:15Z</time>
      </trkpt>
      <trkpt lat="47.23788" lon="-1.62144">
        <ele>31.9</ele>
        <time>2013-10-06T08:46:20Z</time>
      </trkpt>
      <trkpt lat="47.23779" lon="-1.62136">
        <ele>31.5</ele>
        <time>2013-10-06T08:46:25Z</time>
      </trkpt>
      <trkpt lat="47.2377" lon="-1.62128">
        <ele>30.8</ele>
        <time>2013-10-06T08:46:29Z</time>
      </trkpt>
      <trkpt lat="47.23763" lon="-1.6212">
        <ele>29.2</ele>
        <time>2013-10-06T08:46:34Z</time>
      </trkpt>
      <trkpt lat="47.23756" lon="-1.62111">
        <ele>25.6</ele>
        <time>2013-10-06T08:47:06Z</time>
      </trkpt>
      <trkpt lat="47.2376" lon="-1.62124">
        <ele>22.7</ele>
        <time>2013-10-06T08:48:39Z</time>
      </trkpt>
      <trkpt lat="47.23768" lon="-1.62132">
        <ele>23</ele>
        <time>2013-10-06T08:48:45Z</time>
      </trkpt>
      <trkpt lat="47.23776" lon="-1.62139">
        <ele>23</ele>
        <time>2013-10-06T08:48:54Z</time>
      </trkpt>
      <trkpt lat="47.23785" lon="-1.62144">
        <ele>22.3</ele>
        <time>2013-10-06T08:49:00Z</time>
      </trkpt>
      <trkpt lat="47.23794" lon="-1.62154">
        <ele>22</ele>
        <time>2013-10-06T08:49:06Z</time>
      </trkpt>
      <trkpt lat="47.23796" lon="-1.62168">
        <ele>21.7</ele>
        <time>2013-10-06T08:49:10Z</time>
      </trkpt>
      <trkpt lat="47.23798" lon="-1.62183">
        <ele>21.7</ele>
        <time>2013-10-06T08:49:14Z</time>
      </trkpt>
      <trkpt lat="47.23808" lon="-1.62188">
        <ele>22.6</ele>
        <time>2013-10-06T08:49:21Z</time>
      </trkpt>
      <trkpt lat="47.2382" lon="-1.62179">
        <ele>23.8</ele>
        <time>2013-10-06T08:49:24Z</time>
      </trkpt>
      <trkpt lat="47.23829" lon="-1.62174">
        <ele>25</ele>
        <time>2013-10-06T08:49:26Z</time>
      </trkpt>
      <trkpt lat="47.23843" lon="-1.62169">
        <ele>26</ele>
        <time>2013-10-06T08:49:29Z</time>
      </trkpt>
      <trkpt lat="47.23854" lon="-1.62164">
        <ele>26.1</ele>
        <time>2013-10-06T08:49:31Z</time>
      </trkpt>
      <trkpt lat="47.23864" lon="-1.62159">
        <ele>25.8</ele>
        <time>2013-10-06T08:49:33Z</time>
      </trkpt>
      <trkpt lat="47.23875" lon="-1.62152">
        <ele>25.2</ele>
        <time>2013-10-06T08:49:35Z</time>
      </trkpt>
      <trkpt lat="47.23883" lon="-1.6214">
        <ele>24.8</ele>
        <time>2013-10-06T08:49:37Z</time>
      </trkpt>
      <trkpt lat="47.23885" lon="-1.62123">
        <ele>24.9</ele>
        <time>2013-10-06T08:49:39Z</time>
      </trkpt>
      <trkpt lat="47.23879" lon="-1.62105">
        <ele>23.8</ele>
        <time>2013-10-06T08:49:41Z</time>
      </trkpt>
      <trkpt lat="47.2387" lon="-1.62087">
        <ele>22.5</ele>
        <time>2013-10-06T08:49:43Z</time>
      </trkpt>
      <trkpt lat="47.23861" lon="-1.62071">
        <ele>21.2</ele>
        <time>2013-10-06T08:49:45Z</time>
      </trkpt>
      <trkpt lat="47.23852" lon="-1.62055">
        <ele>20.4</ele>
        <time>2013-10-06T08:49:47Z</time>
      </trkpt>
      <trkpt lat="47.23845" lon="-1.62038">
        <ele>19.5</ele>
        <time>2013-10-06T08:49:49Z</time>
      </trkpt>
      <trkpt lat="47.2384" lon="-1.62021">
        <ele>19.2</ele>
        <time>2013-10-06T08:49:51Z</time>
      </trkpt>
      <trkpt lat="47.23838" lon="-1.62005">
        <ele>19.3</ele>
        <time>2013-10-06T08:49:53Z</time>
      </trkpt>
      <trkpt lat="47.23838" lon="-1.61986">
        <ele>19.3</ele>
        <time>2013-10-06T08:49:56Z</time>
      </trkpt>
      <trkpt lat="47.23843" lon="-1.61967">
        <ele>18.3</ele>
        <time>2013-10-06T08:49:59Z</time>
      </trkpt>
      <trkpt lat="47.23845" lon="-1.61953">
        <ele>18.2</ele>
        <time>2013-10-06T08:50:02Z</time>
      </trkpt>
      <trkpt lat="47.23843" lon="-1.6194">
        <ele>18</ele>
        <time>2013-10-06T08:50:05Z</time>
      </trkpt>
      <trkpt lat="47.23836" lon="-1.61929">
        <ele>17.7</ele>
        <time>2013-10-06T08:50:08Z</time>
      </trkpt>
      <trkpt lat="47.23827" lon="-1.61916">
        <ele>15.5</ele>
        <time>2013-10-06T08:50:11Z</time>
      </trkpt>
      <trkpt lat="47.23821" lon="-1.61903">
        <ele>11.9</ele>
        <time>2013-10-06T08:50:13Z</time>
      </trkpt>
      <trkpt lat="47.23813" lon="-1.61891">
        <ele>8.4</ele>
        <time>2013-10-06T08:50:15Z</time>
      </trkpt>
      <trkpt lat="47.23807" lon="-1.61878">
        <ele>5.2</ele>
        <time>2013-10-06T08:50:17Z</time>
      </trkpt>
      <trkpt lat="47.238" lon="-1.61862">
        <ele>4.7</ele>
        <time>2013-10-06T08:50:20Z</time>
      </trkpt>
      <trkpt lat="47.23792" lon="-1.61848">
        <ele>4.1</ele>
        <time>2013-10-06T08:50:23Z</time>
      </trkpt>
      <trkpt lat="47.23786" lon="-1.61833">
        <ele>3.4</ele>
        <time>2013-10-06T08:50:26Z</time>
      </trkpt>
      <trkpt lat="47.23781" lon="-1.61817">
        <ele>2.7</ele>
        <time>2013-10-06T08:50:29Z</time>
      </trkpt>
      <trkpt lat="47.23776" lon="-1.61805">
        <ele>1.8</ele>
        <time>2013-10-06T08:50:32Z</time>
      </trkpt>
      <trkpt lat="47.23772" lon="-1.61792">
        <ele>0.8</ele>
        <time>2013-10-06T08:50:35Z</time>
      </trkpt>
      <trkpt lat="47.23766" lon="-1.6178">
        <ele>-6.4</ele>
        <time>2013-10-06T08:50:37Z</time>
      </trkpt>
      <trkpt lat="47.23764" lon="-1.61767">
        <ele>-9.2</ele>
        <time>2013-10-06T08:50:39Z</time>
      </trkpt>
      <trkpt lat="47.23762" lon="-1.61751">
        <ele>-9.9</ele>
        <time>2013-10-06T08:50:41Z</time>
      </trkpt>
      <trkpt lat="47.2376" lon="-1.61735">
        <ele>-10.7</ele>
        <time>2013-10-06T08:50:43Z</time>
      </trkpt>
      <trkpt lat="47.23759" lon="-1.6172">
        <ele>-11.3</ele>
        <time>2013-10-06T08:50:45Z</time>
      </trkpt>
      <trkpt lat="47.23759" lon="-1.61704">
        <ele>-11.6</ele>
        <time>2013-10-06T08:50:47Z</time>
      </trkpt>
      <trkpt lat="47.2376" lon="-1.61687">
        <ele>-11.8</ele>
        <time>2013-10-06T08:50:49Z</time>
      </trkpt>
      <trkpt lat="47.23763" lon="-1.61674">
        <ele>-11.7</ele>
        <time>2013-10-06T08:50:51Z</time>
      </trkpt>
      <trkpt lat="47.23768" lon="-1.61655">
        <ele>-11.3</ele>
        <time>2013-10-06T08:50:54Z</time>
      </trkpt>
      <trkpt lat="47.23772" lon="-1.6164">
        <ele>-11.1</ele>
        <time>2013-10-06T08:50:57Z</time>
      </trkpt>
      <trkpt lat="47.23775" lon="-1.61623">
        <ele>-10.3</ele>
        <time>2013-10-06T08:51:01Z</time>
      </trkpt>
      <trkpt lat="47.23778" lon="-1.61609">
        <ele>-9.9</ele>
        <time>2013-10-06T08:51:04Z</time>
      </trkpt>
      <trkpt lat="47.23782" lon="-1.61597">
        <ele>-8.7</ele>
        <time>2013-10-06T08:51:09Z</time>
      </trkpt>
      <trkpt lat="47.23783" lon="-1.61581">
        <ele>-7</ele>
        <time>2013-10-06T08:51:15Z</time>
      </trkpt>
      <trkpt lat="47.23786" lon="-1.61565">
        <ele>-5.8</ele>
        <time>2013-10-06T08:51:19Z</time>
      </trkpt>
      <trkpt lat="47.23786" lon="-1.61551">
        <ele>-4.5</ele>
        <time>2013-10-06T08:51:24Z</time>
      </trkpt>
      <trkpt lat="47.23791" lon="-1.61537">
        <ele>-3.6</ele>
        <time>2013-10-06T08:51:27Z</time>
      </trkpt>
      <trkpt lat="47.23781" lon="-1.61544">
        <ele>-1.2</ele>
        <time>2013-10-06T08:51:35Z</time>
      </trkpt>
      <trkpt lat="47.23776" lon="-1.61559">
        <ele>-0.5</ele>
        <time>2013-10-06T08:51:38Z</time>
      </trkpt>
      <trkpt lat="47.23777" lon="-1.61572">
        <ele>0.6</ele>
        <time>2013-10-06T08:51:44Z</time>
      </trkpt>
      <trkpt lat="47.23777" lon="-1.61588">
        <ele>1.7</ele>
        <time>2013-10-06T08:51:50Z</time>
      </trkpt>
      <trkpt lat="47.23774" lon="-1.61602">
        <ele>2.6</ele>
        <time>2013-10-06T08:51:54Z</time>
      </trkpt>
      <trkpt lat="47.23768" lon="-1.61616">
        <ele>3.5</ele>
        <time>2013-10-06T08:51:58Z</time>
      </trkpt>
      <trkpt lat="47.23764" lon="-1.61631">
        <ele>4.3</ele>
        <time>2013-10-06T08:52:02Z</time>
      </trkpt>
      <trkpt lat="47.23761" lon="-1.61644">
        <ele>4.9</ele>
        <time>2013-10-06T08:52:06Z</time>
      </trkpt>
      <trkpt lat="47.23759" lon="-1.61657">
        <ele>5.6</ele>
        <time>2013-10-06T08:52:11Z</time>
      </trkpt>
      <trkpt lat="47.23759" lon="-1.61674">
        <ele>6.5</ele>
        <time>2013-10-06T08:52:19Z</time>
      </trkpt>
      <trkpt lat="47.23763" lon="-1.61687">
        <ele>7.4</ele>
        <time>2013-10-06T08:52:24Z</time>
      </trkpt>
      <trkpt lat="47.23769" lon="-1.61697">
        <ele>8.1</ele>
        <time>2013-10-06T08:52:30Z</time>
      </trkpt>
      <trkpt lat="47.23774" lon="-1.61708">
        <ele>9</ele>
        <time>2013-10-06T08:52:35Z</time>
      </trkpt>
      <trkpt lat="47.23781" lon="-1.61718">
        <ele>12.3</ele>
        <time>2013-10-06T08:52:49Z</time>
      </trkpt>
      <trkpt lat="47.23782" lon="-1.61731">
        <ele>13.1</ele>
        <time>2013-10-06T08:52:58Z</time>
      </trkpt>
      <trkpt lat="47.23773" lon="-1.61733">
        <ele>14.9</ele>
        <time>2013-10-06T08:53:39Z</time>
      </trkpt>
      <trkpt lat="47.2377" lon="-1.61746">
        <ele>17.9</ele>
        <time>2013-10-06T08:53:47Z</time>
      </trkpt>
      <trkpt lat="47.2377" lon="-1.6176">
        <ele>20.6</ele>
        <time>2013-10-06T08:53:54Z</time>
      </trkpt>
      <trkpt lat="47.23775" lon="-1.61773">
        <ele>21.9</ele>
        <time>2013-10-06T08:54:00Z</time>
      </trkpt>
      <trkpt lat="47.23783" lon="-1.61781">
        <ele>22.5</ele>
        <time>2013-10-06T08:54:04Z</time>
      </trkpt>
      <trkpt lat="47.2379" lon="-1.61791">
        <ele>22.7</ele>
        <time>2013-10-06T08:54:08Z</time>
      </trkpt>
      <trkpt lat="47.23796" lon="-1.61805">
        <ele>22.9</ele>
        <time>2013-10-06T08:54:13Z</time>
      </trkpt>
      <trkpt lat="47.23804" lon="-1.61818">
        <ele>23.4</ele>
        <time>2013-10-06T08:54:17Z</time>
      </trkpt>
      <trkpt lat="47.23814" lon="-1.61829">
        <ele>23.3</ele>
        <time>2013-10-06T08:54:20Z</time>
      </trkpt>
      <trkpt lat="47.23821" lon="-1.61843">
        <ele>23.1</ele>
        <time>2013-10-06T08:54:24Z</time>
      </trkpt>
      <trkpt lat="47.23826" lon="-1.6186">
        <ele>22.6</ele>
        <time>2013-10-06T08:54:27Z</time>
      </trkpt>
      <trkpt lat="47.23831" lon="-1.61872">
        <ele>22.3</ele>
        <time>2013-10-06T08:54:31Z</time>
      </trkpt>
      <trkpt lat="47.2383" lon="-1.61888">
        <ele>21.8</ele>
        <time>2013-10-06T08:54:36Z</time>
      </trkpt>
      <trkpt lat="47.23832" lon="-1.61902">
        <ele>21.6</ele>
        <time>2013-10-06T08:54:48Z</time>
      </trkpt>
      <trkpt lat="47.23825" lon="-1.61911">
        <ele>22.7</ele>
        <time>2013-10-06T08:55:29Z</time>
      </trkpt>
      <trkpt lat="47.23831" lon="-1.61922">
        <ele>22.8</ele>
        <time>2013-10-06T08:55:39Z</time>
      </trkpt>
      <trkpt lat="47.23837" lon="-1.61934">
        <ele>22.2</ele>
        <time>2013-10-06T08:55:44Z</time>
      </trkpt>
      <trkpt lat="47.23845" lon="-1.61944">
        <ele>22</ele>
        <time>2013-10-06T08:55:48Z</time>
      </trkpt>
      <trkpt lat="47.23855" lon="-1.61951">
        <ele>22.1</ele>
        <time>2013-10-06T08:55:53Z</time>
      </trkpt>
      <trkpt lat="47.23864" lon="-1.61955">
        <ele>22.1</ele>
        <time>2013-10-06T08:55:56Z</time>
      </trkpt>
      <trkpt lat="47.23875" lon="-1.61958">
        <ele>21.9</ele>
        <time>2013-10-06T08:55:59Z</time>
      </trkpt>
      <trkpt lat="47.23886" lon="-1.61964">
        <ele>21.7</ele>
        <time>2013-10-06T08:56:02Z</time>
      </trkpt>
      <trkpt lat="47.23897" lon="-1.61969">
        <ele>21.7</ele>
        <time>2013-10-06T08:56:06Z</time>
      </trkpt>
      <trkpt lat="47.23908" lon="-1.61967">
        <ele>22.1</ele>
        <time>2013-10-06T08:56:10Z</time>
      </trkpt>
      <trkpt lat="47.23918" lon="-1.61967">
        <ele>22.5</ele>
        <time>2013-10-06T08:56:13Z</time>
      </trkpt>
      <trkpt lat="47.23928" lon="-1.61967">
        <ele>22.6</ele>
        <time>2013-10-06T08:56:16Z</time>
      </trkpt>
      <trkpt lat="47.23939" lon="-1.61968">
        <ele>22.8</ele>
        <time>2013-10-06T08:56:20Z</time>
      </trkpt>
      <trkpt lat="47.23949" lon="-1.61975">
        <ele>22.9</ele>
        <time>2013-10-06T08:56:23Z</time>
      </trkpt>
      <trkpt lat="47.23958" lon="-1.61984">
        <ele>22.8</ele>
        <time>2013-10-06T08:56:26Z</time>
      </trkpt>
      <trkpt lat="47.23967" lon="-1.61993">
        <ele>22.4</ele>
        <time>2013-10-06T08:56:30Z</time>
      </trkpt>
      <trkpt lat="47.23975" lon="-1.62001">
        <ele>21.6</ele>
        <time>2013-10-06T08:56:34Z</time>
      </trkpt>
      <trkpt lat="47.23983" lon="-1.6201">
        <ele>20.6</ele>
        <time>2013-10-06T08:56:38Z</time>
      </trkpt>
      <trkpt lat="47.2399" lon="-1.6202">
        <ele>19.8</ele>
        <time>2013-10-06T08:56:42Z</time>
      </trkpt>
      <trkpt lat="47.23996" lon="-1.62031">
        <ele>19.5</ele>
        <time>2013-10-06T08:56:45Z</time>
      </trkpt>
      <trkpt lat="47.24" lon="-1.62044">
        <ele>18.8</ele>
        <time>2013-10-06T08:56:49Z</time>
      </trkpt>
      <trkpt lat="47.24001" lon="-1.62061">
        <ele>18.3</ele>
        <time>2013-10-06T08:56:53Z</time>
      </trkpt>
      <trkpt lat="47.24003" lon="-1.62076">
        <ele>17.6</ele>
        <time>2013-10-06T08:56:56Z</time>
      </trkpt>
      <trkpt lat="47.24005" lon="-1.6209">
        <ele>17.2</ele>
        <time>2013-10-06T08:56:58Z</time>
      </trkpt>
      <trkpt lat="47.24008" lon="-1.62108">
        <ele>17.3</ele>
        <time>2013-10-06T08:57:00Z</time>
      </trkpt>
      <trkpt lat="47.24011" lon="-1.62123">
        <ele>17.4</ele>
        <time>2013-10-06T08:57:02Z</time>
      </trkpt>
      <trkpt lat="47.24012" lon="-1.62138">
        <ele>17.2</ele>
        <time>2013-10-06T08:57:04Z</time>
      </trkpt>
      <trkpt lat="47.24013" lon="-1.62152">
        <ele>17.1</ele>
        <time>2013-10-06T08:57:06Z</time>
      </trkpt>
      <trkpt lat="47.24013" lon="-1.62167">
        <ele>17.1</ele>
        <time>2013-10-06T08:57:08Z</time>
      </trkpt>
      <trkpt lat="47.24015" lon="-1.62186">
        <ele>17</ele>
        <time>2013-10-06T08:57:11Z</time>
      </trkpt>
      <trkpt lat="47.24016" lon="-1.62204">
        <ele>16.9</ele>
        <time>2013-10-06T08:57:14Z</time>
      </trkpt>
      <trkpt lat="47.24015" lon="-1.6222">
        <ele>17</ele>
        <time>2013-10-06T08:57:17Z</time>
      </trkpt>
      <trkpt lat="47.24013" lon="-1.62238">
        <ele>16.9</ele>
        <time>2013-10-06T08:57:21Z</time>
      </trkpt>
      <trkpt lat="47.24014" lon="-1.62252">
        <ele>16.9</ele>
        <time>2013-10-06T08:57:25Z</time>
      </trkpt>
      <trkpt lat="47.24016" lon="-1.62268">
        <ele>16.6</ele>
        <time>2013-10-06T08:57:28Z</time>
      </trkpt>
      <trkpt lat="47.24017" lon="-1.62283">
        <ele>16.5</ele>
        <time>2013-10-06T08:57:30Z</time>
      </trkpt>
      <trkpt lat="47.24017" lon="-1.62299">
        <ele>16.5</ele>
        <time>2013-10-06T08:57:32Z</time>
      </trkpt>
      <trkpt lat="47.24016" lon="-1.62318">
        <ele>16.6</ele>
        <time>2013-10-06T08:57:34Z</time>
      </trkpt>
      <trkpt lat="47.24013" lon="-1.62333">
        <ele>17.7</ele>
        <time>2013-10-06T08:57:36Z</time>
      </trkpt>
      <trkpt lat="47.24011" lon="-1.62352">
        <ele>17.9</ele>
        <time>2013-10-06T08:57:39Z</time>
      </trkpt>
      <trkpt lat="47.24012" lon="-1.62365">
        <ele>16.9</ele>
        <time>2013-10-06T08:57:41Z</time>
      </trkpt>
      <trkpt lat="47.24013" lon="-1.62381">
        <ele>16</ele>
        <time>2013-10-06T08:57:44Z</time>
      </trkpt>
      <trkpt lat="47.24016" lon="-1.624">
        <ele>16.5</ele>
        <time>2013-10-06T08:57:47Z</time>
      </trkpt>
      <trkpt lat="47.24018" lon="-1.62414">
        <ele>16.5</ele>
        <time>2013-10-06T08:57:49Z</time>
      </trkpt>
      <trkpt lat="47.24016" lon="-1.62428">
        <ele>16.4</ele>
        <time>2013-10-06T08:57:52Z</time>
      </trkpt>
      <trkpt lat="47.24016" lon="-1.62443">
        <ele>16.4</ele>
        <time>2013-10-06T08:57:55Z</time>
      </trkpt>
      <trkpt lat="47.24017" lon="-1.62459">
        <ele>16.1</ele>
        <time>2013-10-06T08:57:59Z</time>
      </trkpt>
      <trkpt lat="47.24023" lon="-1.6247">
        <ele>15.7</ele>
        <time>2013-10-06T08:58:03Z</time>
      </trkpt>
      <trkpt lat="47.24031" lon="-1.62481">
        <ele>15.4</ele>
        <time>2013-10-06T08:58:06Z</time>
      </trkpt>
      <trkpt lat="47.2404" lon="-1.62491">
        <ele>15.4</ele>
        <time>2013-10-06T08:58:09Z</time>
      </trkpt>
      <trkpt lat="47.2405" lon="-1.62505">
        <ele>15.3</ele>
        <time>2013-10-06T08:58:12Z</time>
      </trkpt>
      <trkpt lat="47.2406" lon="-1.62518">
        <ele>15.4</ele>
        <time>2013-10-06T08:58:15Z</time>
      </trkpt>
      <trkpt lat="47.24069" lon="-1.62531">
        <ele>15.5</ele>
        <time>2013-10-06T08:58:18Z</time>
      </trkpt>
      <trkpt lat="47.24078" lon="-1.62538">
        <ele>15.5</ele>
        <time>2013-10-06T08:58:20Z</time>
      </trkpt>
      <trkpt lat="47.24088" lon="-1.62541">
        <ele>15.6</ele>
        <time>2013-10-06T08:58:23Z</time>
      </trkpt>
      <trkpt lat="47.24099" lon="-1.62548">
        <ele>15.9</ele>
        <time>2013-10-06T08:58:26Z</time>
      </trkpt>
      <trkpt lat="47.24104" lon="-1.62562">
        <ele>15.8</ele>
        <time>2013-10-06T08:58:29Z</time>
      </trkpt>
      <trkpt lat="47.24101" lon="-1.62576">
        <ele>15.5</ele>
        <time>2013-10-06T08:58:32Z</time>
      </trkpt>
      <trkpt lat="47.24096" lon="-1.62591">
        <ele>15.5</ele>
        <time>2013-10-06T08:58:34Z</time>
      </trkpt>
      <trkpt lat="47.24092" lon="-1.62603">
        <ele>15.5</ele>
        <time>2013-10-06T08:58:36Z</time>
      </trkpt>
      <trkpt lat="47.24089" lon="-1.62615">
        <ele>15</ele>
        <time>2013-10-06T08:58:38Z</time>
      </trkpt>
      <trkpt lat="47.24084" lon="-1.62632">
        <ele>14.8</ele>
        <time>2013-10-06T08:58:41Z</time>
      </trkpt>
      <trkpt lat="47.24076" lon="-1.62644">
        <ele>14.5</ele>
        <time>2013-10-06T08:58:44Z</time>
      </trkpt>
      <trkpt lat="47.2407" lon="-1.62655">
        <ele>14.2</ele>
        <time>2013-10-06T08:58:47Z</time>
      </trkpt>
      <trkpt lat="47.24065" lon="-1.62668">
        <ele>13.8</ele>
        <time>2013-10-06T08:58:52Z</time>
      </trkpt>
      <trkpt lat="47.24063" lon="-1.62682">
        <ele>13.5</ele>
        <time>2013-10-06T08:58:57Z</time>
      </trkpt>
      <trkpt lat="47.24064" lon="-1.62696">
        <ele>13</ele>
        <time>2013-10-06T08:59:03Z</time>
      </trkpt>
      <trkpt lat="47.24068" lon="-1.62709">
        <ele>12</ele>
        <time>2013-10-06T08:59:11Z</time>
      </trkpt>
      <trkpt lat="47.24079" lon="-1.62711">
        <ele>12.3</ele>
        <time>2013-10-06T08:59:15Z</time>
      </trkpt>
      <trkpt lat="47.24087" lon="-1.62717">
        <ele>13.2</ele>
        <time>2013-10-06T08:59:20Z</time>
      </trkpt>
      <trkpt lat="47.24096" lon="-1.62724">
        <ele>14</ele>
        <time>2013-10-06T08:59:26Z</time>
      </trkpt>
      <trkpt lat="47.24093" lon="-1.62737">
        <ele>16.2</ele>
        <time>2013-10-06T09:00:58Z</time>
      </trkpt>
      <trkpt lat="47.241" lon="-1.62747">
        <ele>20</ele>
        <time>2013-10-06T09:03:06Z</time>
      </trkpt>
      <trkpt lat="47.24102" lon="-1.62761">
        <ele>20.1</ele>
        <time>2013-10-06T09:03:12Z</time>
      </trkpt>
      <trkpt lat="47.24107" lon="-1.62774">
        <ele>19.8</ele>
        <time>2013-10-06T09:03:17Z</time>
      </trkpt>
      <trkpt lat="47.24116" lon="-1.62784">
        <ele>19.3</ele>
        <time>2013-10-06T09:03:21Z</time>
      </trkpt>
      <trkpt lat="47.24123" lon="-1.62794">
        <ele>18.9</ele>
        <time>2013-10-06T09:03:26Z</time>
      </trkpt>
      <trkpt lat="47.24127" lon="-1.6281">
        <ele>18.8</ele>
        <time>2013-10-06T09:03:30Z</time>
      </trkpt>
      <trkpt lat="47.24131" lon="-1.62826">
        <ele>18.8</ele>
        <time>2013-10-06T09:03:33Z</time>
      </trkpt>
      <trkpt lat="47.24139" lon="-1.62839">
        <ele>19</ele>
        <time>2013-10-06T09:03:36Z</time>
      </trkpt>
      <trkpt lat="47.24147" lon="-1.62848">
        <ele>19.1</ele>
        <time>2013-10-06T09:03:39Z</time>
      </trkpt>
      <trkpt lat="47.24154" lon="-1.62859">
        <ele>18.9</ele>
        <time>2013-10-06T09:03:43Z</time>
      </trkpt>
      <trkpt lat="47.2416" lon="-1.62871">
        <ele>18.8</ele>
        <time>2013-10-06T09:03:46Z</time>
      </trkpt>
      <trkpt lat="47.24164" lon="-1.62884">
        <ele>18.8</ele>
        <time>2013-10-06T09:03:49Z</time>
      </trkpt>
      <trkpt lat="47.24169" lon="-1.629">
        <ele>18.7</ele>
        <time>2013-10-06T09:03:52Z</time>
      </trkpt>
      <trkpt lat="47.24175" lon="-1.62915">
        <ele>18.7</ele>
        <time>2013-10-06T09:03:55Z</time>
      </trkpt>
      <trkpt lat="47.24181" lon="-1.62927">
        <ele>18.5</ele>
        <time>2013-10-06T09:03:58Z</time>
      </trkpt>
      <trkpt lat="47.24187" lon="-1.62943">
        <ele>18</ele>
        <time>2013-10-06T09:04:01Z</time>
      </trkpt>
      <trkpt lat="47.2419" lon="-1.6296">
        <ele>18</ele>
        <time>2013-10-06T09:04:04Z</time>
      </trkpt>
      <trkpt lat="47.24193" lon="-1.62975">
        <ele>17.9</ele>
        <time>2013-10-06T09:04:07Z</time>
      </trkpt>
      <trkpt lat="47.24197" lon="-1.62988">
        <ele>17.8</ele>
        <time>2013-10-06T09:04:10Z</time>
      </trkpt>
      <trkpt lat="47.24199" lon="-1.63002">
        <ele>17.7</ele>
        <time>2013-10-06T09:04:14Z</time>
      </trkpt>
      <trkpt lat="47.242" lon="-1.63016">
        <ele>17.6</ele>
        <time>2013-10-06T09:04:17Z</time>
      </trkpt>
      <trkpt lat="47.24201" lon="-1.63032">
        <ele>17.3</ele>
        <time>2013-10-06T09:04:20Z</time>
      </trkpt>
      <trkpt lat="47.24202" lon="-1.63049">
        <ele>17.3</ele>
        <time>2013-10-06T09:04:23Z</time>
      </trkpt>
      <trkpt lat="47.24204" lon="-1.63068">
        <ele>17.3</ele>
        <time>2013-10-06T09:04:26Z</time>
      </trkpt>
      <trkpt lat="47.24207" lon="-1.63083">
        <ele>17.4</ele>
        <time>2013-10-06T09:04:28Z</time>
      </trkpt>
      <trkpt lat="47.2421" lon="-1.63101">
        <ele>16.9</ele>
        <time>2013-10-06T09:04:30Z</time>
      </trkpt>
      <trkpt lat="47.24214" lon="-1.63116">
        <ele>16.9</ele>
        <time>2013-10-06T09:04:32Z</time>
      </trkpt>
      <trkpt lat="47.24219" lon="-1.63131">
        <ele>17</ele>
        <time>2013-10-06T09:04:34Z</time>
      </trkpt>
      <trkpt lat="47.24226" lon="-1.63143">
        <ele>16.3</ele>
        <time>2013-10-06T09:04:36Z</time>
      </trkpt>
      <trkpt lat="47.24234" lon="-1.63156">
        <ele>16.6</ele>
        <time>2013-10-06T09:04:38Z</time>
      </trkpt>
      <trkpt lat="47.24241" lon="-1.63169">
        <ele>17.1</ele>
        <time>2013-10-06T09:04:40Z</time>
      </trkpt>
      <trkpt lat="47.24247" lon="-1.63182">
        <ele>18.4</ele>
        <time>2013-10-06T09:04:42Z</time>
      </trkpt>
      <trkpt lat="47.24253" lon="-1.63193">
        <ele>19.1</ele>
        <time>2013-10-06T09:04:44Z</time>
      </trkpt>
      <trkpt lat="47.24264" lon="-1.63199">
        <ele>18.8</ele>
        <time>2013-10-06T09:04:47Z</time>
      </trkpt>
      <trkpt lat="47.24273" lon="-1.63208">
        <ele>19</ele>
        <time>2013-10-06T09:04:50Z</time>
      </trkpt>
      <trkpt lat="47.24282" lon="-1.63219">
        <ele>18.9</ele>
        <time>2013-10-06T09:04:53Z</time>
      </trkpt>
      <trkpt lat="47.24292" lon="-1.6323">
        <ele>18.8</ele>
        <time>2013-10-06T09:04:56Z</time>
      </trkpt>
      <trkpt lat="47.243" lon="-1.63242">
        <ele>18.8</ele>
        <time>2013-10-06T09:04:59Z</time>
      </trkpt>
      <trkpt lat="47.24309" lon="-1.63255">
        <ele>18.7</ele>
        <time>2013-10-06T09:05:02Z</time>
      </trkpt>
      <trkpt lat="47.24318" lon="-1.63266">
        <ele>18.7</ele>
        <time>2013-10-06T09:05:05Z</time>
      </trkpt>
      <trkpt lat="47.24329" lon="-1.63277">
        <ele>18.8</ele>
        <time>2013-10-06T09:05:10Z</time>
      </trkpt>
      <trkpt lat="47.24338" lon="-1.63278">
        <ele>19.1</ele>
        <time>2013-10-06T09:05:14Z</time>
      </trkpt>
      <trkpt lat="47.24349" lon="-1.63277">
        <ele>19.1</ele>
        <time>2013-10-06T09:05:22Z</time>
      </trkpt>
      <trkpt lat="47.24359" lon="-1.63282">
        <ele>18.7</ele>
        <time>2013-10-06T09:05:27Z</time>
      </trkpt>
      <trkpt lat="47.24369" lon="-1.63282">
        <ele>18.8</ele>
        <time>2013-10-06T09:05:31Z</time>
      </trkpt>
      <trkpt lat="47.24377" lon="-1.63277">
        <ele>19.1</ele>
        <time>2013-10-06T09:05:37Z</time>
      </trkpt>
      <trkpt lat="47.24386" lon="-1.6327">
        <ele>20.1</ele>
        <time>2013-10-06T09:05:45Z</time>
      </trkpt>
      <trkpt lat="47.24395" lon="-1.63265">
        <ele>21.1</ele>
        <time>2013-10-06T09:05:52Z</time>
      </trkpt>
      <trkpt lat="47.24405" lon="-1.63268">
        <ele>22.2</ele>
        <time>2013-10-06T09:05:56Z</time>
      </trkpt>
      <trkpt lat="47.24415" lon="-1.63269">
        <ele>23.9</ele>
        <time>2013-10-06T09:06:01Z</time>
      </trkpt>
      <trkpt lat="47.24426" lon="-1.63265">
        <ele>24.9</ele>
        <time>2013-10-06T09:06:04Z</time>
      </trkpt>
      <trkpt lat="47.24436" lon="-1.63267">
        <ele>26.3</ele>
        <time>2013-10-06T09:06:08Z</time>
      </trkpt>
      <trkpt lat="47.24446" lon="-1.63267">
        <ele>27.7</ele>
        <time>2013-10-06T09:06:13Z</time>
      </trkpt>
      <trkpt lat="47.24456" lon="-1.63263">
        <ele>29.3</ele>
        <time>2013-10-06T09:06:18Z</time>
      </trkpt>
      <trkpt lat="47.24465" lon="-1.63259">
        <ele>30.9</ele>
        <time>2013-10-06T09:06:22Z</time>
      </trkpt>
      <trkpt lat="47.24475" lon="-1.63256">
        <ele>32.6</ele>
        <time>2013-10-06T09:06:27Z</time>
      </trkpt>
      <trkpt lat="47.24483" lon="-1.63249">
        <ele>34.6</ele>
        <time>2013-10-06T09:06:33Z</time>
      </trkpt>
      <trkpt lat="47.2449" lon="-1.63239">
        <ele>36.3</ele>
        <time>2013-10-06T09:06:39Z</time>
      </trkpt>
      <trkpt lat="47.24498" lon="-1.63229">
        <ele>37.9</ele>
        <time>2013-10-06T09:06:46Z</time>
      </trkpt>
      <trkpt lat="47.24505" lon="-1.6322">
        <ele>39.9</ele>
        <time>2013-10-06T09:06:53Z</time>
      </trkpt>
      <trkpt lat="47.24514" lon="-1.63221">
        <ele>41.8</ele>
        <time>2013-10-06T09:07:00Z</time>
      </trkpt>
      <trkpt lat="47.24521" lon="-1.63233">
        <ele>42.5</ele>
        <time>2013-10-06T09:07:05Z</time>
      </trkpt>
      <trkpt lat="47.24528" lon="-1.63245">
        <ele>43.7</ele>
        <time>2013-10-06T09:07:10Z</time>
      </trkpt>
      <trkpt lat="47.24538" lon="-1.63248">
        <ele>45.4</ele>
        <time>2013-10-06T09:07:16Z</time>
      </trkpt>
      <trkpt lat="47.24547" lon="-1.63244">
        <ele>46.9</ele>
        <time>2013-10-06T09:07:22Z</time>
      </trkpt>
      <trkpt lat="47.24555" lon="-1.63234">
        <ele>47.7</ele>
        <time>2013-10-06T09:07:28Z</time>
      </trkpt>
      <trkpt lat="47.24563" lon="-1.63226">
        <ele>48.9</ele>
        <time>2013-10-06T09:07:34Z</time>
      </trkpt>
      <trkpt lat="47.24572" lon="-1.63222">
        <ele>50.6</ele>
        <time>2013-10-06T09:07:40Z</time>
      </trkpt>
      <trkpt lat="47.24581" lon="-1.63216">
        <ele>51.5</ele>
        <time>2013-10-06T09:07:44Z</time>
      </trkpt>
      <trkpt lat="47.2459" lon="-1.6321">
        <ele>52.5</ele>
        <time>2013-10-06T09:07:49Z</time>
      </trkpt>
      <trkpt lat="47.24598" lon="-1.63206">
        <ele>53.2</ele>
        <time>2013-10-06T09:07:56Z</time>
      </trkpt>
      <trkpt lat="47.24608" lon="-1.63203">
        <ele>53.6</ele>
        <time>2013-10-06T09:08:02Z</time>
      </trkpt>
      <trkpt lat="47.24615" lon="-1.63193">
        <ele>53.7</ele>
        <time>2013-10-06T09:08:07Z</time>
      </trkpt>
      <trkpt lat="47.24625" lon="-1.63185">
        <ele>54</ele>
        <time>2013-10-06T09:08:12Z</time>
      </trkpt>
      <trkpt lat="47.24634" lon="-1.63182">
        <ele>54.4</ele>
        <time>2013-10-06T09:08:17Z</time>
      </trkpt>
      <trkpt lat="47.24643" lon="-1.63176">
        <ele>54.6</ele>
        <time>2013-10-06T09:08:23Z</time>
      </trkpt>
      <trkpt lat="47.24653" lon="-1.63169">
        <ele>54.9</ele>
        <time>2013-10-06T09:08:28Z</time>
      </trkpt>
      <trkpt lat="47.24663" lon="-1.63167">
        <ele>55.1</ele>
        <time>2013-10-06T09:08:32Z</time>
      </trkpt>
      <trkpt lat="47.24672" lon="-1.63164">
        <ele>55.2</ele>
        <time>2013-10-06T09:08:36Z</time>
      </trkpt>
      <trkpt lat="47.24679" lon="-1.63156">
        <ele>54.8</ele>
        <time>2013-10-06T09:08:40Z</time>
      </trkpt>
      <trkpt lat="47.2469" lon="-1.6315">
        <ele>54.7</ele>
        <time>2013-10-06T09:08:45Z</time>
      </trkpt>
      <trkpt lat="47.24701" lon="-1.63144">
        <ele>54.6</ele>
        <time>2013-10-06T09:08:49Z</time>
      </trkpt>
      <trkpt lat="47.2471" lon="-1.63139">
        <ele>54.7</ele>
        <time>2013-10-06T09:08:53Z</time>
      </trkpt>
      <trkpt lat="47.24719" lon="-1.63134">
        <ele>54.8</ele>
        <time>2013-10-06T09:08:56Z</time>
      </trkpt>
      <trkpt lat="47.24728" lon="-1.63132">
        <ele>55.2</ele>
        <time>2013-10-06T09:09:00Z</time>
      </trkpt>
      <trkpt lat="47.24738" lon="-1.63132">
        <ele>55.2</ele>
        <time>2013-10-06T09:09:05Z</time>
      </trkpt>
      <trkpt lat="47.24746" lon="-1.63126">
        <ele>54.9</ele>
        <time>2013-10-06T09:09:14Z</time>
      </trkpt>
      <trkpt lat="47.24753" lon="-1.63116">
        <ele>55</ele>
        <time>2013-10-06T09:09:22Z</time>
      </trkpt>
      <trkpt lat="47.24761" lon="-1.63109">
        <ele>55.8</ele>
        <time>2013-10-06T09:09:39Z</time>
      </trkpt>
      <trkpt lat="47.2476" lon="-1.63122">
        <ele>56</ele>
        <time>2013-10-06T09:11:27Z</time>
      </trkpt>
      <trkpt lat="47.24765" lon="-1.63134">
        <ele>55.9</ele>
        <time>2013-10-06T09:11:31Z</time>
      </trkpt>
      <trkpt lat="47.24774" lon="-1.63141">
        <ele>56</ele>
        <time>2013-10-06T09:11:35Z</time>
      </trkpt>
      <trkpt lat="47.24786" lon="-1.63139">
        <ele>56</ele>
        <time>2013-10-06T09:11:39Z</time>
      </trkpt>
      <trkpt lat="47.24795" lon="-1.63135">
        <ele>56.3</ele>
        <time>2013-10-06T09:11:42Z</time>
      </trkpt>
      <trkpt lat="47.24804" lon="-1.63128">
        <ele>56.3</ele>
        <time>2013-10-06T09:11:45Z</time>
      </trkpt>
      <trkpt lat="47.24813" lon="-1.6312">
        <ele>56.2</ele>
        <time>2013-10-06T09:11:48Z</time>
      </trkpt>
      <trkpt lat="47.24823" lon="-1.6311">
        <ele>56.2</ele>
        <time>2013-10-06T09:11:51Z</time>
      </trkpt>
      <trkpt lat="47.24833" lon="-1.63099">
        <ele>55.9</ele>
        <time>2013-10-06T09:11:54Z</time>
      </trkpt>
      <trkpt lat="47.2484" lon="-1.63092">
        <ele>55.7</ele>
        <time>2013-10-06T09:11:56Z</time>
      </trkpt>
      <trkpt lat="47.24848" lon="-1.63084">
        <ele>55.5</ele>
        <time>2013-10-06T09:11:58Z</time>
      </trkpt>
      <trkpt lat="47.24859" lon="-1.63076">
        <ele>55.3</ele>
        <time>2013-10-06T09:12:01Z</time>
      </trkpt>
      <trkpt lat="47.24871" lon="-1.63068">
        <ele>54.8</ele>
        <time>2013-10-06T09:12:04Z</time>
      </trkpt>
      <trkpt lat="47.24881" lon="-1.63062">
        <ele>54.5</ele>
        <time>2013-10-06T09:12:06Z</time>
      </trkpt>
      <trkpt lat="47.24891" lon="-1.63054">
        <ele>53.6</ele>
        <time>2013-10-06T09:12:08Z</time>
      </trkpt>
      <trkpt lat="47.249" lon="-1.63047">
        <ele>53.2</ele>
        <time>2013-10-06T09:12:10Z</time>
      </trkpt>
      <trkpt lat="47.2491" lon="-1.6304">
        <ele>54.4</ele>
        <time>2013-10-06T09:12:12Z</time>
      </trkpt>
      <trkpt lat="47.2492" lon="-1.63033">
        <ele>55.2</ele>
        <time>2013-10-06T09:12:14Z</time>
      </trkpt>
      <trkpt lat="47.24927" lon="-1.63026">
        <ele>54.9</ele>
        <time>2013-10-06T09:12:16Z</time>
      </trkpt>
      <trkpt lat="47.24935" lon="-1.63018">
        <ele>55.4</ele>
        <time>2013-10-06T09:12:18Z</time>
      </trkpt>
      <trkpt lat="47.24943" lon="-1.6301">
        <ele>55.6</ele>
        <time>2013-10-06T09:12:20Z</time>
      </trkpt>
      <trkpt lat="47.24954" lon="-1.63002">
        <ele>55.8</ele>
        <time>2013-10-06T09:12:23Z</time>
      </trkpt>
      <trkpt lat="47.24964" lon="-1.62993">
        <ele>55.9</ele>
        <time>2013-10-06T09:12:25Z</time>
      </trkpt>
      <trkpt lat="47.24975" lon="-1.62982">
        <ele>54.7</ele>
        <time>2013-10-06T09:12:27Z</time>
      </trkpt>
      <trkpt lat="47.24987" lon="-1.62972">
        <ele>52.7</ele>
        <time>2013-10-06T09:12:29Z</time>
      </trkpt>
      <trkpt lat="47.24995" lon="-1.62963">
        <ele>51.4</ele>
        <time>2013-10-06T09:12:31Z</time>
      </trkpt>
      <trkpt lat="47.25004" lon="-1.62955">
        <ele>49.6</ele>
        <time>2013-10-06T09:12:33Z</time>
      </trkpt>
      <trkpt lat="47.25012" lon="-1.62948">
        <ele>48.6</ele>
        <time>2013-10-06T09:12:35Z</time>
      </trkpt>
      <trkpt lat="47.25021" lon="-1.62939">
        <ele>49.2</ele>
        <time>2013-10-06T09:12:37Z</time>
      </trkpt>
      <trkpt lat="47.2503" lon="-1.62933">
        <ele>50.1</ele>
        <time>2013-10-06T09:12:39Z</time>
      </trkpt>
      <trkpt lat="47.25041" lon="-1.62928">
        <ele>50.3</ele>
        <time>2013-10-06T09:12:41Z</time>
      </trkpt>
      <trkpt lat="47.25051" lon="-1.62921">
        <ele>49.9</ele>
        <time>2013-10-06T09:12:43Z</time>
      </trkpt>
      <trkpt lat="47.2506" lon="-1.62915">
        <ele>48.4</ele>
        <time>2013-10-06T09:12:45Z</time>
      </trkpt>
      <trkpt lat="47.25069" lon="-1.62907">
        <ele>47.2</ele>
        <time>2013-10-06T09:12:47Z</time>
      </trkpt>
      <trkpt lat="47.25078" lon="-1.62899">
        <ele>47.2</ele>
        <time>2013-10-06T09:12:49Z</time>
      </trkpt>
      <trkpt lat="47.25089" lon="-1.62891">
        <ele>46.9</ele>
        <time>2013-10-06T09:12:52Z</time>
      </trkpt>
      <trkpt lat="47.251" lon="-1.62885">
        <ele>46.7</ele>
        <time>2013-10-06T09:12:55Z</time>
      </trkpt>
      <trkpt lat="47.25109" lon="-1.62879">
        <ele>46.7</ele>
        <time>2013-10-06T09:12:58Z</time>
      </trkpt>
      <trkpt lat="47.25117" lon="-1.62874">
        <ele>46.2</ele>
        <time>2013-10-06T09:13:01Z</time>
      </trkpt>
      <trkpt lat="47.25129" lon="-1.62866">
        <ele>46</ele>
        <time>2013-10-06T09:13:04Z</time>
      </trkpt>
      <trkpt lat="47.2514" lon="-1.6286">
        <ele>45.9</ele>
        <time>2013-10-06T09:13:07Z</time>
      </trkpt>
      <trkpt lat="47.25149" lon="-1.62857">
        <ele>46</ele>
        <time>2013-10-06T09:13:10Z</time>
      </trkpt>
      <trkpt lat="47.25159" lon="-1.62853">
        <ele>46.6</ele>
        <time>2013-10-06T09:13:13Z</time>
      </trkpt>
      <trkpt lat="47.2517" lon="-1.62848">
        <ele>47.3</ele>
        <time>2013-10-06T09:13:16Z</time>
      </trkpt>
      <trkpt lat="47.2518" lon="-1.62845">
        <ele>47.7</ele>
        <time>2013-10-06T09:13:19Z</time>
      </trkpt>
      <trkpt lat="47.2519" lon="-1.62843">
        <ele>47.8</ele>
        <time>2013-10-06T09:13:22Z</time>
      </trkpt>
      <trkpt lat="47.25201" lon="-1.62838">
        <ele>47.8</ele>
        <time>2013-10-06T09:13:24Z</time>
      </trkpt>
      <trkpt lat="47.25212" lon="-1.62831">
        <ele>47.7</ele>
        <time>2013-10-06T09:13:26Z</time>
      </trkpt>
      <trkpt lat="47.25222" lon="-1.62823">
        <ele>47.5</ele>
        <time>2013-10-06T09:13:28Z</time>
      </trkpt>
      <trkpt lat="47.2523" lon="-1.62815">
        <ele>47.3</ele>
        <time>2013-10-06T09:13:30Z</time>
      </trkpt>
      <trkpt lat="47.25239" lon="-1.62808">
        <ele>47.3</ele>
        <time>2013-10-06T09:13:32Z</time>
      </trkpt>
      <trkpt lat="47.25248" lon="-1.62802">
        <ele>47.5</ele>
        <time>2013-10-06T09:13:34Z</time>
      </trkpt>
      <trkpt lat="47.2526" lon="-1.62793">
        <ele>47.8</ele>
        <time>2013-10-06T09:13:36Z</time>
      </trkpt>
      <trkpt lat="47.25271" lon="-1.62785">
        <ele>48</ele>
        <time>2013-10-06T09:13:38Z</time>
      </trkpt>
      <trkpt lat="47.2528" lon="-1.62778">
        <ele>48.3</ele>
        <time>2013-10-06T09:13:40Z</time>
      </trkpt>
      <trkpt lat="47.25291" lon="-1.62771">
        <ele>48.7</ele>
        <time>2013-10-06T09:13:43Z</time>
      </trkpt>
      <trkpt lat="47.25301" lon="-1.62768">
        <ele>48.9</ele>
        <time>2013-10-06T09:13:46Z</time>
      </trkpt>
      <trkpt lat="47.25312" lon="-1.62762">
        <ele>49.1</ele>
        <time>2013-10-06T09:13:49Z</time>
      </trkpt>
      <trkpt lat="47.25322" lon="-1.62756">
        <ele>49.5</ele>
        <time>2013-10-06T09:13:52Z</time>
      </trkpt>
      <trkpt lat="47.25333" lon="-1.62747">
        <ele>49.9</ele>
        <time>2013-10-06T09:13:55Z</time>
      </trkpt>
      <trkpt lat="47.25341" lon="-1.62739">
        <ele>50.1</ele>
        <time>2013-10-06T09:13:57Z</time>
      </trkpt>
      <trkpt lat="47.25348" lon="-1.6273">
        <ele>50.5</ele>
        <time>2013-10-06T09:14:00Z</time>
      </trkpt>
      <trkpt lat="47.25358" lon="-1.62728">
        <ele>50.5</ele>
        <time>2013-10-06T09:14:31Z</time>
      </trkpt>
      <trkpt lat="47.25368" lon="-1.62719">
        <ele>50.5</ele>
        <time>2013-10-06T09:14:35Z</time>
      </trkpt>
      <trkpt lat="47.25379" lon="-1.6272">
        <ele>50.9</ele>
        <time>2013-10-06T09:14:41Z</time>
      </trkpt>
      <trkpt lat="47.25389" lon="-1.62727">
        <ele>51</ele>
        <time>2013-10-06T09:14:44Z</time>
      </trkpt>
      <trkpt lat="47.25398" lon="-1.6274">
        <ele>51.8</ele>
        <time>2013-10-06T09:14:47Z</time>
      </trkpt>
      <trkpt lat="47.25404" lon="-1.62751">
        <ele>53.9</ele>
        <time>2013-10-06T09:14:49Z</time>
      </trkpt>
      <trkpt lat="47.2541" lon="-1.62761">
        <ele>57.1</ele>
        <time>2013-10-06T09:14:51Z</time>
      </trkpt>
      <trkpt lat="47.25417" lon="-1.62775">
        <ele>63.2</ele>
        <time>2013-10-06T09:14:54Z</time>
      </trkpt>
      <trkpt lat="47.25423" lon="-1.62788">
        <ele>63.5</ele>
        <time>2013-10-06T09:14:57Z</time>
      </trkpt>
      <trkpt lat="47.25429" lon="-1.62802">
        <ele>63.7</ele>
        <time>2013-10-06T09:15:00Z</time>
      </trkpt>
      <trkpt lat="47.25435" lon="-1.62817">
        <ele>64.6</ele>
        <time>2013-10-06T09:15:03Z</time>
      </trkpt>
      <trkpt lat="47.25438" lon="-1.62829">
        <ele>65.2</ele>
        <time>2013-10-06T09:15:05Z</time>
      </trkpt>
      <trkpt lat="47.25443" lon="-1.62848">
        <ele>64.4</ele>
        <time>2013-10-06T09:15:08Z</time>
      </trkpt>
      <trkpt lat="47.25447" lon="-1.62866">
        <ele>64.7</ele>
        <time>2013-10-06T09:15:11Z</time>
      </trkpt>
      <trkpt lat="47.25453" lon="-1.62879">
        <ele>65.1</ele>
        <time>2013-10-06T09:15:13Z</time>
      </trkpt>
      <trkpt lat="47.2546" lon="-1.62889">
        <ele>64.6</ele>
        <time>2013-10-06T09:15:15Z</time>
      </trkpt>
      <trkpt lat="47.25467" lon="-1.62897">
        <ele>64</ele>
        <time>2013-10-06T09:15:17Z</time>
      </trkpt>
      <trkpt lat="47.25477" lon="-1.6291">
        <ele>64.1</ele>
        <time>2013-10-06T09:15:20Z</time>
      </trkpt>
      <trkpt lat="47.25479" lon="-1.62927">
        <ele>64</ele>
        <time>2013-10-06T09:15:22Z</time>
      </trkpt>
      <trkpt lat="47.2548" lon="-1.62943">
        <ele>64.1</ele>
        <time>2013-10-06T09:15:24Z</time>
      </trkpt>
      <trkpt lat="47.25483" lon="-1.62957">
        <ele>63.6</ele>
        <time>2013-10-06T09:15:26Z</time>
      </trkpt>
      <trkpt lat="47.25488" lon="-1.62971">
        <ele>62.7</ele>
        <time>2013-10-06T09:15:28Z</time>
      </trkpt>
      <trkpt lat="47.25493" lon="-1.62984">
        <ele>62</ele>
        <time>2013-10-06T09:15:30Z</time>
      </trkpt>
      <trkpt lat="47.25498" lon="-1.62998">
        <ele>61</ele>
        <time>2013-10-06T09:15:32Z</time>
      </trkpt>
      <trkpt lat="47.25503" lon="-1.63011">
        <ele>61</ele>
        <time>2013-10-06T09:15:34Z</time>
      </trkpt>
      <trkpt lat="47.25509" lon="-1.63025">
        <ele>61</ele>
        <time>2013-10-06T09:15:36Z</time>
      </trkpt>
      <trkpt lat="47.25513" lon="-1.6304">
        <ele>60.2</ele>
        <time>2013-10-06T09:15:38Z</time>
      </trkpt>
      <trkpt lat="47.25518" lon="-1.63055">
        <ele>59</ele>
        <time>2013-10-06T09:15:40Z</time>
      </trkpt>
      <trkpt lat="47.25521" lon="-1.6307">
        <ele>57.5</ele>
        <time>2013-10-06T09:15:42Z</time>
      </trkpt>
      <trkpt lat="47.25524" lon="-1.63085">
        <ele>56.1</ele>
        <time>2013-10-06T09:15:44Z</time>
      </trkpt>
      <trkpt lat="47.25528" lon="-1.63099">
        <ele>55.6</ele>
        <time>2013-10-06T09:15:46Z</time>
      </trkpt>
      <trkpt lat="47.25531" lon="-1.63112">
        <ele>55.4</ele>
        <time>2013-10-06T09:15:48Z</time>
      </trkpt>
      <trkpt lat="47.25535" lon="-1.63127">
        <ele>55</ele>
        <time>2013-10-06T09:15:50Z</time>
      </trkpt>
      <trkpt lat="47.25539" lon="-1.63142">
        <ele>55.3</ele>
        <time>2013-10-06T09:15:52Z</time>
      </trkpt>
      <trkpt lat="47.25543" lon="-1.63156">
        <ele>55.8</ele>
        <time>2013-10-06T09:15:54Z</time>
      </trkpt>
      <trkpt lat="47.25546" lon="-1.6317">
        <ele>55.7</ele>
        <time>2013-10-06T09:15:56Z</time>
      </trkpt>
      <trkpt lat="47.25549" lon="-1.63185">
        <ele>55.2</ele>
        <time>2013-10-06T09:15:58Z</time>
      </trkpt>
      <trkpt lat="47.25553" lon="-1.632">
        <ele>54</ele>
        <time>2013-10-06T09:16:00Z</time>
      </trkpt>
      <trkpt lat="47.25556" lon="-1.63215">
        <ele>53.4</ele>
        <time>2013-10-06T09:16:02Z</time>
      </trkpt>
      <trkpt lat="47.25559" lon="-1.63229">
        <ele>54</ele>
        <time>2013-10-06T09:16:04Z</time>
      </trkpt>
      <trkpt lat="47.25563" lon="-1.63244">
        <ele>55.4</ele>
        <time>2013-10-06T09:16:06Z</time>
      </trkpt>
      <trkpt lat="47.25568" lon="-1.6326">
        <ele>56.4</ele>
        <time>2013-10-06T09:16:08Z</time>
      </trkpt>
      <trkpt lat="47.25572" lon="-1.63276">
        <ele>57.4</ele>
        <time>2013-10-06T09:16:10Z</time>
      </trkpt>
      <trkpt lat="47.25575" lon="-1.63292">
        <ele>57.9</ele>
        <time>2013-10-06T09:16:12Z</time>
      </trkpt>
      <trkpt lat="47.25577" lon="-1.63307">
        <ele>58.2</ele>
        <time>2013-10-06T09:16:14Z</time>
      </trkpt>
      <trkpt lat="47.25579" lon="-1.63321">
        <ele>59.6</ele>
        <time>2013-10-06T09:16:16Z</time>
      </trkpt>
      <trkpt lat="47.25582" lon="-1.63335">
        <ele>60.8</ele>
        <time>2013-10-06T09:16:18Z</time>
      </trkpt>
      <trkpt lat="47.25586" lon="-1.63349">
        <ele>61.6</ele>
        <time>2013-10-06T09:16:20Z</time>
      </trkpt>
      <trkpt lat="47.25588" lon="-1.63362">
        <ele>63.1</ele>
        <time>2013-10-06T09:16:22Z</time>
      </trkpt>
      <trkpt lat="47.25591" lon="-1.63376">
        <ele>63.2</ele>
        <time>2013-10-06T09:16:24Z</time>
      </trkpt>
      <trkpt lat="47.25594" lon="-1.6339">
        <ele>62.1</ele>
        <time>2013-10-06T09:16:26Z</time>
      </trkpt>
      <trkpt lat="47.25596" lon="-1.63404">
        <ele>60.1</ele>
        <time>2013-10-06T09:16:28Z</time>
      </trkpt>
      <trkpt lat="47.25598" lon="-1.63418">
        <ele>58</ele>
        <time>2013-10-06T09:16:30Z</time>
      </trkpt>
      <trkpt lat="47.256" lon="-1.63431">
        <ele>58.8</ele>
        <time>2013-10-06T09:16:32Z</time>
      </trkpt>
      <trkpt lat="47.25602" lon="-1.63445">
        <ele>59.8</ele>
        <time>2013-10-06T09:16:34Z</time>
      </trkpt>
      <trkpt lat="47.25604" lon="-1.63458">
        <ele>59.9</ele>
        <time>2013-10-06T09:16:36Z</time>
      </trkpt>
      <trkpt lat="47.25606" lon="-1.63471">
        <ele>58.5</ele>
        <time>2013-10-06T09:16:38Z</time>
      </trkpt>
      <trkpt lat="47.25609" lon="-1.6349">
        <ele>57.4</ele>
        <time>2013-10-06T09:16:41Z</time>
      </trkpt>
      <trkpt lat="47.25612" lon="-1.63503">
        <ele>58.3</ele>
        <time>2013-10-06T09:16:43Z</time>
      </trkpt>
      <trkpt lat="47.25615" lon="-1.63516">
        <ele>58.6</ele>
        <time>2013-10-06T09:16:45Z</time>
      </trkpt>
      <trkpt lat="47.25618" lon="-1.63529">
        <ele>59.6</ele>
        <time>2013-10-06T09:16:47Z</time>
      </trkpt>
      <trkpt lat="47.2562" lon="-1.63542">
        <ele>60.6</ele>
        <time>2013-10-06T09:16:49Z</time>
      </trkpt>
      <trkpt lat="47.25623" lon="-1.63555">
        <ele>60.9</ele>
        <time>2013-10-06T09:16:51Z</time>
      </trkpt>
      <trkpt lat="47.25627" lon="-1.63574">
        <ele>60.3</ele>
        <time>2013-10-06T09:16:54Z</time>
      </trkpt>
      <trkpt lat="47.25629" lon="-1.63588">
        <ele>60</ele>
        <time>2013-10-06T09:16:56Z</time>
      </trkpt>
      <trkpt lat="47.25632" lon="-1.63602">
        <ele>59.7</ele>
        <time>2013-10-06T09:16:58Z</time>
      </trkpt>
      <trkpt lat="47.25634" lon="-1.63617">
        <ele>59.4</ele>
        <time>2013-10-06T09:17:00Z</time>
      </trkpt>
      <trkpt lat="47.25637" lon="-1.63631">
        <ele>59.4</ele>
        <time>2013-10-06T09:17:02Z</time>
      </trkpt>
      <trkpt lat="47.25639" lon="-1.63646">
        <ele>59.1</ele>
        <time>2013-10-06T09:17:04Z</time>
      </trkpt>
      <trkpt lat="47.25642" lon="-1.6366">
        <ele>59</ele>
        <time>2013-10-06T09:17:06Z</time>
      </trkpt>
      <trkpt lat="47.25645" lon="-1.63675">
        <ele>58.5</ele>
        <time>2013-10-06T09:17:08Z</time>
      </trkpt>
      <trkpt lat="47.25648" lon="-1.63691">
        <ele>58.3</ele>
        <time>2013-10-06T09:17:10Z</time>
      </trkpt>
      <trkpt lat="47.25651" lon="-1.63706">
        <ele>58</ele>
        <time>2013-10-06T09:17:12Z</time>
      </trkpt>
      <trkpt lat="47.25654" lon="-1.63722">
        <ele>58.2</ele>
        <time>2013-10-06T09:17:14Z</time>
      </trkpt>
      <trkpt lat="47.25656" lon="-1.63737">
        <ele>58.8</ele>
        <time>2013-10-06T09:17:16Z</time>
      </trkpt>
      <trkpt lat="47.25659" lon="-1.63752">
        <ele>59</ele>
        <time>2013-10-06T09:17:18Z</time>
      </trkpt>
      <trkpt lat="47.25662" lon="-1.63768">
        <ele>59.4</ele>
        <time>2013-10-06T09:17:20Z</time>
      </trkpt>
      <trkpt lat="47.25664" lon="-1.63783">
        <ele>60.2</ele>
        <time>2013-10-06T09:17:22Z</time>
      </trkpt>
      <trkpt lat="47.25667" lon="-1.63798">
        <ele>60.9</ele>
        <time>2013-10-06T09:17:24Z</time>
      </trkpt>
      <trkpt lat="47.25669" lon="-1.63814">
        <ele>61.7</ele>
        <time>2013-10-06T09:17:26Z</time>
      </trkpt>
      <trkpt lat="47.25672" lon="-1.63831">
        <ele>61.8</ele>
        <time>2013-10-06T09:17:28Z</time>
      </trkpt>
      <trkpt lat="47.25676" lon="-1.63849">
        <ele>61.4</ele>
        <time>2013-10-06T09:17:30Z</time>
      </trkpt>
      <trkpt lat="47.2568" lon="-1.63865">
        <ele>61</ele>
        <time>2013-10-06T09:17:32Z</time>
      </trkpt>
      <trkpt lat="47.25683" lon="-1.63882">
        <ele>60.3</ele>
        <time>2013-10-06T09:17:34Z</time>
      </trkpt>
      <trkpt lat="47.25686" lon="-1.63901">
        <ele>59.1</ele>
        <time>2013-10-06T09:17:36Z</time>
      </trkpt>
      <trkpt lat="47.2569" lon="-1.63919">
        <ele>58.1</ele>
        <time>2013-10-06T09:17:38Z</time>
      </trkpt>
      <trkpt lat="47.25694" lon="-1.63935">
        <ele>59.1</ele>
        <time>2013-10-06T09:17:40Z</time>
      </trkpt>
      <trkpt lat="47.25697" lon="-1.63951">
        <ele>59.7</ele>
        <time>2013-10-06T09:17:42Z</time>
      </trkpt>
      <trkpt lat="47.25699" lon="-1.63967">
        <ele>59.3</ele>
        <time>2013-10-06T09:17:44Z</time>
      </trkpt>
      <trkpt lat="47.25702" lon="-1.63982">
        <ele>58.3</ele>
        <time>2013-10-06T09:17:46Z</time>
      </trkpt>
      <trkpt lat="47.25704" lon="-1.63997">
        <ele>57.5</ele>
        <time>2013-10-06T09:17:48Z</time>
      </trkpt>
      <trkpt lat="47.25707" lon="-1.64013">
        <ele>57.2</ele>
        <time>2013-10-06T09:17:50Z</time>
      </trkpt>
      <trkpt lat="47.25709" lon="-1.64028">
        <ele>57.9</ele>
        <time>2013-10-06T09:17:52Z</time>
      </trkpt>
      <trkpt lat="47.25711" lon="-1.64043">
        <ele>58.6</ele>
        <time>2013-10-06T09:17:54Z</time>
      </trkpt>
      <trkpt lat="47.25714" lon="-1.64059">
        <ele>59.5</ele>
        <time>2013-10-06T09:17:56Z</time>
      </trkpt>
      <trkpt lat="47.25716" lon="-1.64073">
        <ele>60.1</ele>
        <time>2013-10-06T09:17:58Z</time>
      </trkpt>
      <trkpt lat="47.25719" lon="-1.64087">
        <ele>60.4</ele>
        <time>2013-10-06T09:18:00Z</time>
      </trkpt>
      <trkpt lat="47.25721" lon="-1.64102">
        <ele>60.4</ele>
        <time>2013-10-06T09:18:02Z</time>
      </trkpt>
      <trkpt lat="47.25732" lon="-1.6411">
        <ele>59.3</ele>
        <time>2013-10-06T09:18:05Z</time>
      </trkpt>
      <trkpt lat="47.25745" lon="-1.64112">
        <ele>58</ele>
        <time>2013-10-06T09:18:08Z</time>
      </trkpt>
      <trkpt lat="47.25754" lon="-1.64114">
        <ele>56.6</ele>
        <time>2013-10-06T09:18:10Z</time>
      </trkpt>
      <trkpt lat="47.25766" lon="-1.64117">
        <ele>56.8</ele>
        <time>2013-10-06T09:18:13Z</time>
      </trkpt>
      <trkpt lat="47.25778" lon="-1.64119">
        <ele>56.9</ele>
        <time>2013-10-06T09:18:16Z</time>
      </trkpt>
      <trkpt lat="47.2579" lon="-1.64121">
        <ele>57</ele>
        <time>2013-10-06T09:18:19Z</time>
      </trkpt>
      <trkpt lat="47.25799" lon="-1.64122">
        <ele>57.4</ele>
        <time>2013-10-06T09:18:21Z</time>
      </trkpt>
      <trkpt lat="47.25811" lon="-1.64123">
        <ele>57.3</ele>
        <time>2013-10-06T09:18:24Z</time>
      </trkpt>
      <trkpt lat="47.25825" lon="-1.64125">
        <ele>54.9</ele>
        <time>2013-10-06T09:18:27Z</time>
      </trkpt>
      <trkpt lat="47.25835" lon="-1.64126">
        <ele>53</ele>
        <time>2013-10-06T09:18:29Z</time>
      </trkpt>
      <trkpt lat="47.25844" lon="-1.64127">
        <ele>51.2</ele>
        <time>2013-10-06T09:18:31Z</time>
      </trkpt>
      <trkpt lat="47.25856" lon="-1.64131">
        <ele>51.1</ele>
        <time>2013-10-06T09:18:34Z</time>
      </trkpt>
      <trkpt lat="47.25869" lon="-1.64137">
        <ele>50.9</ele>
        <time>2013-10-06T09:18:37Z</time>
      </trkpt>
      <trkpt lat="47.2588" lon="-1.64143">
        <ele>50.5</ele>
        <time>2013-10-06T09:18:39Z</time>
      </trkpt>
      <trkpt lat="47.25891" lon="-1.64148">
        <ele>50.5</ele>
        <time>2013-10-06T09:18:41Z</time>
      </trkpt>
      <trkpt lat="47.25899" lon="-1.64152">
        <ele>51.1</ele>
        <time>2013-10-06T09:18:43Z</time>
      </trkpt>
      <trkpt lat="47.25908" lon="-1.64158">
        <ele>51.1</ele>
        <time>2013-10-06T09:18:45Z</time>
      </trkpt>
      <trkpt lat="47.25919" lon="-1.64168">
        <ele>51</ele>
        <time>2013-10-06T09:18:48Z</time>
      </trkpt>
      <trkpt lat="47.2593" lon="-1.6418">
        <ele>51.3</ele>
        <time>2013-10-06T09:18:51Z</time>
      </trkpt>
      <trkpt lat="47.25938" lon="-1.64189">
        <ele>52.8</ele>
        <time>2013-10-06T09:18:53Z</time>
      </trkpt>
      <trkpt lat="47.25946" lon="-1.64198">
        <ele>52.9</ele>
        <time>2013-10-06T09:18:55Z</time>
      </trkpt>
      <trkpt lat="47.25956" lon="-1.64206">
        <ele>53.8</ele>
        <time>2013-10-06T09:18:58Z</time>
      </trkpt>
      <trkpt lat="47.25967" lon="-1.64214">
        <ele>53.9</ele>
        <time>2013-10-06T09:19:01Z</time>
      </trkpt>
      <trkpt lat="47.25977" lon="-1.64219">
        <ele>55</ele>
        <time>2013-10-06T09:19:03Z</time>
      </trkpt>
      <trkpt lat="47.25985" lon="-1.64221">
        <ele>55</ele>
        <time>2013-10-06T09:19:05Z</time>
      </trkpt>
      <trkpt lat="47.25995" lon="-1.64222">
        <ele>56.5</ele>
        <time>2013-10-06T09:19:07Z</time>
      </trkpt>
      <trkpt lat="47.26005" lon="-1.64222">
        <ele>58.2</ele>
        <time>2013-10-06T09:19:09Z</time>
      </trkpt>
      <trkpt lat="47.26016" lon="-1.64222">
        <ele>59.6</ele>
        <time>2013-10-06T09:19:11Z</time>
      </trkpt>
      <trkpt lat="47.26027" lon="-1.64222">
        <ele>62.3</ele>
        <time>2013-10-06T09:19:13Z</time>
      </trkpt>
      <trkpt lat="47.26038" lon="-1.64221">
        <ele>63.9</ele>
        <time>2013-10-06T09:19:16Z</time>
      </trkpt>
      <trkpt lat="47.26049" lon="-1.64221">
        <ele>63.8</ele>
        <time>2013-10-06T09:19:19Z</time>
      </trkpt>
      <trkpt lat="47.26061" lon="-1.64219">
        <ele>63.9</ele>
        <time>2013-10-06T09:19:22Z</time>
      </trkpt>
      <trkpt lat="47.2607" lon="-1.64216">
        <ele>64</ele>
        <time>2013-10-06T09:19:32Z</time>
      </trkpt>
      <trkpt lat="47.2608" lon="-1.64209">
        <ele>62.3</ele>
        <time>2013-10-06T09:20:06Z</time>
      </trkpt>
      <trkpt lat="47.26091" lon="-1.64202">
        <ele>62.1</ele>
        <time>2013-10-06T09:20:10Z</time>
      </trkpt>
      <trkpt lat="47.26099" lon="-1.64196">
        <ele>61.9</ele>
        <time>2013-10-06T09:20:13Z</time>
      </trkpt>
      <trkpt lat="47.26109" lon="-1.64191">
        <ele>61.7</ele>
        <time>2013-10-06T09:20:16Z</time>
      </trkpt>
      <trkpt lat="47.26118" lon="-1.64185">
        <ele>61.7</ele>
        <time>2013-10-06T09:20:19Z</time>
      </trkpt>
      <trkpt lat="47.26128" lon="-1.64179">
        <ele>61.9</ele>
        <time>2013-10-06T09:20:22Z</time>
      </trkpt>
      <trkpt lat="47.26138" lon="-1.64175">
        <ele>61.8</ele>
        <time>2013-10-06T09:20:24Z</time>
      </trkpt>
      <trkpt lat="47.2615" lon="-1.64171">
        <ele>61.5</ele>
        <time>2013-10-06T09:20:26Z</time>
      </trkpt>
      <trkpt lat="47.26161" lon="-1.64168">
        <ele>60.7</ele>
        <time>2013-10-06T09:20:28Z</time>
      </trkpt>
      <trkpt lat="47.26174" lon="-1.64162">
        <ele>60.5</ele>
        <time>2013-10-06T09:20:31Z</time>
      </trkpt>
      <trkpt lat="47.26186" lon="-1.64154">
        <ele>58.6</ele>
        <time>2013-10-06T09:20:34Z</time>
      </trkpt>
      <trkpt lat="47.26195" lon="-1.64148">
        <ele>55.8</ele>
        <time>2013-10-06T09:20:36Z</time>
      </trkpt>
      <trkpt lat="47.26203" lon="-1.64142">
        <ele>54.1</ele>
        <time>2013-10-06T09:20:38Z</time>
      </trkpt>
      <trkpt lat="47.26212" lon="-1.64136">
        <ele>53.4</ele>
        <time>2013-10-06T09:20:40Z</time>
      </trkpt>
      <trkpt lat="47.26222" lon="-1.64131">
        <ele>53.6</ele>
        <time>2013-10-06T09:20:43Z</time>
      </trkpt>
      <trkpt lat="47.26234" lon="-1.64122">
        <ele>52.8</ele>
        <time>2013-10-06T09:20:46Z</time>
      </trkpt>
      <trkpt lat="47.2624" lon="-1.64111">
        <ele>52.5</ele>
        <time>2013-10-06T09:20:48Z</time>
      </trkpt>
      <trkpt lat="47.26243" lon="-1.64093">
        <ele>52.3</ele>
        <time>2013-10-06T09:20:51Z</time>
      </trkpt>
      <trkpt lat="47.26244" lon="-1.64079">
        <ele>51.1</ele>
        <time>2013-10-06T09:20:53Z</time>
      </trkpt>
      <trkpt lat="47.26245" lon="-1.64064">
        <ele>48.9</ele>
        <time>2013-10-06T09:20:55Z</time>
      </trkpt>
      <trkpt lat="47.26248" lon="-1.64049">
        <ele>46.7</ele>
        <time>2013-10-06T09:20:57Z</time>
      </trkpt>
      <trkpt lat="47.26256" lon="-1.64034">
        <ele>45.6</ele>
        <time>2013-10-06T09:21:00Z</time>
      </trkpt>
      <trkpt lat="47.26262" lon="-1.64022">
        <ele>45</ele>
        <time>2013-10-06T09:21:02Z</time>
      </trkpt>
      <trkpt lat="47.26271" lon="-1.64008">
        <ele>42.1</ele>
        <time>2013-10-06T09:21:04Z</time>
      </trkpt>
      <trkpt lat="47.2628" lon="-1.63994">
        <ele>40.7</ele>
        <time>2013-10-06T09:21:06Z</time>
      </trkpt>
      <trkpt lat="47.2629" lon="-1.6398">
        <ele>41</ele>
        <time>2013-10-06T09:21:08Z</time>
      </trkpt>
      <trkpt lat="47.26303" lon="-1.63973">
        <ele>42.1</ele>
        <time>2013-10-06T09:21:10Z</time>
      </trkpt>
      <trkpt lat="47.26312" lon="-1.63971">
        <ele>43</ele>
        <time>2013-10-06T09:21:12Z</time>
      </trkpt>
      <trkpt lat="47.26322" lon="-1.63974">
        <ele>43.1</ele>
        <time>2013-10-06T09:21:14Z</time>
      </trkpt>
      <trkpt lat="47.26331" lon="-1.6398">
        <ele>43.4</ele>
        <time>2013-10-06T09:21:16Z</time>
      </trkpt>
      <trkpt lat="47.2634" lon="-1.63991">
        <ele>43.8</ele>
        <time>2013-10-06T09:21:19Z</time>
      </trkpt>
      <trkpt lat="47.26347" lon="-1.64004">
        <ele>44.2</ele>
        <time>2013-10-06T09:21:22Z</time>
      </trkpt>
      <trkpt lat="47.26353" lon="-1.64018">
        <ele>44.7</ele>
        <time>2013-10-06T09:21:25Z</time>
      </trkpt>
      <trkpt lat="47.26358" lon="-1.64032">
        <ele>45.3</ele>
        <time>2013-10-06T09:21:28Z</time>
      </trkpt>
      <trkpt lat="47.26363" lon="-1.64047">
        <ele>45.8</ele>
        <time>2013-10-06T09:21:31Z</time>
      </trkpt>
      <trkpt lat="47.26369" lon="-1.64061">
        <ele>46.4</ele>
        <time>2013-10-06T09:21:34Z</time>
      </trkpt>
      <trkpt lat="47.26377" lon="-1.64072">
        <ele>47</ele>
        <time>2013-10-06T09:21:37Z</time>
      </trkpt>
      <trkpt lat="47.26385" lon="-1.64079">
        <ele>47.5</ele>
        <time>2013-10-06T09:21:40Z</time>
      </trkpt>
      <trkpt lat="47.26394" lon="-1.64087">
        <ele>48</ele>
        <time>2013-10-06T09:21:43Z</time>
      </trkpt>
      <trkpt lat="47.26403" lon="-1.64096">
        <ele>48.5</ele>
        <time>2013-10-06T09:21:46Z</time>
      </trkpt>
      <trkpt lat="47.26413" lon="-1.64103">
        <ele>48.9</ele>
        <time>2013-10-06T09:21:49Z</time>
      </trkpt>
      <trkpt lat="47.26419" lon="-1.64114">
        <ele>49.4</ele>
        <time>2013-10-06T09:21:52Z</time>
      </trkpt>
      <trkpt lat="47.26417" lon="-1.64128">
        <ele>50.1</ele>
        <time>2013-10-06T09:21:55Z</time>
      </trkpt>
      <trkpt lat="47.26412" lon="-1.64142">
        <ele>50.7</ele>
        <time>2013-10-06T09:21:58Z</time>
      </trkpt>
      <trkpt lat="47.26405" lon="-1.64155">
        <ele>51</ele>
        <time>2013-10-06T09:22:01Z</time>
      </trkpt>
      <trkpt lat="47.26397" lon="-1.64166">
        <ele>51.3</ele>
        <time>2013-10-06T09:22:04Z</time>
      </trkpt>
      <trkpt lat="47.26391" lon="-1.64179">
        <ele>51.7</ele>
        <time>2013-10-06T09:22:07Z</time>
      </trkpt>
      <trkpt lat="47.26384" lon="-1.64192">
        <ele>52.1</ele>
        <time>2013-10-06T09:22:10Z</time>
      </trkpt>
      <trkpt lat="47.26376" lon="-1.64205">
        <ele>52.4</ele>
        <time>2013-10-06T09:22:13Z</time>
      </trkpt>
      <trkpt lat="47.26369" lon="-1.64219">
        <ele>53.9</ele>
        <time>2013-10-06T09:22:16Z</time>
      </trkpt>
      <trkpt lat="47.26363" lon="-1.64234">
        <ele>55</ele>
        <time>2013-10-06T09:22:19Z</time>
      </trkpt>
      <trkpt lat="47.26365" lon="-1.64249">
        <ele>55</ele>
        <time>2013-10-06T09:22:22Z</time>
      </trkpt>
      <trkpt lat="47.26371" lon="-1.6426">
        <ele>55.1</ele>
        <time>2013-10-06T09:22:25Z</time>
      </trkpt>
      <trkpt lat="47.26379" lon="-1.6427">
        <ele>55.1</ele>
        <time>2013-10-06T09:22:29Z</time>
      </trkpt>
      <trkpt lat="47.26387" lon="-1.64282">
        <ele>55.3</ele>
        <time>2013-10-06T09:22:33Z</time>
      </trkpt>
      <trkpt lat="47.26395" lon="-1.64293">
        <ele>55.4</ele>
        <time>2013-10-06T09:22:37Z</time>
      </trkpt>
      <trkpt lat="47.26403" lon="-1.64305">
        <ele>55.6</ele>
        <time>2013-10-06T09:22:41Z</time>
      </trkpt>
      <trkpt lat="47.2641" lon="-1.64314">
        <ele>55.7</ele>
        <time>2013-10-06T09:22:44Z</time>
      </trkpt>
      <trkpt lat="47.26417" lon="-1.64322">
        <ele>55.9</ele>
        <time>2013-10-06T09:22:47Z</time>
      </trkpt>
      <trkpt lat="47.26426" lon="-1.6432">
        <ele>56.1</ele>
        <time>2013-10-06T09:22:50Z</time>
      </trkpt>
      <trkpt lat="47.26435" lon="-1.6431">
        <ele>56.2</ele>
        <time>2013-10-06T09:22:53Z</time>
      </trkpt>
      <trkpt lat="47.26441" lon="-1.64295">
        <ele>56.3</ele>
        <time>2013-10-06T09:22:56Z</time>
      </trkpt>
      <trkpt lat="47.26446" lon="-1.64282">
        <ele>56.1</ele>
        <time>2013-10-06T09:22:59Z</time>
      </trkpt>
      <trkpt lat="47.26453" lon="-1.64272">
        <ele>55.9</ele>
        <time>2013-10-06T09:23:02Z</time>
      </trkpt>
      <trkpt lat="47.26462" lon="-1.64265">
        <ele>55.7</ele>
        <time>2013-10-06T09:23:05Z</time>
      </trkpt>
      <trkpt lat="47.26471" lon="-1.64261">
        <ele>55.7</ele>
        <time>2013-10-06T09:23:08Z</time>
      </trkpt>
      <trkpt lat="47.26483" lon="-1.64258">
        <ele>55.5</ele>
        <time>2013-10-06T09:23:12Z</time>
      </trkpt>
      <trkpt lat="47.26494" lon="-1.64258">
        <ele>55.3</ele>
        <time>2013-10-06T09:23:15Z</time>
      </trkpt>
      <trkpt lat="47.26505" lon="-1.64258">
        <ele>55.1</ele>
        <time>2013-10-06T09:23:18Z</time>
      </trkpt>
      <trkpt lat="47.26516" lon="-1.64259">
        <ele>54.9</ele>
        <time>2013-10-06T09:23:21Z</time>
      </trkpt>
      <trkpt lat="47.26527" lon="-1.64258">
        <ele>54.6</ele>
        <time>2013-10-06T09:23:24Z</time>
      </trkpt>
      <trkpt lat="47.26539" lon="-1.64259">
        <ele>54.3</ele>
        <time>2013-10-06T09:23:27Z</time>
      </trkpt>
      <trkpt lat="47.26549" lon="-1.6426">
        <ele>53</ele>
        <time>2013-10-06T09:23:29Z</time>
      </trkpt>
      <trkpt lat="47.26559" lon="-1.64262">
        <ele>52.5</ele>
        <time>2013-10-06T09:23:32Z</time>
      </trkpt>
      <trkpt lat="47.26568" lon="-1.64265">
        <ele>51.8</ele>
        <time>2013-10-06T09:23:34Z</time>
      </trkpt>
      <trkpt lat="47.26578" lon="-1.64269">
        <ele>51.4</ele>
        <time>2013-10-06T09:23:36Z</time>
      </trkpt>
      <trkpt lat="47.26588" lon="-1.64271">
        <ele>49.5</ele>
        <time>2013-10-06T09:23:38Z</time>
      </trkpt>
      <trkpt lat="47.26597" lon="-1.64271">
        <ele>48.2</ele>
        <time>2013-10-06T09:23:40Z</time>
      </trkpt>
      <trkpt lat="47.26606" lon="-1.6427">
        <ele>47.3</ele>
        <time>2013-10-06T09:23:42Z</time>
      </trkpt>
      <trkpt lat="47.26615" lon="-1.6427">
        <ele>46.3</ele>
        <time>2013-10-06T09:23:44Z</time>
      </trkpt>
      <trkpt lat="47.26625" lon="-1.64269">
        <ele>45.3</ele>
        <time>2013-10-06T09:23:46Z</time>
      </trkpt>
      <trkpt lat="47.26636" lon="-1.64266">
        <ele>45</ele>
        <time>2013-10-06T09:23:48Z</time>
      </trkpt>
      <trkpt lat="47.26646" lon="-1.64262">
        <ele>46</ele>
        <time>2013-10-06T09:23:50Z</time>
      </trkpt>
      <trkpt lat="47.26658" lon="-1.64258">
        <ele>44.5</ele>
        <time>2013-10-06T09:23:52Z</time>
      </trkpt>
      <trkpt lat="47.26671" lon="-1.64258">
        <ele>44.4</ele>
        <time>2013-10-06T09:23:54Z</time>
      </trkpt>
      <trkpt lat="47.26681" lon="-1.64259">
        <ele>44.4</ele>
        <time>2013-10-06T09:23:56Z</time>
      </trkpt>
      <trkpt lat="47.26694" lon="-1.64262">
        <ele>44.2</ele>
        <time>2013-10-06T09:23:59Z</time>
      </trkpt>
      <trkpt lat="47.26706" lon="-1.64264">
        <ele>44.2</ele>
        <time>2013-10-06T09:24:02Z</time>
      </trkpt>
      <trkpt lat="47.26719" lon="-1.64266">
        <ele>44.8</ele>
        <time>2013-10-06T09:24:05Z</time>
      </trkpt>
      <trkpt lat="47.26728" lon="-1.64267">
        <ele>44.6</ele>
        <time>2013-10-06T09:24:07Z</time>
      </trkpt>
      <trkpt lat="47.26741" lon="-1.64267">
        <ele>44.6</ele>
        <time>2013-10-06T09:24:10Z</time>
      </trkpt>
      <trkpt lat="47.26752" lon="-1.64268">
        <ele>44.8</ele>
        <time>2013-10-06T09:24:12Z</time>
      </trkpt>
      <trkpt lat="47.26762" lon="-1.64272">
        <ele>44.9</ele>
        <time>2013-10-06T09:24:14Z</time>
      </trkpt>
      <trkpt lat="47.26771" lon="-1.64275">
        <ele>45</ele>
        <time>2013-10-06T09:24:16Z</time>
      </trkpt>
      <trkpt lat="47.26781" lon="-1.64279">
        <ele>46.8</ele>
        <time>2013-10-06T09:24:18Z</time>
      </trkpt>
      <trkpt lat="47.26795" lon="-1.64281">
        <ele>50</ele>
        <time>2013-10-06T09:24:21Z</time>
      </trkpt>
      <trkpt lat="47.26804" lon="-1.64282">
        <ele>50.6</ele>
        <time>2013-10-06T09:24:23Z</time>
      </trkpt>
      <trkpt lat="47.26814" lon="-1.64284">
        <ele>51.1</ele>
        <time>2013-10-06T09:24:25Z</time>
      </trkpt>
      <trkpt lat="47.26824" lon="-1.64286">
        <ele>51.3</ele>
        <time>2013-10-06T09:24:28Z</time>
      </trkpt>
      <trkpt lat="47.26825" lon="-1.643">
        <ele>52.9</ele>
        <time>2013-10-06T09:24:41Z</time>
      </trkpt>
      <trkpt lat="47.26829" lon="-1.64315">
        <ele>53.6</ele>
        <time>2013-10-06T09:24:49Z</time>
      </trkpt>
      <trkpt lat="47.26836" lon="-1.64328">
        <ele>53.7</ele>
        <time>2013-10-06T09:24:53Z</time>
      </trkpt>
      <trkpt lat="47.26842" lon="-1.6434">
        <ele>53.8</ele>
        <time>2013-10-06T09:24:56Z</time>
      </trkpt>
      <trkpt lat="47.26848" lon="-1.64351">
        <ele>54.2</ele>
        <time>2013-10-06T09:24:59Z</time>
      </trkpt>
      <trkpt lat="47.26855" lon="-1.64362">
        <ele>54.7</ele>
        <time>2013-10-06T09:25:02Z</time>
      </trkpt>
      <trkpt lat="47.26859" lon="-1.64378">
        <ele>54.9</ele>
        <time>2013-10-06T09:25:06Z</time>
      </trkpt>
      <trkpt lat="47.26862" lon="-1.6439">
        <ele>55</ele>
        <time>2013-10-06T09:25:09Z</time>
      </trkpt>
      <trkpt lat="47.26869" lon="-1.64401">
        <ele>55.1</ele>
        <time>2013-10-06T09:25:13Z</time>
      </trkpt>
      <trkpt lat="47.26875" lon="-1.64411">
        <ele>55.1</ele>
        <time>2013-10-06T09:25:17Z</time>
      </trkpt>
      <trkpt lat="47.26882" lon="-1.64423">
        <ele>55.5</ele>
        <time>2013-10-06T09:25:23Z</time>
      </trkpt>
      <trkpt lat="47.26889" lon="-1.64432">
        <ele>55.5</ele>
        <time>2013-10-06T09:25:36Z</time>
      </trkpt>
      <trkpt lat="47.26891" lon="-1.64445">
        <ele>56.6</ele>
        <time>2013-10-06T09:26:07Z</time>
      </trkpt>
      <trkpt lat="47.269" lon="-1.64449">
        <ele>57.5</ele>
        <time>2013-10-06T09:26:28Z</time>
      </trkpt>
      <trkpt lat="47.2691" lon="-1.64445">
        <ele>57.3</ele>
        <time>2013-10-06T09:26:33Z</time>
      </trkpt>
      <trkpt lat="47.26919" lon="-1.64446">
        <ele>56.9</ele>
        <time>2013-10-06T09:26:39Z</time>
      </trkpt>
      <trkpt lat="47.26929" lon="-1.64448">
        <ele>55.9</ele>
        <time>2013-10-06T09:26:52Z</time>
      </trkpt>
      <trkpt lat="47.26938" lon="-1.64449">
        <ele>55.2</ele>
        <time>2013-10-06T09:27:05Z</time>
      </trkpt>
      <trkpt lat="47.26947" lon="-1.64455">
        <ele>54</ele>
        <time>2013-10-06T09:27:12Z</time>
      </trkpt>
      <trkpt lat="47.26957" lon="-1.64458">
        <ele>52.2</ele>
        <time>2013-10-06T09:27:20Z</time>
      </trkpt>
      <trkpt lat="47.26966" lon="-1.6446">
        <ele>50.1</ele>
        <time>2013-10-06T09:27:28Z</time>
      </trkpt>
      <trkpt lat="47.26975" lon="-1.64462">
        <ele>49.1</ele>
        <time>2013-10-06T09:27:33Z</time>
      </trkpt>
      <trkpt lat="47.26985" lon="-1.64467">
        <ele>48.4</ele>
        <time>2013-10-06T09:27:38Z</time>
      </trkpt>
      <trkpt lat="47.26996" lon="-1.64463">
        <ele>47.3</ele>
        <time>2013-10-06T09:27:43Z</time>
      </trkpt>
      <trkpt lat="47.27003" lon="-1.64453">
        <ele>46</ele>
        <time>2013-10-06T09:28:02Z</time>
      </trkpt>
      <trkpt lat="47.27007" lon="-1.64439">
        <ele>39.7</ele>
        <time>2013-10-06T09:29:51Z</time>
      </trkpt>
      <trkpt lat="47.27009" lon="-1.64426">
        <ele>39</ele>
        <time>2013-10-06T09:29:55Z</time>
      </trkpt>
      <trkpt lat="47.2701" lon="-1.64412">
        <ele>37.9</ele>
        <time>2013-10-06T09:30:01Z</time>
      </trkpt>
      <trkpt lat="47.2701" lon="-1.64396">
        <ele>37.3</ele>
        <time>2013-10-06T09:30:06Z</time>
      </trkpt>
      <trkpt lat="47.27015" lon="-1.64383">
        <ele>36.9</ele>
        <time>2013-10-06T09:30:10Z</time>
      </trkpt>
      <trkpt lat="47.27018" lon="-1.64368">
        <ele>36.1</ele>
        <time>2013-10-06T09:30:15Z</time>
      </trkpt>
      <trkpt lat="47.27016" lon="-1.64352">
        <ele>35.6</ele>
        <time>2013-10-06T09:30:19Z</time>
      </trkpt>
      <trkpt lat="47.27013" lon="-1.64337">
        <ele>35.4</ele>
        <time>2013-10-06T09:30:22Z</time>
      </trkpt>
      <trkpt lat="47.27012" lon="-1.64322">
        <ele>34.7</ele>
        <time>2013-10-06T09:30:26Z</time>
      </trkpt>
      <trkpt lat="47.27013" lon="-1.64309">
        <ele>34.2</ele>
        <time>2013-10-06T09:30:30Z</time>
      </trkpt>
      <trkpt lat="47.27013" lon="-1.64295">
        <ele>33.9</ele>
        <time>2013-10-06T09:30:34Z</time>
      </trkpt>
      <trkpt lat="47.27011" lon="-1.64282">
        <ele>33.2</ele>
        <time>2013-10-06T09:30:40Z</time>
      </trkpt>
      <trkpt lat="47.27007" lon="-1.64269">
        <ele>30.9</ele>
        <time>2013-10-06T09:30:56Z</time>
      </trkpt>
      <trkpt lat="47.27013" lon="-1.6428">
        <ele>30.7</ele>
        <time>2013-10-06T09:32:22Z</time>
      </trkpt>
      <trkpt lat="47.27008" lon="-1.64269">
        <ele>31.9</ele>
        <time>2013-10-06T09:33:14Z</time>
      </trkpt>
      <trkpt lat="47.27004" lon="-1.64256">
        <ele>31.7</ele>
        <time>2013-10-06T09:33:19Z</time>
      </trkpt>
      <trkpt lat="47.27" lon="-1.64245">
        <ele>31.7</ele>
        <time>2013-10-06T09:33:24Z</time>
      </trkpt>
      <trkpt lat="47.26996" lon="-1.6423">
        <ele>31.6</ele>
        <time>2013-10-06T09:33:30Z</time>
      </trkpt>
      <trkpt lat="47.26988" lon="-1.64221">
        <ele>31.7</ele>
        <time>2013-10-06T09:33:35Z</time>
      </trkpt>
      <trkpt lat="47.2698" lon="-1.64211">
        <ele>32</ele>
        <time>2013-10-06T09:33:39Z</time>
      </trkpt>
      <trkpt lat="47.26973" lon="-1.64198">
        <ele>31.5</ele>
        <time>2013-10-06T09:33:43Z</time>
      </trkpt>
      <trkpt lat="47.26964" lon="-1.64189">
        <ele>30.4</ele>
        <time>2013-10-06T09:33:47Z</time>
      </trkpt>
      <trkpt lat="47.26957" lon="-1.64178">
        <ele>28.9</ele>
        <time>2013-10-06T09:33:51Z</time>
      </trkpt>
      <trkpt lat="47.26949" lon="-1.64166">
        <ele>26.6</ele>
        <time>2013-10-06T09:33:56Z</time>
      </trkpt>
      <trkpt lat="47.26942" lon="-1.64153">
        <ele>25.3</ele>
        <time>2013-10-06T09:33:59Z</time>
      </trkpt>
      <trkpt lat="47.26932" lon="-1.64141">
        <ele>24.2</ele>
        <time>2013-10-06T09:34:02Z</time>
      </trkpt>
      <trkpt lat="47.26926" lon="-1.6413">
        <ele>23.3</ele>
        <time>2013-10-06T09:34:05Z</time>
      </trkpt>
      <trkpt lat="47.26919" lon="-1.64115">
        <ele>22.4</ele>
        <time>2013-10-06T09:34:08Z</time>
      </trkpt>
      <trkpt lat="47.26913" lon="-1.64104">
        <ele>21.9</ele>
        <time>2013-10-06T09:34:10Z</time>
      </trkpt>
      <trkpt lat="47.26907" lon="-1.64095">
        <ele>21.4</ele>
        <time>2013-10-06T09:34:12Z</time>
      </trkpt>
      <trkpt lat="47.269" lon="-1.64086">
        <ele>21</ele>
        <time>2013-10-06T09:34:15Z</time>
      </trkpt>
      <trkpt lat="47.26892" lon="-1.64076">
        <ele>21.1</ele>
        <time>2013-10-06T09:34:18Z</time>
      </trkpt>
      <trkpt lat="47.26889" lon="-1.64062">
        <ele>21.1</ele>
        <time>2013-10-06T09:34:22Z</time>
      </trkpt>
      <trkpt lat="47.26887" lon="-1.64046">
        <ele>21.5</ele>
        <time>2013-10-06T09:34:26Z</time>
      </trkpt>
      <trkpt lat="47.26885" lon="-1.64033">
        <ele>21.4</ele>
        <time>2013-10-06T09:34:29Z</time>
      </trkpt>
      <trkpt lat="47.2688" lon="-1.64018">
        <ele>21</ele>
        <time>2013-10-06T09:34:33Z</time>
      </trkpt>
      <trkpt lat="47.26876" lon="-1.64005">
        <ele>20</ele>
        <time>2013-10-06T09:34:37Z</time>
      </trkpt>
      <trkpt lat="47.26871" lon="-1.63992">
        <ele>19.5</ele>
        <time>2013-10-06T09:34:42Z</time>
      </trkpt>
      <trkpt lat="47.26863" lon="-1.63981">
        <ele>19.1</ele>
        <time>2013-10-06T09:34:47Z</time>
      </trkpt>
      <trkpt lat="47.26854" lon="-1.6398">
        <ele>18.9</ele>
        <time>2013-10-06T09:34:51Z</time>
      </trkpt>
      <trkpt lat="47.26845" lon="-1.63978">
        <ele>19.2</ele>
        <time>2013-10-06T09:34:57Z</time>
      </trkpt>
      <trkpt lat="47.26833" lon="-1.63976">
        <ele>20.6</ele>
        <time>2013-10-06T09:35:02Z</time>
      </trkpt>
      <trkpt lat="47.26823" lon="-1.63979">
        <ele>21.5</ele>
        <time>2013-10-06T09:35:05Z</time>
      </trkpt>
      <trkpt lat="47.26813" lon="-1.63978">
        <ele>22.8</ele>
        <time>2013-10-06T09:35:09Z</time>
      </trkpt>
      <trkpt lat="47.26802" lon="-1.63982">
        <ele>24.6</ele>
        <time>2013-10-06T09:35:13Z</time>
      </trkpt>
      <trkpt lat="47.26794" lon="-1.63987">
        <ele>26.2</ele>
        <time>2013-10-06T09:35:16Z</time>
      </trkpt>
      <trkpt lat="47.26785" lon="-1.63992">
        <ele>28.3</ele>
        <time>2013-10-06T09:35:21Z</time>
      </trkpt>
      <trkpt lat="47.26775" lon="-1.63996">
        <ele>29.5</ele>
        <time>2013-10-06T09:35:25Z</time>
      </trkpt>
      <trkpt lat="47.26766" lon="-1.64001">
        <ele>30.2</ele>
        <time>2013-10-06T09:35:28Z</time>
      </trkpt>
      <trkpt lat="47.26756" lon="-1.64009">
        <ele>30.3</ele>
        <time>2013-10-06T09:35:32Z</time>
      </trkpt>
      <trkpt lat="47.26746" lon="-1.64014">
        <ele>30.3</ele>
        <time>2013-10-06T09:35:39Z</time>
      </trkpt>
      <trkpt lat="47.26737" lon="-1.64021">
        <ele>30.6</ele>
        <time>2013-10-06T09:35:44Z</time>
      </trkpt>
      <trkpt lat="47.26728" lon="-1.64023">
        <ele>31.2</ele>
        <time>2013-10-06T09:35:54Z</time>
      </trkpt>
      <trkpt lat="47.26725" lon="-1.64009">
        <ele>32.6</ele>
        <time>2013-10-06T09:36:45Z</time>
      </trkpt>
      <trkpt lat="47.26727" lon="-1.63995">
        <ele>29.9</ele>
        <time>2013-10-06T09:37:14Z</time>
      </trkpt>
      <trkpt lat="47.26718" lon="-1.6399">
        <ele>28.8</ele>
        <time>2013-10-06T09:37:31Z</time>
      </trkpt>
      <trkpt lat="47.26718" lon="-1.63975">
        <ele>28</ele>
        <time>2013-10-06T09:37:36Z</time>
      </trkpt>
      <trkpt lat="47.26715" lon="-1.63961">
        <ele>27.2</ele>
        <time>2013-10-06T09:37:40Z</time>
      </trkpt>
      <trkpt lat="47.26716" lon="-1.63946">
        <ele>25.7</ele>
        <time>2013-10-06T09:37:45Z</time>
      </trkpt>
      <trkpt lat="47.26717" lon="-1.6393">
        <ele>24.1</ele>
        <time>2013-10-06T09:37:50Z</time>
      </trkpt>
      <trkpt lat="47.26717" lon="-1.63915">
        <ele>22.8</ele>
        <time>2013-10-06T09:37:54Z</time>
      </trkpt>
      <trkpt lat="47.2672" lon="-1.63899">
        <ele>22.1</ele>
        <time>2013-10-06T09:37:58Z</time>
      </trkpt>
      <trkpt lat="47.2672" lon="-1.63881">
        <ele>21.3</ele>
        <time>2013-10-06T09:38:02Z</time>
      </trkpt>
      <trkpt lat="47.26721" lon="-1.63865">
        <ele>20.3</ele>
        <time>2013-10-06T09:38:06Z</time>
      </trkpt>
      <trkpt lat="47.26724" lon="-1.63851">
        <ele>20</ele>
        <time>2013-10-06T09:38:09Z</time>
      </trkpt>
      <trkpt lat="47.26726" lon="-1.63836">
        <ele>19.9</ele>
        <time>2013-10-06T09:38:12Z</time>
      </trkpt>
      <trkpt lat="47.26725" lon="-1.63818">
        <ele>19.3</ele>
        <time>2013-10-06T09:38:15Z</time>
      </trkpt>
      <trkpt lat="47.26726" lon="-1.638">
        <ele>17.3</ele>
        <time>2013-10-06T09:38:18Z</time>
      </trkpt>
      <trkpt lat="47.26727" lon="-1.63785">
        <ele>15.8</ele>
        <time>2013-10-06T09:38:20Z</time>
      </trkpt>
      <trkpt lat="47.26729" lon="-1.63769">
        <ele>13.3</ele>
        <time>2013-10-06T09:38:22Z</time>
      </trkpt>
      <trkpt lat="47.26731" lon="-1.63749">
        <ele>11.2</ele>
        <time>2013-10-06T09:38:24Z</time>
      </trkpt>
      <trkpt lat="47.26735" lon="-1.63731">
        <ele>10.9</ele>
        <time>2013-10-06T09:38:26Z</time>
      </trkpt>
      <trkpt lat="47.26739" lon="-1.63717">
        <ele>11.5</ele>
        <time>2013-10-06T09:38:28Z</time>
      </trkpt>
      <trkpt lat="47.26743" lon="-1.63703">
        <ele>11.8</ele>
        <time>2013-10-06T09:38:30Z</time>
      </trkpt>
      <trkpt lat="47.26749" lon="-1.63691">
        <ele>12.2</ele>
        <time>2013-10-06T09:38:32Z</time>
      </trkpt>
      <trkpt lat="47.26755" lon="-1.63677">
        <ele>12.2</ele>
        <time>2013-10-06T09:38:35Z</time>
      </trkpt>
      <trkpt lat="47.26761" lon="-1.63664">
        <ele>12.3</ele>
        <time>2013-10-06T09:38:38Z</time>
      </trkpt>
      <trkpt lat="47.26764" lon="-1.63651">
        <ele>12.5</ele>
        <time>2013-10-06T09:38:42Z</time>
      </trkpt>
      <trkpt lat="47.26766" lon="-1.63637">
        <ele>12.9</ele>
        <time>2013-10-06T09:38:45Z</time>
      </trkpt>
      <trkpt lat="47.26774" lon="-1.63625">
        <ele>13.4</ele>
        <time>2013-10-06T09:38:48Z</time>
      </trkpt>
      <trkpt lat="47.26785" lon="-1.63615">
        <ele>14.2</ele>
        <time>2013-10-06T09:38:51Z</time>
      </trkpt>
      <trkpt lat="47.26797" lon="-1.63606">
        <ele>17.4</ele>
        <time>2013-10-06T09:38:54Z</time>
      </trkpt>
      <trkpt lat="47.26808" lon="-1.63596">
        <ele>20.9</ele>
        <time>2013-10-06T09:38:57Z</time>
      </trkpt>
      <trkpt lat="47.26816" lon="-1.63585">
        <ele>20.9</ele>
        <time>2013-10-06T09:39:00Z</time>
      </trkpt>
      <trkpt lat="47.2682" lon="-1.63572">
        <ele>21</ele>
        <time>2013-10-06T09:39:03Z</time>
      </trkpt>
      <trkpt lat="47.26825" lon="-1.63554">
        <ele>21.2</ele>
        <time>2013-10-06T09:39:06Z</time>
      </trkpt>
      <trkpt lat="47.2683" lon="-1.63542">
        <ele>21.5</ele>
        <time>2013-10-06T09:39:08Z</time>
      </trkpt>
      <trkpt lat="47.26836" lon="-1.63532">
        <ele>21</ele>
        <time>2013-10-06T09:39:10Z</time>
      </trkpt>
      <trkpt lat="47.26843" lon="-1.63515">
        <ele>22</ele>
        <time>2013-10-06T09:39:13Z</time>
      </trkpt>
      <trkpt lat="47.26847" lon="-1.63503">
        <ele>22.8</ele>
        <time>2013-10-06T09:39:15Z</time>
      </trkpt>
      <trkpt lat="47.26852" lon="-1.63491">
        <ele>22.9</ele>
        <time>2013-10-06T09:39:17Z</time>
      </trkpt>
      <trkpt lat="47.26858" lon="-1.63474">
        <ele>24</ele>
        <time>2013-10-06T09:39:20Z</time>
      </trkpt>
      <trkpt lat="47.26862" lon="-1.63455">
        <ele>23.5</ele>
        <time>2013-10-06T09:39:23Z</time>
      </trkpt>
      <trkpt lat="47.26867" lon="-1.63443">
        <ele>23.1</ele>
        <time>2013-10-06T09:39:25Z</time>
      </trkpt>
      <trkpt lat="47.26872" lon="-1.63429">
        <ele>23.6</ele>
        <time>2013-10-06T09:39:27Z</time>
      </trkpt>
      <trkpt lat="47.26876" lon="-1.63414">
        <ele>24.2</ele>
        <time>2013-10-06T09:39:29Z</time>
      </trkpt>
      <trkpt lat="47.26878" lon="-1.63396">
        <ele>24.2</ele>
        <time>2013-10-06T09:39:32Z</time>
      </trkpt>
      <trkpt lat="47.26877" lon="-1.6338">
        <ele>24</ele>
        <time>2013-10-06T09:39:35Z</time>
      </trkpt>
      <trkpt lat="47.26876" lon="-1.63366">
        <ele>23.3</ele>
        <time>2013-10-06T09:40:03Z</time>
      </trkpt>
      <trkpt lat="47.26884" lon="-1.63358">
        <ele>22.9</ele>
        <time>2013-10-06T09:40:10Z</time>
      </trkpt>
      <trkpt lat="47.26887" lon="-1.63345">
        <ele>23.2</ele>
        <time>2013-10-06T09:40:18Z</time>
      </trkpt>
      <trkpt lat="47.26884" lon="-1.63331">
        <ele>23.4</ele>
        <time>2013-10-06T09:40:21Z</time>
      </trkpt>
      <trkpt lat="47.26885" lon="-1.63313">
        <ele>23.5</ele>
        <time>2013-10-06T09:40:23Z</time>
      </trkpt>
      <trkpt lat="47.26888" lon="-1.63298">
        <ele>23.5</ele>
        <time>2013-10-06T09:40:25Z</time>
      </trkpt>
      <trkpt lat="47.26891" lon="-1.63282">
        <ele>23.4</ele>
        <time>2013-10-06T09:40:28Z</time>
      </trkpt>
      <trkpt lat="47.26892" lon="-1.63268">
        <ele>23.4</ele>
        <time>2013-10-06T09:40:30Z</time>
      </trkpt>
      <trkpt lat="47.26892" lon="-1.63251">
        <ele>22.9</ele>
        <time>2013-10-06T09:40:34Z</time>
      </trkpt>
      <trkpt lat="47.26894" lon="-1.63238">
        <ele>22.2</ele>
        <time>2013-10-06T09:40:37Z</time>
      </trkpt>
      <trkpt lat="47.26886" lon="-1.63229">
        <ele>20.6</ele>
        <time>2013-10-06T09:40:44Z</time>
      </trkpt>
      <trkpt lat="47.26878" lon="-1.63221">
        <ele>19.4</ele>
        <time>2013-10-06T09:40:49Z</time>
      </trkpt>
      <trkpt lat="47.26871" lon="-1.6321">
        <ele>18.6</ele>
        <time>2013-10-06T09:40:54Z</time>
      </trkpt>
      <trkpt lat="47.26868" lon="-1.63197">
        <ele>17.5</ele>
        <time>2013-10-06T09:41:09Z</time>
      </trkpt>
      <trkpt lat="47.26863" lon="-1.63208">
        <ele>17.9</ele>
        <time>2013-10-06T09:41:50Z</time>
      </trkpt>
      <trkpt lat="47.2687" lon="-1.63199">
        <ele>21.3</ele>
        <time>2013-10-06T09:42:09Z</time>
      </trkpt>
      <trkpt lat="47.26878" lon="-1.63194">
        <ele>14.2</ele>
        <time>2013-10-06T09:43:03Z</time>
      </trkpt>
      <trkpt lat="47.2687" lon="-1.63188">
        <ele>17.5</ele>
        <time>2013-10-06T09:51:37Z</time>
      </trkpt>
      <trkpt lat="47.26864" lon="-1.63177">
        <ele>19.1</ele>
        <time>2013-10-06T09:51:53Z</time>
      </trkpt>
      <trkpt lat="47.26859" lon="-1.63166">
        <ele>18.4</ele>
        <time>2013-10-06T09:51:57Z</time>
      </trkpt>
      <trkpt lat="47.26852" lon="-1.63155">
        <ele>17.5</ele>
        <time>2013-10-06T09:52:01Z</time>
      </trkpt>
      <trkpt lat="47.26845" lon="-1.63143">
        <ele>16.7</ele>
        <time>2013-10-06T09:52:05Z</time>
      </trkpt>
      <trkpt lat="47.2684" lon="-1.63131">
        <ele>15.7</ele>
        <time>2013-10-06T09:52:10Z</time>
      </trkpt>
      <trkpt lat="47.26835" lon="-1.63119">
        <ele>14.9</ele>
        <time>2013-10-06T09:52:16Z</time>
      </trkpt>
      <trkpt lat="47.26835" lon="-1.63105">
        <ele>13.8</ele>
        <time>2013-10-06T09:52:24Z</time>
      </trkpt>
      <trkpt lat="47.26838" lon="-1.63092">
        <ele>13.1</ele>
        <time>2013-10-06T09:52:46Z</time>
      </trkpt>
      <trkpt lat="47.26833" lon="-1.6308">
        <ele>12.7</ele>
        <time>2013-10-06T09:52:55Z</time>
      </trkpt>
      <trkpt lat="47.26824" lon="-1.63075">
        <ele>12.4</ele>
        <time>2013-10-06T09:53:04Z</time>
      </trkpt>
      <trkpt lat="47.26817" lon="-1.63065">
        <ele>13</ele>
        <time>2013-10-06T09:53:14Z</time>
      </trkpt>
      <trkpt lat="47.26807" lon="-1.63061">
        <ele>12.7</ele>
        <time>2013-10-06T09:53:20Z</time>
      </trkpt>
      <trkpt lat="47.26796" lon="-1.63061">
        <ele>13.6</ele>
        <time>2013-10-06T09:53:25Z</time>
      </trkpt>
      <trkpt lat="47.26788" lon="-1.63068">
        <ele>14.1</ele>
        <time>2013-10-06T09:53:29Z</time>
      </trkpt>
      <trkpt lat="47.2678" lon="-1.63073">
        <ele>14.4</ele>
        <time>2013-10-06T09:53:33Z</time>
      </trkpt>
      <trkpt lat="47.26769" lon="-1.63073">
        <ele>15.6</ele>
        <time>2013-10-06T09:53:37Z</time>
      </trkpt>
      <trkpt lat="47.2676" lon="-1.6307">
        <ele>16.7</ele>
        <time>2013-10-06T09:53:41Z</time>
      </trkpt>
      <trkpt lat="47.26752" lon="-1.63061">
        <ele>17</ele>
        <time>2013-10-06T09:53:50Z</time>
      </trkpt>
      <trkpt lat="47.26749" lon="-1.63046">
        <ele>18</ele>
        <time>2013-10-06T09:53:56Z</time>
      </trkpt>
      <trkpt lat="47.26747" lon="-1.63033">
        <ele>18.6</ele>
        <time>2013-10-06T09:54:00Z</time>
      </trkpt>
      <trkpt lat="47.26747" lon="-1.63016">
        <ele>19.2</ele>
        <time>2013-10-06T09:54:03Z</time>
      </trkpt>
      <trkpt lat="47.26749" lon="-1.63001">
        <ele>19.8</ele>
        <time>2013-10-06T09:54:05Z</time>
      </trkpt>
      <trkpt lat="47.26749" lon="-1.62987">
        <ele>20.2</ele>
        <time>2013-10-06T09:54:07Z</time>
      </trkpt>
      <trkpt lat="47.26747" lon="-1.62974">
        <ele>20.4</ele>
        <time>2013-10-06T09:54:10Z</time>
      </trkpt>
      <trkpt lat="47.26747" lon="-1.62959">
        <ele>20.8</ele>
        <time>2013-10-06T09:54:14Z</time>
      </trkpt>
      <trkpt lat="47.26748" lon="-1.62943">
        <ele>21.2</ele>
        <time>2013-10-06T09:54:16Z</time>
      </trkpt>
      <trkpt lat="47.26749" lon="-1.62929">
        <ele>21.9</ele>
        <time>2013-10-06T09:54:21Z</time>
      </trkpt>
      <trkpt lat="47.26753" lon="-1.62915">
        <ele>22.3</ele>
        <time>2013-10-06T09:54:26Z</time>
      </trkpt>
      <trkpt lat="47.26753" lon="-1.62901">
        <ele>24.4</ele>
        <time>2013-10-06T09:54:47Z</time>
      </trkpt>
      <trkpt lat="47.26754" lon="-1.62884">
        <ele>25.4</ele>
        <time>2013-10-06T09:54:53Z</time>
      </trkpt>
      <trkpt lat="47.26753" lon="-1.62865">
        <ele>25.6</ele>
        <time>2013-10-06T09:54:58Z</time>
      </trkpt>
      <trkpt lat="47.26749" lon="-1.62847">
        <ele>25.5</ele>
        <time>2013-10-06T09:55:01Z</time>
      </trkpt>
      <trkpt lat="47.26751" lon="-1.62826">
        <ele>25.3</ele>
        <time>2013-10-06T09:55:04Z</time>
      </trkpt>
      <trkpt lat="47.26752" lon="-1.62812">
        <ele>25.1</ele>
        <time>2013-10-06T09:55:06Z</time>
      </trkpt>
      <trkpt lat="47.26752" lon="-1.62798">
        <ele>24.9</ele>
        <time>2013-10-06T09:55:08Z</time>
      </trkpt>
      <trkpt lat="47.26752" lon="-1.62782">
        <ele>24.5</ele>
        <time>2013-10-06T09:55:11Z</time>
      </trkpt>
      <trkpt lat="47.26751" lon="-1.62767">
        <ele>24.3</ele>
        <time>2013-10-06T09:55:14Z</time>
      </trkpt>
      <trkpt lat="47.2675" lon="-1.62753">
        <ele>23.9</ele>
        <time>2013-10-06T09:55:16Z</time>
      </trkpt>
      <trkpt lat="47.2675" lon="-1.62732">
        <ele>23.4</ele>
        <time>2013-10-06T09:55:19Z</time>
      </trkpt>
      <trkpt lat="47.26746" lon="-1.62715">
        <ele>22.7</ele>
        <time>2013-10-06T09:55:22Z</time>
      </trkpt>
      <trkpt lat="47.26743" lon="-1.62698">
        <ele>21.4</ele>
        <time>2013-10-06T09:55:26Z</time>
      </trkpt>
      <trkpt lat="47.26743" lon="-1.62684">
        <ele>20.4</ele>
        <time>2013-10-06T09:55:29Z</time>
      </trkpt>
      <trkpt lat="47.26741" lon="-1.6267">
        <ele>19.5</ele>
        <time>2013-10-06T09:55:32Z</time>
      </trkpt>
      <trkpt lat="47.26741" lon="-1.62657">
        <ele>18.6</ele>
        <time>2013-10-06T09:55:35Z</time>
      </trkpt>
      <trkpt lat="47.26738" lon="-1.6264">
        <ele>17.3</ele>
        <time>2013-10-06T09:55:39Z</time>
      </trkpt>
      <trkpt lat="47.26735" lon="-1.62625">
        <ele>16.3</ele>
        <time>2013-10-06T09:55:42Z</time>
      </trkpt>
      <trkpt lat="47.26734" lon="-1.62609">
        <ele>15</ele>
        <time>2013-10-06T09:55:45Z</time>
      </trkpt>
      <trkpt lat="47.26736" lon="-1.62594">
        <ele>13.7</ele>
        <time>2013-10-06T09:55:49Z</time>
      </trkpt>
      <trkpt lat="47.2674" lon="-1.62581">
        <ele>13.4</ele>
        <time>2013-10-06T09:55:52Z</time>
      </trkpt>
      <trkpt lat="47.26739" lon="-1.62567">
        <ele>13.7</ele>
        <time>2013-10-06T09:55:56Z</time>
      </trkpt>
      <trkpt lat="47.26738" lon="-1.62553">
        <ele>14</ele>
        <time>2013-10-06T09:55:58Z</time>
      </trkpt>
      <trkpt lat="47.26738" lon="-1.62537">
        <ele>14.4</ele>
        <time>2013-10-06T09:56:00Z</time>
      </trkpt>
      <trkpt lat="47.26739" lon="-1.62519">
        <ele>14.9</ele>
        <time>2013-10-06T09:56:03Z</time>
      </trkpt>
      <trkpt lat="47.26742" lon="-1.62506">
        <ele>15.9</ele>
        <time>2013-10-06T09:56:15Z</time>
      </trkpt>
      <trkpt lat="47.2674" lon="-1.62492">
        <ele>16.9</ele>
        <time>2013-10-06T09:56:19Z</time>
      </trkpt>
      <trkpt lat="47.26741" lon="-1.62479">
        <ele>17.7</ele>
        <time>2013-10-06T09:56:22Z</time>
      </trkpt>
      <trkpt lat="47.26743" lon="-1.62462">
        <ele>18.4</ele>
        <time>2013-10-06T09:56:26Z</time>
      </trkpt>
      <trkpt lat="47.26746" lon="-1.62447">
        <ele>18.8</ele>
        <time>2013-10-06T09:56:29Z</time>
      </trkpt>
      <trkpt lat="47.26749" lon="-1.62432">
        <ele>19.4</ele>
        <time>2013-10-06T09:56:36Z</time>
      </trkpt>
      <trkpt lat="47.2675" lon="-1.62419">
        <ele>20.3</ele>
        <time>2013-10-06T09:56:40Z</time>
      </trkpt>
      <trkpt lat="47.26748" lon="-1.62405">
        <ele>20.6</ele>
        <time>2013-10-06T09:56:45Z</time>
      </trkpt>
      <trkpt lat="47.26746" lon="-1.62389">
        <ele>20.9</ele>
        <time>2013-10-06T09:56:50Z</time>
      </trkpt>
      <trkpt lat="47.26745" lon="-1.62376">
        <ele>20.7</ele>
        <time>2013-10-06T09:57:03Z</time>
      </trkpt>
      <trkpt lat="47.26743" lon="-1.62361">
        <ele>20.7</ele>
        <time>2013-10-06T09:57:11Z</time>
      </trkpt>
      <trkpt lat="47.26745" lon="-1.62347">
        <ele>20.5</ele>
        <time>2013-10-06T09:57:16Z</time>
      </trkpt>
      <trkpt lat="47.26746" lon="-1.62333">
        <ele>19.8</ele>
        <time>2013-10-06T09:57:23Z</time>
      </trkpt>
      <trkpt lat="47.2675" lon="-1.6232">
        <ele>18</ele>
        <time>2013-10-06T09:57:37Z</time>
      </trkpt>
      <trkpt lat="47.26753" lon="-1.62332">
        <ele>17</ele>
        <time>2013-10-06T09:58:45Z</time>
      </trkpt>
      <trkpt lat="47.26761" lon="-1.62325">
        <ele>18.9</ele>
        <time>2013-10-06T09:59:58Z</time>
      </trkpt>
      <trkpt lat="47.2677" lon="-1.62319">
        <ele>19.1</ele>
        <time>2013-10-06T10:00:18Z</time>
      </trkpt>
      <trkpt lat="47.26764" lon="-1.62309">
        <ele>22.3</ele>
        <time>2013-10-06T10:00:40Z</time>
      </trkpt>
      <trkpt lat="47.26766" lon="-1.62294">
        <ele>24.1</ele>
        <time>2013-10-06T10:00:45Z</time>
      </trkpt>
      <trkpt lat="47.26772" lon="-1.62283">
        <ele>24</ele>
        <time>2013-10-06T10:00:51Z</time>
      </trkpt>
      <trkpt lat="47.26777" lon="-1.62269">
        <ele>23.2</ele>
        <time>2013-10-06T10:00:59Z</time>
      </trkpt>
      <trkpt lat="47.26783" lon="-1.62257">
        <ele>21.6</ele>
        <time>2013-10-06T10:01:04Z</time>
      </trkpt>
      <trkpt lat="47.2679" lon="-1.62247">
        <ele>20.6</ele>
        <time>2013-10-06T10:01:07Z</time>
      </trkpt>
      <trkpt lat="47.26798" lon="-1.62238">
        <ele>19.4</ele>
        <time>2013-10-06T10:01:11Z</time>
      </trkpt>
      <trkpt lat="47.26807" lon="-1.6223">
        <ele>18</ele>
        <time>2013-10-06T10:01:17Z</time>
      </trkpt>
      <trkpt lat="47.26817" lon="-1.62225">
        <ele>17.5</ele>
        <time>2013-10-06T10:01:21Z</time>
      </trkpt>
      <trkpt lat="47.26827" lon="-1.62219">
        <ele>17.2</ele>
        <time>2013-10-06T10:01:26Z</time>
      </trkpt>
      <trkpt lat="47.2683" lon="-1.62205">
        <ele>17.2</ele>
        <time>2013-10-06T10:01:31Z</time>
      </trkpt>
      <trkpt lat="47.2683" lon="-1.6219">
        <ele>17.3</ele>
        <time>2013-10-06T10:01:36Z</time>
      </trkpt>
      <trkpt lat="47.2683" lon="-1.62175">
        <ele>17.2</ele>
        <time>2013-10-06T10:01:40Z</time>
      </trkpt>
      <trkpt lat="47.26829" lon="-1.62161">
        <ele>17.1</ele>
        <time>2013-10-06T10:01:44Z</time>
      </trkpt>
      <trkpt lat="47.26828" lon="-1.62145">
        <ele>16.7</ele>
        <time>2013-10-06T10:01:49Z</time>
      </trkpt>
      <trkpt lat="47.26836" lon="-1.62138">
        <ele>15.7</ele>
        <time>2013-10-06T10:02:36Z</time>
      </trkpt>
      <trkpt lat="47.26827" lon="-1.62136">
        <ele>15.9</ele>
        <time>2013-10-06T10:04:02Z</time>
      </trkpt>
      <trkpt lat="47.26825" lon="-1.62122">
        <ele>13.2</ele>
        <time>2013-10-06T10:04:25Z</time>
      </trkpt>
      <trkpt lat="47.26831" lon="-1.6211">
        <ele>13</ele>
        <time>2013-10-06T10:04:33Z</time>
      </trkpt>
      <trkpt lat="47.26843" lon="-1.62106">
        <ele>13.6</ele>
        <time>2013-10-06T10:04:37Z</time>
      </trkpt>
      <trkpt lat="47.26853" lon="-1.62103">
        <ele>14.3</ele>
        <time>2013-10-06T10:04:40Z</time>
      </trkpt>
      <trkpt lat="47.26862" lon="-1.62102">
        <ele>15.1</ele>
        <time>2013-10-06T10:04:45Z</time>
      </trkpt>
      <trkpt lat="47.26871" lon="-1.621">
        <ele>15.8</ele>
        <time>2013-10-06T10:04:52Z</time>
      </trkpt>
      <trkpt lat="47.26878" lon="-1.62089">
        <ele>16.1</ele>
        <time>2013-10-06T10:04:57Z</time>
      </trkpt>
      <trkpt lat="47.26885" lon="-1.6208">
        <ele>16.6</ele>
        <time>2013-10-06T10:05:03Z</time>
      </trkpt>
      <trkpt lat="47.26882" lon="-1.62067">
        <ele>17.3</ele>
        <time>2013-10-06T10:05:10Z</time>
      </trkpt>
      <trkpt lat="47.2688" lon="-1.62051">
        <ele>18.2</ele>
        <time>2013-10-06T10:05:17Z</time>
      </trkpt>
      <trkpt lat="47.26888" lon="-1.62041">
        <ele>19.5</ele>
        <time>2013-10-06T10:05:23Z</time>
      </trkpt>
      <trkpt lat="47.26895" lon="-1.62032">
        <ele>20.6</ele>
        <time>2013-10-06T10:05:28Z</time>
      </trkpt>
      <trkpt lat="47.26903" lon="-1.62024">
        <ele>21.9</ele>
        <time>2013-10-06T10:05:34Z</time>
      </trkpt>
      <trkpt lat="47.26909" lon="-1.62013">
        <ele>23.1</ele>
        <time>2013-10-06T10:05:39Z</time>
      </trkpt>
      <trkpt lat="47.26914" lon="-1.62001">
        <ele>24.3</ele>
        <time>2013-10-06T10:05:44Z</time>
      </trkpt>
      <trkpt lat="47.26922" lon="-1.61994">
        <ele>25.4</ele>
        <time>2013-10-06T10:05:48Z</time>
      </trkpt>
      <trkpt lat="47.26928" lon="-1.61984">
        <ele>26.5</ele>
        <time>2013-10-06T10:05:52Z</time>
      </trkpt>
      <trkpt lat="47.26931" lon="-1.6197">
        <ele>27.6</ele>
        <time>2013-10-06T10:05:58Z</time>
      </trkpt>
      <trkpt lat="47.26927" lon="-1.61957">
        <ele>28.8</ele>
        <time>2013-10-06T10:06:11Z</time>
      </trkpt>
      <trkpt lat="47.26918" lon="-1.61953">
        <ele>30</ele>
        <time>2013-10-06T10:06:18Z</time>
      </trkpt>
      <trkpt lat="47.26908" lon="-1.61952">
        <ele>32.2</ele>
        <time>2013-10-06T10:06:28Z</time>
      </trkpt>
      <trkpt lat="47.26899" lon="-1.61952">
        <ele>33.3</ele>
        <time>2013-10-06T10:06:31Z</time>
      </trkpt>
      <trkpt lat="47.26889" lon="-1.61948">
        <ele>35.3</ele>
        <time>2013-10-06T10:06:38Z</time>
      </trkpt>
      <trkpt lat="47.26877" lon="-1.61946">
        <ele>36.4</ele>
        <time>2013-10-06T10:06:43Z</time>
      </trkpt>
      <trkpt lat="47.26867" lon="-1.61947">
        <ele>37.2</ele>
        <time>2013-10-06T10:06:48Z</time>
      </trkpt>
      <trkpt lat="47.26858" lon="-1.61948">
        <ele>37.8</ele>
        <time>2013-10-06T10:06:53Z</time>
      </trkpt>
      <trkpt lat="47.26858" lon="-1.61932">
        <ele>37.9</ele>
        <time>2013-10-06T10:06:58Z</time>
      </trkpt>
      <trkpt lat="47.26861" lon="-1.61919">
        <ele>38.1</ele>
        <time>2013-10-06T10:07:03Z</time>
      </trkpt>
      <trkpt lat="47.26862" lon="-1.61904">
        <ele>38.1</ele>
        <time>2013-10-06T10:07:08Z</time>
      </trkpt>
      <trkpt lat="47.26863" lon="-1.61889">
        <ele>38.5</ele>
        <time>2013-10-06T10:07:13Z</time>
      </trkpt>
      <trkpt lat="47.26863" lon="-1.61875">
        <ele>38.9</ele>
        <time>2013-10-06T10:07:18Z</time>
      </trkpt>
      <trkpt lat="47.26868" lon="-1.6186">
        <ele>39.1</ele>
        <time>2013-10-06T10:07:23Z</time>
      </trkpt>
      <trkpt lat="47.26871" lon="-1.61847">
        <ele>39.3</ele>
        <time>2013-10-06T10:07:27Z</time>
      </trkpt>
      <trkpt lat="47.26876" lon="-1.61833">
        <ele>39.9</ele>
        <time>2013-10-06T10:07:33Z</time>
      </trkpt>
      <trkpt lat="47.2688" lon="-1.61819">
        <ele>41.3</ele>
        <time>2013-10-06T10:07:41Z</time>
      </trkpt>
      <trkpt lat="47.26882" lon="-1.61806">
        <ele>43.4</ele>
        <time>2013-10-06T10:07:51Z</time>
      </trkpt>
      <trkpt lat="47.26886" lon="-1.61792">
        <ele>44.7</ele>
        <time>2013-10-06T10:07:59Z</time>
      </trkpt>
      <trkpt lat="47.26884" lon="-1.61779">
        <ele>45.2</ele>
        <time>2013-10-06T10:08:06Z</time>
      </trkpt>
      <trkpt lat="47.26879" lon="-1.61767">
        <ele>45.1</ele>
        <time>2013-10-06T10:08:24Z</time>
      </trkpt>
      <trkpt lat="47.26868" lon="-1.61772">
        <ele>44.7</ele>
        <time>2013-10-06T10:08:28Z</time>
      </trkpt>
      <trkpt lat="47.26858" lon="-1.61772">
        <ele>44.2</ele>
        <time>2013-10-06T10:08:34Z</time>
      </trkpt>
      <trkpt lat="47.26847" lon="-1.61772">
        <ele>44.2</ele>
        <time>2013-10-06T10:08:38Z</time>
      </trkpt>
      <trkpt lat="47.26837" lon="-1.61768">
        <ele>44.5</ele>
        <time>2013-10-06T10:08:42Z</time>
      </trkpt>
      <trkpt lat="47.2683" lon="-1.61757">
        <ele>45</ele>
        <time>2013-10-06T10:08:46Z</time>
      </trkpt>
      <trkpt lat="47.26825" lon="-1.61743">
        <ele>45.3</ele>
        <time>2013-10-06T10:08:51Z</time>
      </trkpt>
      <trkpt lat="47.26818" lon="-1.61732">
        <ele>45.4</ele>
        <time>2013-10-06T10:08:56Z</time>
      </trkpt>
      <trkpt lat="47.26809" lon="-1.61726">
        <ele>45.5</ele>
        <time>2013-10-06T10:09:00Z</time>
      </trkpt>
      <trkpt lat="47.26801" lon="-1.61732">
        <ele>45.4</ele>
        <time>2013-10-06T10:09:07Z</time>
      </trkpt>
      <trkpt lat="47.26792" lon="-1.61735">
        <ele>45.5</ele>
        <time>2013-10-06T10:09:13Z</time>
      </trkpt>
      <trkpt lat="47.26784" lon="-1.61726">
        <ele>46.1</ele>
        <time>2013-10-06T10:09:24Z</time>
      </trkpt>
      <trkpt lat="47.26777" lon="-1.61714">
        <ele>47.2</ele>
        <time>2013-10-06T10:09:29Z</time>
      </trkpt>
      <trkpt lat="47.26766" lon="-1.61709">
        <ele>47.6</ele>
        <time>2013-10-06T10:09:33Z</time>
      </trkpt>
      <trkpt lat="47.26755" lon="-1.61704">
        <ele>47.3</ele>
        <time>2013-10-06T10:09:37Z</time>
      </trkpt>
      <trkpt lat="47.26745" lon="-1.61703">
        <ele>46.8</ele>
        <time>2013-10-06T10:09:40Z</time>
      </trkpt>
      <trkpt lat="47.26733" lon="-1.61703">
        <ele>46</ele>
        <time>2013-10-06T10:09:43Z</time>
      </trkpt>
      <trkpt lat="47.26723" lon="-1.61697">
        <ele>45</ele>
        <time>2013-10-06T10:09:46Z</time>
      </trkpt>
      <trkpt lat="47.26714" lon="-1.61691">
        <ele>43.9</ele>
        <time>2013-10-06T10:09:49Z</time>
      </trkpt>
      <trkpt lat="47.26704" lon="-1.61689">
        <ele>43.2</ele>
        <time>2013-10-06T10:09:52Z</time>
      </trkpt>
      <trkpt lat="47.26693" lon="-1.61689">
        <ele>42.9</ele>
        <time>2013-10-06T10:09:56Z</time>
      </trkpt>
      <trkpt lat="47.26682" lon="-1.61689">
        <ele>43.3</ele>
        <time>2013-10-06T10:10:00Z</time>
      </trkpt>
      <trkpt lat="47.26673" lon="-1.61684">
        <ele>43.7</ele>
        <time>2013-10-06T10:10:05Z</time>
      </trkpt>
      <trkpt lat="47.26668" lon="-1.61669">
        <ele>44</ele>
        <time>2013-10-06T10:10:11Z</time>
      </trkpt>
      <trkpt lat="47.26666" lon="-1.61655">
        <ele>43.5</ele>
        <time>2013-10-06T10:10:17Z</time>
      </trkpt>
      <trkpt lat="47.2666" lon="-1.61645">
        <ele>43.5</ele>
        <time>2013-10-06T10:10:21Z</time>
      </trkpt>
      <trkpt lat="47.26656" lon="-1.6163">
        <ele>43.4</ele>
        <time>2013-10-06T10:10:24Z</time>
      </trkpt>
      <trkpt lat="47.26652" lon="-1.61617">
        <ele>43.6</ele>
        <time>2013-10-06T10:10:27Z</time>
      </trkpt>
      <trkpt lat="47.26647" lon="-1.61605">
        <ele>44.4</ele>
        <time>2013-10-06T10:10:40Z</time>
      </trkpt>
      <trkpt lat="47.26642" lon="-1.61591">
        <ele>45.1</ele>
        <time>2013-10-06T10:10:45Z</time>
      </trkpt>
      <trkpt lat="47.26641" lon="-1.61575">
        <ele>46.2</ele>
        <time>2013-10-06T10:10:50Z</time>
      </trkpt>
      <trkpt lat="47.26641" lon="-1.6156">
        <ele>46.6</ele>
        <time>2013-10-06T10:10:53Z</time>
      </trkpt>
      <trkpt lat="47.26637" lon="-1.61548">
        <ele>46.9</ele>
        <time>2013-10-06T10:10:58Z</time>
      </trkpt>
      <trkpt lat="47.26627" lon="-1.61547">
        <ele>46.8</ele>
        <time>2013-10-06T10:11:03Z</time>
      </trkpt>
      <trkpt lat="47.26616" lon="-1.61548">
        <ele>45.9</ele>
        <time>2013-10-06T10:11:07Z</time>
      </trkpt>
      <trkpt lat="47.26605" lon="-1.6155">
        <ele>45.3</ele>
        <time>2013-10-06T10:11:10Z</time>
      </trkpt>
      <trkpt lat="47.26595" lon="-1.61548">
        <ele>44.4</ele>
        <time>2013-10-06T10:11:13Z</time>
      </trkpt>
      <trkpt lat="47.26586" lon="-1.61547">
        <ele>43</ele>
        <time>2013-10-06T10:11:18Z</time>
      </trkpt>
      <trkpt lat="47.26576" lon="-1.61547">
        <ele>42.1</ele>
        <time>2013-10-06T10:11:25Z</time>
      </trkpt>
      <trkpt lat="47.26569" lon="-1.61539">
        <ele>41.6</ele>
        <time>2013-10-06T10:11:35Z</time>
      </trkpt>
      <trkpt lat="47.2656" lon="-1.6153">
        <ele>40.9</ele>
        <time>2013-10-06T10:11:45Z</time>
      </trkpt>
      <trkpt lat="47.26552" lon="-1.61522">
        <ele>40.9</ele>
        <time>2013-10-06T10:12:01Z</time>
      </trkpt>
      <trkpt lat="47.26547" lon="-1.61511">
        <ele>42.1</ele>
        <time>2013-10-06T10:13:15Z</time>
      </trkpt>
      <trkpt lat="47.26545" lon="-1.61497">
        <ele>42.6</ele>
        <time>2013-10-06T10:13:21Z</time>
      </trkpt>
      <trkpt lat="47.26539" lon="-1.61487">
        <ele>43</ele>
        <time>2013-10-06T10:13:38Z</time>
      </trkpt>
      <trkpt lat="47.2653" lon="-1.61488">
        <ele>36.8</ele>
        <time>2013-10-06T10:14:43Z</time>
      </trkpt>
      <trkpt lat="47.2652" lon="-1.61485">
        <ele>34.8</ele>
        <time>2013-10-06T10:14:50Z</time>
      </trkpt>
      <trkpt lat="47.26509" lon="-1.6148">
        <ele>33.4</ele>
        <time>2013-10-06T10:14:55Z</time>
      </trkpt>
      <trkpt lat="47.26501" lon="-1.61474">
        <ele>32.7</ele>
        <time>2013-10-06T10:14:58Z</time>
      </trkpt>
      <trkpt lat="47.26493" lon="-1.61467">
        <ele>29.3</ele>
        <time>2013-10-06T10:15:00Z</time>
      </trkpt>
      <trkpt lat="47.26482" lon="-1.61465">
        <ele>28.3</ele>
        <time>2013-10-06T10:15:03Z</time>
      </trkpt>
      <trkpt lat="47.26471" lon="-1.61465">
        <ele>26.4</ele>
        <time>2013-10-06T10:15:08Z</time>
      </trkpt>
      <trkpt lat="47.2646" lon="-1.61464">
        <ele>24</ele>
        <time>2013-10-06T10:15:13Z</time>
      </trkpt>
      <trkpt lat="47.26452" lon="-1.61458">
        <ele>22.1</ele>
        <time>2013-10-06T10:15:18Z</time>
      </trkpt>
      <trkpt lat="47.26441" lon="-1.61456">
        <ele>19.8</ele>
        <time>2013-10-06T10:15:23Z</time>
      </trkpt>
      <trkpt lat="47.2643" lon="-1.61453">
        <ele>17.2</ele>
        <time>2013-10-06T10:15:27Z</time>
      </trkpt>
      <trkpt lat="47.26421" lon="-1.61439">
        <ele>14.7</ele>
        <time>2013-10-06T10:15:31Z</time>
      </trkpt>
      <trkpt lat="47.26412" lon="-1.61428">
        <ele>13.7</ele>
        <time>2013-10-06T10:15:33Z</time>
      </trkpt>
      <trkpt lat="47.264" lon="-1.61418">
        <ele>13</ele>
        <time>2013-10-06T10:15:35Z</time>
      </trkpt>
      <trkpt lat="47.26389" lon="-1.61407">
        <ele>12.6</ele>
        <time>2013-10-06T10:15:37Z</time>
      </trkpt>
      <trkpt lat="47.26382" lon="-1.61399">
        <ele>12.4</ele>
        <time>2013-10-06T10:15:39Z</time>
      </trkpt>
      <trkpt lat="47.26374" lon="-1.61388">
        <ele>12</ele>
        <time>2013-10-06T10:15:42Z</time>
      </trkpt>
      <trkpt lat="47.26368" lon="-1.61378">
        <ele>12.4</ele>
        <time>2013-10-06T10:18:13Z</time>
      </trkpt>
      <trkpt lat="47.26365" lon="-1.61364">
        <ele>10.8</ele>
        <time>2013-10-06T10:18:57Z</time>
      </trkpt>
      <trkpt lat="47.26365" lon="-1.6135">
        <ele>10.6</ele>
        <time>2013-10-06T10:19:03Z</time>
      </trkpt>
      <trkpt lat="47.26368" lon="-1.61334">
        <ele>10.8</ele>
        <time>2013-10-06T10:19:08Z</time>
      </trkpt>
      <trkpt lat="47.26371" lon="-1.61321">
        <ele>11</ele>
        <time>2013-10-06T10:19:12Z</time>
      </trkpt>
      <trkpt lat="47.26374" lon="-1.61308">
        <ele>11.3</ele>
        <time>2013-10-06T10:19:17Z</time>
      </trkpt>
      <trkpt lat="47.26377" lon="-1.61294">
        <ele>11.7</ele>
        <time>2013-10-06T10:19:22Z</time>
      </trkpt>
      <trkpt lat="47.26381" lon="-1.6128">
        <ele>12</ele>
        <time>2013-10-06T10:19:27Z</time>
      </trkpt>
      <trkpt lat="47.26385" lon="-1.61266">
        <ele>12.5</ele>
        <time>2013-10-06T10:19:31Z</time>
      </trkpt>
      <trkpt lat="47.26393" lon="-1.61254">
        <ele>12.6</ele>
        <time>2013-10-06T10:19:34Z</time>
      </trkpt>
      <trkpt lat="47.26403" lon="-1.61242">
        <ele>12.3</ele>
        <time>2013-10-06T10:19:37Z</time>
      </trkpt>
      <trkpt lat="47.26411" lon="-1.61234">
        <ele>12</ele>
        <time>2013-10-06T10:19:39Z</time>
      </trkpt>
      <trkpt lat="47.26419" lon="-1.61228">
        <ele>11.1</ele>
        <time>2013-10-06T10:19:41Z</time>
      </trkpt>
      <trkpt lat="47.26429" lon="-1.61217">
        <ele>9.6</ele>
        <time>2013-10-06T10:19:44Z</time>
      </trkpt>
      <trkpt lat="47.26437" lon="-1.61205">
        <ele>9.5</ele>
        <time>2013-10-06T10:19:47Z</time>
      </trkpt>
      <trkpt lat="47.26443" lon="-1.61195">
        <ele>9.5</ele>
        <time>2013-10-06T10:19:50Z</time>
      </trkpt>
      <trkpt lat="47.26449" lon="-1.61182">
        <ele>9.8</ele>
        <time>2013-10-06T10:19:53Z</time>
      </trkpt>
      <trkpt lat="47.26454" lon="-1.61168">
        <ele>10.1</ele>
        <time>2013-10-06T10:19:56Z</time>
      </trkpt>
      <trkpt lat="47.26459" lon="-1.61153">
        <ele>10.4</ele>
        <time>2013-10-06T10:20:00Z</time>
      </trkpt>
      <trkpt lat="47.26464" lon="-1.6114">
        <ele>10.6</ele>
        <time>2013-10-06T10:20:03Z</time>
      </trkpt>
      <trkpt lat="47.26469" lon="-1.61125">
        <ele>10.9</ele>
        <time>2013-10-06T10:20:07Z</time>
      </trkpt>
      <trkpt lat="47.26473" lon="-1.6111">
        <ele>11.1</ele>
        <time>2013-10-06T10:20:11Z</time>
      </trkpt>
      <trkpt lat="47.26475" lon="-1.61094">
        <ele>11.5</ele>
        <time>2013-10-06T10:20:16Z</time>
      </trkpt>
      <trkpt lat="47.26475" lon="-1.6108">
        <ele>11.6</ele>
        <time>2013-10-06T10:20:19Z</time>
      </trkpt>
      <trkpt lat="47.26475" lon="-1.61066">
        <ele>11.7</ele>
        <time>2013-10-06T10:20:22Z</time>
      </trkpt>
      <trkpt lat="47.26473" lon="-1.61052">
        <ele>11.7</ele>
        <time>2013-10-06T10:20:25Z</time>
      </trkpt>
      <trkpt lat="47.26472" lon="-1.61038">
        <ele>11.9</ele>
        <time>2013-10-06T10:20:28Z</time>
      </trkpt>
      <trkpt lat="47.26471" lon="-1.61023">
        <ele>12.1</ele>
        <time>2013-10-06T10:20:31Z</time>
      </trkpt>
      <trkpt lat="47.2647" lon="-1.6101">
        <ele>12.3</ele>
        <time>2013-10-06T10:20:34Z</time>
      </trkpt>
      <trkpt lat="47.26468" lon="-1.60993">
        <ele>12.5</ele>
        <time>2013-10-06T10:20:38Z</time>
      </trkpt>
      <trkpt lat="47.26464" lon="-1.60976">
        <ele>12.6</ele>
        <time>2013-10-06T10:20:42Z</time>
      </trkpt>
      <trkpt lat="47.2646" lon="-1.60963">
        <ele>12.4</ele>
        <time>2013-10-06T10:20:45Z</time>
      </trkpt>
      <trkpt lat="47.26453" lon="-1.6095">
        <ele>12.3</ele>
        <time>2013-10-06T10:20:49Z</time>
      </trkpt>
      <trkpt lat="47.26447" lon="-1.6094">
        <ele>12.1</ele>
        <time>2013-10-06T10:20:52Z</time>
      </trkpt>
      <trkpt lat="47.26441" lon="-1.60928">
        <ele>11.9</ele>
        <time>2013-10-06T10:20:55Z</time>
      </trkpt>
      <trkpt lat="47.26435" lon="-1.60917">
        <ele>11.6</ele>
        <time>2013-10-06T10:20:58Z</time>
      </trkpt>
      <trkpt lat="47.26428" lon="-1.60905">
        <ele>11</ele>
        <time>2013-10-06T10:21:02Z</time>
      </trkpt>
      <trkpt lat="47.26421" lon="-1.60892">
        <ele>10.4</ele>
        <time>2013-10-06T10:21:06Z</time>
      </trkpt>
      <trkpt lat="47.26415" lon="-1.6088">
        <ele>10.1</ele>
        <time>2013-10-06T10:21:09Z</time>
      </trkpt>
      <trkpt lat="47.26409" lon="-1.60868">
        <ele>9.8</ele>
        <time>2013-10-06T10:21:12Z</time>
      </trkpt>
      <trkpt lat="47.26403" lon="-1.60857">
        <ele>9.7</ele>
        <time>2013-10-06T10:21:16Z</time>
      </trkpt>
      <trkpt lat="47.26397" lon="-1.60846">
        <ele>9.8</ele>
        <time>2013-10-06T10:21:20Z</time>
      </trkpt>
      <trkpt lat="47.26393" lon="-1.60832">
        <ele>9.7</ele>
        <time>2013-10-06T10:21:24Z</time>
      </trkpt>
      <trkpt lat="47.2639" lon="-1.6082">
        <ele>9.7</ele>
        <time>2013-10-06T10:21:27Z</time>
      </trkpt>
      <trkpt lat="47.26384" lon="-1.60806">
        <ele>9.9</ele>
        <time>2013-10-06T10:21:31Z</time>
      </trkpt>
      <trkpt lat="47.26374" lon="-1.60806">
        <ele>9.9</ele>
        <time>2013-10-06T10:21:35Z</time>
      </trkpt>
      <trkpt lat="47.26365" lon="-1.60816">
        <ele>10</ele>
        <time>2013-10-06T10:21:39Z</time>
      </trkpt>
      <trkpt lat="47.26356" lon="-1.60822">
        <ele>9.9</ele>
        <time>2013-10-06T10:21:43Z</time>
      </trkpt>
      <trkpt lat="47.26347" lon="-1.6083">
        <ele>9.5</ele>
        <time>2013-10-06T10:21:47Z</time>
      </trkpt>
      <trkpt lat="47.2634" lon="-1.60839">
        <ele>9.4</ele>
        <time>2013-10-06T10:21:51Z</time>
      </trkpt>
      <trkpt lat="47.26335" lon="-1.6085">
        <ele>9.7</ele>
        <time>2013-10-06T10:21:55Z</time>
      </trkpt>
      <trkpt lat="47.26329" lon="-1.60861">
        <ele>9.8</ele>
        <time>2013-10-06T10:21:59Z</time>
      </trkpt>
      <trkpt lat="47.2632" lon="-1.60863">
        <ele>10.1</ele>
        <time>2013-10-06T10:22:30Z</time>
      </trkpt>
      <trkpt lat="47.26327" lon="-1.60856">
        <ele>10.2</ele>
        <time>2013-10-06T10:23:26Z</time>
      </trkpt>
      <trkpt lat="47.26328" lon="-1.60842">
        <ele>11.9</ele>
        <time>2013-10-06T10:24:26Z</time>
      </trkpt>
      <trkpt lat="47.26333" lon="-1.60827">
        <ele>12.4</ele>
        <time>2013-10-06T10:24:33Z</time>
      </trkpt>
      <trkpt lat="47.26336" lon="-1.60811">
        <ele>12.6</ele>
        <time>2013-10-06T10:24:38Z</time>
      </trkpt>
      <trkpt lat="47.26339" lon="-1.60798">
        <ele>12.5</ele>
        <time>2013-10-06T10:24:42Z</time>
      </trkpt>
      <trkpt lat="47.26343" lon="-1.60783">
        <ele>12.2</ele>
        <time>2013-10-06T10:24:45Z</time>
      </trkpt>
      <trkpt lat="47.26347" lon="-1.60766">
        <ele>12.2</ele>
        <time>2013-10-06T10:24:48Z</time>
      </trkpt>
      <trkpt lat="47.26351" lon="-1.60749">
        <ele>12.4</ele>
        <time>2013-10-06T10:24:51Z</time>
      </trkpt>
      <trkpt lat="47.26354" lon="-1.60732">
        <ele>13.2</ele>
        <time>2013-10-06T10:24:54Z</time>
      </trkpt>
      <trkpt lat="47.26358" lon="-1.60716">
        <ele>13.6</ele>
        <time>2013-10-06T10:24:57Z</time>
      </trkpt>
      <trkpt lat="47.26362" lon="-1.607">
        <ele>15.7</ele>
        <time>2013-10-06T10:25:00Z</time>
      </trkpt>
      <trkpt lat="47.26359" lon="-1.60687">
        <ele>15.8</ele>
        <time>2013-10-06T10:25:03Z</time>
      </trkpt>
      <trkpt lat="47.26353" lon="-1.60674">
        <ele>15.7</ele>
        <time>2013-10-06T10:25:06Z</time>
      </trkpt>
      <trkpt lat="47.26345" lon="-1.60662">
        <ele>15.3</ele>
        <time>2013-10-06T10:25:09Z</time>
      </trkpt>
      <trkpt lat="47.26336" lon="-1.60651">
        <ele>15.4</ele>
        <time>2013-10-06T10:25:12Z</time>
      </trkpt>
      <trkpt lat="47.26326" lon="-1.60651">
        <ele>15.3</ele>
        <time>2013-10-06T10:25:14Z</time>
      </trkpt>
      <trkpt lat="47.26315" lon="-1.60653">
        <ele>15</ele>
        <time>2013-10-06T10:25:17Z</time>
      </trkpt>
      <trkpt lat="47.26309" lon="-1.60642">
        <ele>14.7</ele>
        <time>2013-10-06T10:25:20Z</time>
      </trkpt>
      <trkpt lat="47.26303" lon="-1.60627">
        <ele>14.4</ele>
        <time>2013-10-06T10:25:23Z</time>
      </trkpt>
      <trkpt lat="47.26295" lon="-1.60614">
        <ele>14.3</ele>
        <time>2013-10-06T10:25:26Z</time>
      </trkpt>
      <trkpt lat="47.26285" lon="-1.60611">
        <ele>14.2</ele>
        <time>2013-10-06T10:25:29Z</time>
      </trkpt>
      <trkpt lat="47.26274" lon="-1.6061">
        <ele>13.7</ele>
        <time>2013-10-06T10:25:32Z</time>
      </trkpt>
      <trkpt lat="47.26271" lon="-1.60624">
        <ele>12.9</ele>
        <time>2013-10-06T10:25:39Z</time>
      </trkpt>
      <trkpt lat="47.26269" lon="-1.60641">
        <ele>12.5</ele>
        <time>2013-10-06T10:25:42Z</time>
      </trkpt>
      <trkpt lat="47.26266" lon="-1.60654">
        <ele>12.1</ele>
        <time>2013-10-06T10:25:44Z</time>
      </trkpt>
      <trkpt lat="47.26262" lon="-1.60673">
        <ele>11.7</ele>
        <time>2013-10-06T10:25:46Z</time>
      </trkpt>
      <trkpt lat="47.26261" lon="-1.60686">
        <ele>11.4</ele>
        <time>2013-10-06T10:25:48Z</time>
      </trkpt>
      <trkpt lat="47.26255" lon="-1.60701">
        <ele>11</ele>
        <time>2013-10-06T10:25:51Z</time>
      </trkpt>
      <trkpt lat="47.26247" lon="-1.60715">
        <ele>10.7</ele>
        <time>2013-10-06T10:25:54Z</time>
      </trkpt>
      <trkpt lat="47.2624" lon="-1.60727">
        <ele>10.5</ele>
        <time>2013-10-06T10:25:57Z</time>
      </trkpt>
      <trkpt lat="47.26229" lon="-1.6073">
        <ele>10.5</ele>
        <time>2013-10-06T10:26:00Z</time>
      </trkpt>
      <trkpt lat="47.26221" lon="-1.60724">
        <ele>11.2</ele>
        <time>2013-10-06T10:26:02Z</time>
      </trkpt>
      <trkpt lat="47.26207" lon="-1.60717">
        <ele>12.7</ele>
        <time>2013-10-06T10:26:05Z</time>
      </trkpt>
      <trkpt lat="47.26197" lon="-1.60712">
        <ele>13.9</ele>
        <time>2013-10-06T10:26:07Z</time>
      </trkpt>
      <trkpt lat="47.26185" lon="-1.60716">
        <ele>13.9</ele>
        <time>2013-10-06T10:26:10Z</time>
      </trkpt>
      <trkpt lat="47.26176" lon="-1.60719">
        <ele>12.8</ele>
        <time>2013-10-06T10:26:12Z</time>
      </trkpt>
      <trkpt lat="47.26166" lon="-1.60722">
        <ele>12.6</ele>
        <time>2013-10-06T10:26:14Z</time>
      </trkpt>
      <trkpt lat="47.26155" lon="-1.60722">
        <ele>12.6</ele>
        <time>2013-10-06T10:26:17Z</time>
      </trkpt>
      <trkpt lat="47.26145" lon="-1.60716">
        <ele>12.3</ele>
        <time>2013-10-06T10:26:19Z</time>
      </trkpt>
      <trkpt lat="47.26136" lon="-1.60714">
        <ele>12.5</ele>
        <time>2013-10-06T10:26:21Z</time>
      </trkpt>
      <trkpt lat="47.26127" lon="-1.60712">
        <ele>12.6</ele>
        <time>2013-10-06T10:26:24Z</time>
      </trkpt>
      <trkpt lat="47.26116" lon="-1.60709">
        <ele>12.6</ele>
        <time>2013-10-06T10:26:29Z</time>
      </trkpt>
      <trkpt lat="47.26108" lon="-1.60704">
        <ele>12.8</ele>
        <time>2013-10-06T10:26:34Z</time>
      </trkpt>
      <trkpt lat="47.26097" lon="-1.60707">
        <ele>13.7</ele>
        <time>2013-10-06T10:26:41Z</time>
      </trkpt>
      <trkpt lat="47.26088" lon="-1.60711">
        <ele>14.1</ele>
        <time>2013-10-06T10:26:47Z</time>
      </trkpt>
      <trkpt lat="47.2608" lon="-1.60706">
        <ele>15.6</ele>
        <time>2013-10-06T10:26:56Z</time>
      </trkpt>
      <trkpt lat="47.2607" lon="-1.60703">
        <ele>16.7</ele>
        <time>2013-10-06T10:27:08Z</time>
      </trkpt>
      <trkpt lat="47.26062" lon="-1.60709">
        <ele>19</ele>
        <time>2013-10-06T10:27:33Z</time>
      </trkpt>
      <trkpt lat="47.26053" lon="-1.60703">
        <ele>19.3</ele>
        <time>2013-10-06T10:27:44Z</time>
      </trkpt>
      <trkpt lat="47.26045" lon="-1.60696">
        <ele>19.8</ele>
        <time>2013-10-06T10:27:52Z</time>
      </trkpt>
      <trkpt lat="47.26034" lon="-1.60696">
        <ele>20.7</ele>
        <time>2013-10-06T10:28:11Z</time>
      </trkpt>
      <trkpt lat="47.26024" lon="-1.60694">
        <ele>21.1</ele>
        <time>2013-10-06T10:28:16Z</time>
      </trkpt>
      <trkpt lat="47.26015" lon="-1.60697">
        <ele>21</ele>
        <time>2013-10-06T10:28:24Z</time>
      </trkpt>
      <trkpt lat="47.26005" lon="-1.60699">
        <ele>21.3</ele>
        <time>2013-10-06T10:28:36Z</time>
      </trkpt>
      <trkpt lat="47.26001" lon="-1.60688">
        <ele>20.8</ele>
        <time>2013-10-06T10:29:27Z</time>
      </trkpt>
      <trkpt lat="47.26004" lon="-1.60675">
        <ele>21.7</ele>
        <time>2013-10-06T10:29:50Z</time>
      </trkpt>
      <trkpt lat="47.26008" lon="-1.60662">
        <ele>21.4</ele>
        <time>2013-10-06T10:30:06Z</time>
      </trkpt>
      <trkpt lat="47.26006" lon="-1.60648">
        <ele>20.7</ele>
        <time>2013-10-06T10:30:13Z</time>
      </trkpt>
      <trkpt lat="47.26002" lon="-1.60633">
        <ele>20.2</ele>
        <time>2013-10-06T10:30:17Z</time>
      </trkpt>
      <trkpt lat="47.25996" lon="-1.60623">
        <ele>19.5</ele>
        <time>2013-10-06T10:30:21Z</time>
      </trkpt>
      <trkpt lat="47.25986" lon="-1.60617">
        <ele>19.2</ele>
        <time>2013-10-06T10:30:25Z</time>
      </trkpt>
      <trkpt lat="47.25976" lon="-1.60618">
        <ele>19.1</ele>
        <time>2013-10-06T10:30:27Z</time>
      </trkpt>
      <trkpt lat="47.25964" lon="-1.60623">
        <ele>19.2</ele>
        <time>2013-10-06T10:30:29Z</time>
      </trkpt>
      <trkpt lat="47.25955" lon="-1.60628">
        <ele>19.3</ele>
        <time>2013-10-06T10:30:32Z</time>
      </trkpt>
      <trkpt lat="47.25945" lon="-1.60636">
        <ele>19.4</ele>
        <time>2013-10-06T10:30:36Z</time>
      </trkpt>
      <trkpt lat="47.25935" lon="-1.60641">
        <ele>19.4</ele>
        <time>2013-10-06T10:30:39Z</time>
      </trkpt>
      <trkpt lat="47.25926" lon="-1.60647">
        <ele>19.2</ele>
        <time>2013-10-06T10:30:43Z</time>
      </trkpt>
      <trkpt lat="47.25916" lon="-1.60652">
        <ele>19.2</ele>
        <time>2013-10-06T10:30:48Z</time>
      </trkpt>
      <trkpt lat="47.25906" lon="-1.6066">
        <ele>20.1</ele>
        <time>2013-10-06T10:30:53Z</time>
      </trkpt>
      <trkpt lat="47.25897" lon="-1.6067">
        <ele>20.9</ele>
        <time>2013-10-06T10:30:58Z</time>
      </trkpt>
      <trkpt lat="47.25889" lon="-1.60678">
        <ele>21.4</ele>
        <time>2013-10-06T10:31:02Z</time>
      </trkpt>
      <trkpt lat="47.25879" lon="-1.60685">
        <ele>21.8</ele>
        <time>2013-10-06T10:31:07Z</time>
      </trkpt>
      <trkpt lat="47.25871" lon="-1.60692">
        <ele>22.3</ele>
        <time>2013-10-06T10:31:12Z</time>
      </trkpt>
      <trkpt lat="47.25862" lon="-1.60697">
        <ele>22.8</ele>
        <time>2013-10-06T10:31:16Z</time>
      </trkpt>
      <trkpt lat="47.2585" lon="-1.60699">
        <ele>23.1</ele>
        <time>2013-10-06T10:31:21Z</time>
      </trkpt>
      <trkpt lat="47.25841" lon="-1.60702">
        <ele>23.4</ele>
        <time>2013-10-06T10:31:24Z</time>
      </trkpt>
      <trkpt lat="47.2583" lon="-1.60704">
        <ele>23.3</ele>
        <time>2013-10-06T10:31:28Z</time>
      </trkpt>
      <trkpt lat="47.25819" lon="-1.60707">
        <ele>23.2</ele>
        <time>2013-10-06T10:31:31Z</time>
      </trkpt>
      <trkpt lat="47.25809" lon="-1.6071">
        <ele>23.2</ele>
        <time>2013-10-06T10:31:34Z</time>
      </trkpt>
      <trkpt lat="47.25799" lon="-1.60711">
        <ele>23.2</ele>
        <time>2013-10-06T10:31:37Z</time>
      </trkpt>
      <trkpt lat="47.25789" lon="-1.60711">
        <ele>23.6</ele>
        <time>2013-10-06T10:31:41Z</time>
      </trkpt>
      <trkpt lat="47.25779" lon="-1.60709">
        <ele>24.4</ele>
        <time>2013-10-06T10:31:45Z</time>
      </trkpt>
      <trkpt lat="47.2577" lon="-1.60707">
        <ele>25</ele>
        <time>2013-10-06T10:31:48Z</time>
      </trkpt>
      <trkpt lat="47.25759" lon="-1.60706">
        <ele>26.1</ele>
        <time>2013-10-06T10:31:52Z</time>
      </trkpt>
      <trkpt lat="47.2575" lon="-1.60702">
        <ele>26.8</ele>
        <time>2013-10-06T10:31:56Z</time>
      </trkpt>
      <trkpt lat="47.2574" lon="-1.60696">
        <ele>27</ele>
        <time>2013-10-06T10:32:00Z</time>
      </trkpt>
      <trkpt lat="47.25731" lon="-1.60691">
        <ele>27.2</ele>
        <time>2013-10-06T10:32:05Z</time>
      </trkpt>
      <trkpt lat="47.25722" lon="-1.60684">
        <ele>28.1</ele>
        <time>2013-10-06T10:32:11Z</time>
      </trkpt>
      <trkpt lat="47.25718" lon="-1.60673">
        <ele>28.5</ele>
        <time>2013-10-06T10:32:15Z</time>
      </trkpt>
      <trkpt lat="47.25713" lon="-1.60657">
        <ele>28.9</ele>
        <time>2013-10-06T10:32:19Z</time>
      </trkpt>
      <trkpt lat="47.25707" lon="-1.6064">
        <ele>29.3</ele>
        <time>2013-10-06T10:32:22Z</time>
      </trkpt>
      <trkpt lat="47.25702" lon="-1.60628">
        <ele>29.8</ele>
        <time>2013-10-06T10:32:25Z</time>
      </trkpt>
      <trkpt lat="47.25693" lon="-1.60626">
        <ele>33.4</ele>
        <time>2013-10-06T10:33:04Z</time>
      </trkpt>
      <trkpt lat="47.25687" lon="-1.60637">
        <ele>34.2</ele>
        <time>2013-10-06T10:33:10Z</time>
      </trkpt>
      <trkpt lat="47.25678" lon="-1.60647">
        <ele>34.5</ele>
        <time>2013-10-06T10:33:16Z</time>
      </trkpt>
      <trkpt lat="47.25671" lon="-1.60658">
        <ele>34.7</ele>
        <time>2013-10-06T10:33:20Z</time>
      </trkpt>
      <trkpt lat="47.25663" lon="-1.60667">
        <ele>34.8</ele>
        <time>2013-10-06T10:33:24Z</time>
      </trkpt>
      <trkpt lat="47.25657" lon="-1.60679">
        <ele>34.8</ele>
        <time>2013-10-06T10:33:28Z</time>
      </trkpt>
      <trkpt lat="47.25649" lon="-1.60692">
        <ele>34.6</ele>
        <time>2013-10-06T10:33:33Z</time>
      </trkpt>
      <trkpt lat="47.25643" lon="-1.60703">
        <ele>34.4</ele>
        <time>2013-10-06T10:33:37Z</time>
      </trkpt>
      <trkpt lat="47.25637" lon="-1.60714">
        <ele>34.4</ele>
        <time>2013-10-06T10:33:41Z</time>
      </trkpt>
      <trkpt lat="47.25636" lon="-1.60728">
        <ele>34.8</ele>
        <time>2013-10-06T10:33:45Z</time>
      </trkpt>
      <trkpt lat="47.25645" lon="-1.60724">
        <ele>35.9</ele>
        <time>2013-10-06T10:33:52Z</time>
      </trkpt>
      <trkpt lat="47.25657" lon="-1.60723">
        <ele>36.4</ele>
        <time>2013-10-06T10:33:56Z</time>
      </trkpt>
      <trkpt lat="47.2567" lon="-1.6072">
        <ele>36.7</ele>
        <time>2013-10-06T10:33:59Z</time>
      </trkpt>
      <trkpt lat="47.25682" lon="-1.60717">
        <ele>37.1</ele>
        <time>2013-10-06T10:34:02Z</time>
      </trkpt>
      <trkpt lat="47.25692" lon="-1.6072">
        <ele>37.7</ele>
        <time>2013-10-06T10:34:05Z</time>
      </trkpt>
      <trkpt lat="47.25698" lon="-1.60733">
        <ele>38.1</ele>
        <time>2013-10-06T10:34:08Z</time>
      </trkpt>
      <trkpt lat="47.25701" lon="-1.60748">
        <ele>38.3</ele>
        <time>2013-10-06T10:34:11Z</time>
      </trkpt>
      <trkpt lat="47.25702" lon="-1.60763">
        <ele>38.4</ele>
        <time>2013-10-06T10:34:16Z</time>
      </trkpt>
      <trkpt lat="47.25703" lon="-1.60776">
        <ele>38.5</ele>
        <time>2013-10-06T10:34:20Z</time>
      </trkpt>
      <trkpt lat="47.25704" lon="-1.6079">
        <ele>38.5</ele>
        <time>2013-10-06T10:34:24Z</time>
      </trkpt>
      <trkpt lat="47.25705" lon="-1.60805">
        <ele>38.5</ele>
        <time>2013-10-06T10:34:29Z</time>
      </trkpt>
      <trkpt lat="47.25705" lon="-1.60822">
        <ele>38.6</ele>
        <time>2013-10-06T10:34:34Z</time>
      </trkpt>
      <trkpt lat="47.25706" lon="-1.60839">
        <ele>38.5</ele>
        <time>2013-10-06T10:34:38Z</time>
      </trkpt>
      <trkpt lat="47.25706" lon="-1.60854">
        <ele>38.4</ele>
        <time>2013-10-06T10:34:41Z</time>
      </trkpt>
      <trkpt lat="47.25707" lon="-1.60873">
        <ele>37.8</ele>
        <time>2013-10-06T10:34:44Z</time>
      </trkpt>
      <trkpt lat="47.2571" lon="-1.60888">
        <ele>37</ele>
        <time>2013-10-06T10:34:46Z</time>
      </trkpt>
      <trkpt lat="47.25702" lon="-1.60901">
        <ele>37.4</ele>
        <time>2013-10-06T10:34:49Z</time>
      </trkpt>
      <trkpt lat="47.25689" lon="-1.60901">
        <ele>36.8</ele>
        <time>2013-10-06T10:34:51Z</time>
      </trkpt>
      <trkpt lat="47.25679" lon="-1.60898">
        <ele>36.4</ele>
        <time>2013-10-06T10:34:53Z</time>
      </trkpt>
      <trkpt lat="47.25669" lon="-1.60892">
        <ele>37.1</ele>
        <time>2013-10-06T10:34:55Z</time>
      </trkpt>
      <trkpt lat="47.25661" lon="-1.60885">
        <ele>37.3</ele>
        <time>2013-10-06T10:34:57Z</time>
      </trkpt>
      <trkpt lat="47.25653" lon="-1.60878">
        <ele>37.5</ele>
        <time>2013-10-06T10:35:00Z</time>
      </trkpt>
      <trkpt lat="47.25644" lon="-1.60873">
        <ele>37.3</ele>
        <time>2013-10-06T10:35:03Z</time>
      </trkpt>
      <trkpt lat="47.25635" lon="-1.60869">
        <ele>37.1</ele>
        <time>2013-10-06T10:35:07Z</time>
      </trkpt>
      <trkpt lat="47.25629" lon="-1.6088">
        <ele>37.6</ele>
        <time>2013-10-06T10:35:12Z</time>
      </trkpt>
      <trkpt lat="47.25628" lon="-1.60896">
        <ele>38.1</ele>
        <time>2013-10-06T10:35:15Z</time>
      </trkpt>
      <trkpt lat="47.25625" lon="-1.6091">
        <ele>38.3</ele>
        <time>2013-10-06T10:35:18Z</time>
      </trkpt>
      <trkpt lat="47.25624" lon="-1.60924">
        <ele>38.2</ele>
        <time>2013-10-06T10:35:20Z</time>
      </trkpt>
      <trkpt lat="47.25622" lon="-1.60941">
        <ele>37.9</ele>
        <time>2013-10-06T10:35:23Z</time>
      </trkpt>
      <trkpt lat="47.25619" lon="-1.60959">
        <ele>37.4</ele>
        <time>2013-10-06T10:35:26Z</time>
      </trkpt>
      <trkpt lat="47.25614" lon="-1.60977">
        <ele>37.6</ele>
        <time>2013-10-06T10:35:29Z</time>
      </trkpt>
      <trkpt lat="47.2561" lon="-1.60994">
        <ele>37.8</ele>
        <time>2013-10-06T10:35:32Z</time>
      </trkpt>
      <trkpt lat="47.25604" lon="-1.61008">
        <ele>37.9</ele>
        <time>2013-10-06T10:35:35Z</time>
      </trkpt>
      <trkpt lat="47.25596" lon="-1.61023">
        <ele>38</ele>
        <time>2013-10-06T10:35:38Z</time>
      </trkpt>
      <trkpt lat="47.2559" lon="-1.61035">
        <ele>37</ele>
        <time>2013-10-06T10:35:40Z</time>
      </trkpt>
      <trkpt lat="47.25583" lon="-1.61047">
        <ele>35.7</ele>
        <time>2013-10-06T10:35:42Z</time>
      </trkpt>
      <trkpt lat="47.25577" lon="-1.61059">
        <ele>35.6</ele>
        <time>2013-10-06T10:35:44Z</time>
      </trkpt>
      <trkpt lat="47.2557" lon="-1.61072">
        <ele>35.4</ele>
        <time>2013-10-06T10:35:46Z</time>
      </trkpt>
      <trkpt lat="47.25563" lon="-1.61086">
        <ele>36.2</ele>
        <time>2013-10-06T10:35:48Z</time>
      </trkpt>
      <trkpt lat="47.25556" lon="-1.611">
        <ele>36.7</ele>
        <time>2013-10-06T10:35:50Z</time>
      </trkpt>
      <trkpt lat="47.25548" lon="-1.61116">
        <ele>37.1</ele>
        <time>2013-10-06T10:35:52Z</time>
      </trkpt>
      <trkpt lat="47.25541" lon="-1.61131">
        <ele>36.9</ele>
        <time>2013-10-06T10:35:54Z</time>
      </trkpt>
      <trkpt lat="47.25535" lon="-1.61148">
        <ele>36.7</ele>
        <time>2013-10-06T10:35:56Z</time>
      </trkpt>
      <trkpt lat="47.25528" lon="-1.61167">
        <ele>35.3</ele>
        <time>2013-10-06T10:35:58Z</time>
      </trkpt>
      <trkpt lat="47.25522" lon="-1.61185">
        <ele>34.5</ele>
        <time>2013-10-06T10:36:00Z</time>
      </trkpt>
      <trkpt lat="47.25517" lon="-1.61201">
        <ele>34.9</ele>
        <time>2013-10-06T10:36:02Z</time>
      </trkpt>
      <trkpt lat="47.25512" lon="-1.6122">
        <ele>35.9</ele>
        <time>2013-10-06T10:36:04Z</time>
      </trkpt>
      <trkpt lat="47.25507" lon="-1.61241">
        <ele>36.1</ele>
        <time>2013-10-06T10:36:06Z</time>
      </trkpt>
      <trkpt lat="47.25503" lon="-1.61263">
        <ele>36.1</ele>
        <time>2013-10-06T10:36:08Z</time>
      </trkpt>
      <trkpt lat="47.25499" lon="-1.61282">
        <ele>35.6</ele>
        <time>2013-10-06T10:36:10Z</time>
      </trkpt>
      <trkpt lat="47.25495" lon="-1.61301">
        <ele>36.1</ele>
        <time>2013-10-06T10:36:12Z</time>
      </trkpt>
      <trkpt lat="47.25492" lon="-1.6132">
        <ele>36.9</ele>
        <time>2013-10-06T10:36:14Z</time>
      </trkpt>
      <trkpt lat="47.25488" lon="-1.61338">
        <ele>37</ele>
        <time>2013-10-06T10:36:16Z</time>
      </trkpt>
      <trkpt lat="47.25484" lon="-1.61358">
        <ele>37.2</ele>
        <time>2013-10-06T10:36:18Z</time>
      </trkpt>
      <trkpt lat="47.25479" lon="-1.61378">
        <ele>37.7</ele>
        <time>2013-10-06T10:36:20Z</time>
      </trkpt>
      <trkpt lat="47.25475" lon="-1.61394">
        <ele>38.4</ele>
        <time>2013-10-06T10:36:22Z</time>
      </trkpt>
      <trkpt lat="47.25471" lon="-1.61409">
        <ele>39.5</ele>
        <time>2013-10-06T10:36:24Z</time>
      </trkpt>
      <trkpt lat="47.25466" lon="-1.61422">
        <ele>39.4</ele>
        <time>2013-10-06T10:36:26Z</time>
      </trkpt>
      <trkpt lat="47.25461" lon="-1.61434">
        <ele>38.8</ele>
        <time>2013-10-06T10:36:28Z</time>
      </trkpt>
      <trkpt lat="47.25451" lon="-1.61441">
        <ele>39.2</ele>
        <time>2013-10-06T10:36:30Z</time>
      </trkpt>
      <trkpt lat="47.2544" lon="-1.61444">
        <ele>39.1</ele>
        <time>2013-10-06T10:36:33Z</time>
      </trkpt>
      <trkpt lat="47.25431" lon="-1.61456">
        <ele>39.2</ele>
        <time>2013-10-06T10:36:36Z</time>
      </trkpt>
      <trkpt lat="47.25423" lon="-1.61467">
        <ele>39.2</ele>
        <time>2013-10-06T10:36:39Z</time>
      </trkpt>
      <trkpt lat="47.25412" lon="-1.61472">
        <ele>39.2</ele>
        <time>2013-10-06T10:36:43Z</time>
      </trkpt>
      <trkpt lat="47.25404" lon="-1.61464">
        <ele>39.3</ele>
        <time>2013-10-06T10:36:46Z</time>
      </trkpt>
      <trkpt lat="47.25399" lon="-1.61451">
        <ele>39.4</ele>
        <time>2013-10-06T10:36:49Z</time>
      </trkpt>
      <trkpt lat="47.25394" lon="-1.61439">
        <ele>39.4</ele>
        <time>2013-10-06T10:36:52Z</time>
      </trkpt>
      <trkpt lat="47.25387" lon="-1.61423">
        <ele>39.5</ele>
        <time>2013-10-06T10:36:56Z</time>
      </trkpt>
      <trkpt lat="47.2538" lon="-1.6141">
        <ele>39.8</ele>
        <time>2013-10-06T10:36:59Z</time>
      </trkpt>
      <trkpt lat="47.25374" lon="-1.61399">
        <ele>40.2</ele>
        <time>2013-10-06T10:37:02Z</time>
      </trkpt>
      <trkpt lat="47.25367" lon="-1.61387">
        <ele>40.6</ele>
        <time>2013-10-06T10:37:05Z</time>
      </trkpt>
      <trkpt lat="47.25361" lon="-1.61374">
        <ele>40.9</ele>
        <time>2013-10-06T10:37:08Z</time>
      </trkpt>
      <trkpt lat="47.25355" lon="-1.61363">
        <ele>41.3</ele>
        <time>2013-10-06T10:37:11Z</time>
      </trkpt>
      <trkpt lat="47.2535" lon="-1.6135">
        <ele>41.5</ele>
        <time>2013-10-06T10:37:14Z</time>
      </trkpt>
      <trkpt lat="47.25343" lon="-1.61337">
        <ele>41.7</ele>
        <time>2013-10-06T10:37:18Z</time>
      </trkpt>
      <trkpt lat="47.25335" lon="-1.61326">
        <ele>41.9</ele>
        <time>2013-10-06T10:37:22Z</time>
      </trkpt>
      <trkpt lat="47.25328" lon="-1.61315">
        <ele>42.1</ele>
        <time>2013-10-06T10:37:25Z</time>
      </trkpt>
      <trkpt lat="47.25321" lon="-1.61302">
        <ele>42.2</ele>
        <time>2013-10-06T10:37:28Z</time>
      </trkpt>
      <trkpt lat="47.25314" lon="-1.61289">
        <ele>42.3</ele>
        <time>2013-10-06T10:37:31Z</time>
      </trkpt>
      <trkpt lat="47.25307" lon="-1.61278">
        <ele>42.5</ele>
        <time>2013-10-06T10:37:34Z</time>
      </trkpt>
      <trkpt lat="47.253" lon="-1.61267">
        <ele>42.8</ele>
        <time>2013-10-06T10:37:37Z</time>
      </trkpt>
      <trkpt lat="47.25292" lon="-1.61256">
        <ele>43</ele>
        <time>2013-10-06T10:37:40Z</time>
      </trkpt>
      <trkpt lat="47.25284" lon="-1.61246">
        <ele>43.2</ele>
        <time>2013-10-06T10:37:43Z</time>
      </trkpt>
      <trkpt lat="47.25277" lon="-1.61236">
        <ele>43.4</ele>
        <time>2013-10-06T10:37:46Z</time>
      </trkpt>
      <trkpt lat="47.25268" lon="-1.61225">
        <ele>43.7</ele>
        <time>2013-10-06T10:37:49Z</time>
      </trkpt>
      <trkpt lat="47.25257" lon="-1.61215">
        <ele>44.1</ele>
        <time>2013-10-06T10:37:52Z</time>
      </trkpt>
      <trkpt lat="47.2525" lon="-1.61205">
        <ele>44.4</ele>
        <time>2013-10-06T10:37:55Z</time>
      </trkpt>
      <trkpt lat="47.25246" lon="-1.61193">
        <ele>44.7</ele>
        <time>2013-10-06T10:37:58Z</time>
      </trkpt>
      <trkpt lat="47.25238" lon="-1.61181">
        <ele>45</ele>
        <time>2013-10-06T10:38:03Z</time>
      </trkpt>
      <trkpt lat="47.25232" lon="-1.61169">
        <ele>45.2</ele>
        <time>2013-10-06T10:38:07Z</time>
      </trkpt>
      <trkpt lat="47.25229" lon="-1.61154">
        <ele>45.3</ele>
        <time>2013-10-06T10:38:10Z</time>
      </trkpt>
      <trkpt lat="47.25229" lon="-1.61138">
        <ele>45.3</ele>
        <time>2013-10-06T10:38:13Z</time>
      </trkpt>
      <trkpt lat="47.25228" lon="-1.61122">
        <ele>45.2</ele>
        <time>2013-10-06T10:38:16Z</time>
      </trkpt>
      <trkpt lat="47.25218" lon="-1.61117">
        <ele>45.1</ele>
        <time>2013-10-06T10:38:20Z</time>
      </trkpt>
      <trkpt lat="47.25208" lon="-1.61116">
        <ele>44.8</ele>
        <time>2013-10-06T10:38:23Z</time>
      </trkpt>
      <trkpt lat="47.25197" lon="-1.61114">
        <ele>44.3</ele>
        <time>2013-10-06T10:38:27Z</time>
      </trkpt>
      <trkpt lat="47.25186" lon="-1.61112">
        <ele>44.1</ele>
        <time>2013-10-06T10:38:31Z</time>
      </trkpt>
      <trkpt lat="47.25176" lon="-1.61111">
        <ele>44.1</ele>
        <time>2013-10-06T10:38:34Z</time>
      </trkpt>
      <trkpt lat="47.25167" lon="-1.61106">
        <ele>44.2</ele>
        <time>2013-10-06T10:38:37Z</time>
      </trkpt>
      <trkpt lat="47.25159" lon="-1.61099">
        <ele>44.4</ele>
        <time>2013-10-06T10:38:41Z</time>
      </trkpt>
      <trkpt lat="47.2515" lon="-1.61089">
        <ele>44.6</ele>
        <time>2013-10-06T10:38:46Z</time>
      </trkpt>
      <trkpt lat="47.2514" lon="-1.61091">
        <ele>44.9</ele>
        <time>2013-10-06T10:38:51Z</time>
      </trkpt>
      <trkpt lat="47.2513" lon="-1.61084">
        <ele>45.4</ele>
        <time>2013-10-06T10:38:55Z</time>
      </trkpt>
      <trkpt lat="47.25123" lon="-1.61075">
        <ele>45.6</ele>
        <time>2013-10-06T10:38:57Z</time>
      </trkpt>
      <trkpt lat="47.25117" lon="-1.61065">
        <ele>45.9</ele>
        <time>2013-10-06T10:39:00Z</time>
      </trkpt>
      <trkpt lat="47.25109" lon="-1.61053">
        <ele>46.1</ele>
        <time>2013-10-06T10:39:04Z</time>
      </trkpt>
      <trkpt lat="47.25101" lon="-1.61041">
        <ele>46.7</ele>
        <time>2013-10-06T10:39:08Z</time>
      </trkpt>
      <trkpt lat="47.25094" lon="-1.61033">
        <ele>47.2</ele>
        <time>2013-10-06T10:39:11Z</time>
      </trkpt>
      <trkpt lat="47.25086" lon="-1.61022">
        <ele>47.7</ele>
        <time>2013-10-06T10:39:14Z</time>
      </trkpt>
      <trkpt lat="47.25078" lon="-1.6101">
        <ele>48.5</ele>
        <time>2013-10-06T10:39:18Z</time>
      </trkpt>
      <trkpt lat="47.25071" lon="-1.61">
        <ele>49</ele>
        <time>2013-10-06T10:39:21Z</time>
      </trkpt>
      <trkpt lat="47.25064" lon="-1.60989">
        <ele>49.6</ele>
        <time>2013-10-06T10:39:24Z</time>
      </trkpt>
      <trkpt lat="47.25056" lon="-1.60977">
        <ele>50.1</ele>
        <time>2013-10-06T10:39:27Z</time>
      </trkpt>
      <trkpt lat="47.25048" lon="-1.60964">
        <ele>50.4</ele>
        <time>2013-10-06T10:39:30Z</time>
      </trkpt>
      <trkpt lat="47.25042" lon="-1.60953">
        <ele>50.8</ele>
        <time>2013-10-06T10:39:33Z</time>
      </trkpt>
      <trkpt lat="47.25036" lon="-1.6094">
        <ele>51.3</ele>
        <time>2013-10-06T10:39:37Z</time>
      </trkpt>
      <trkpt lat="47.25032" lon="-1.60928">
        <ele>51.8</ele>
        <time>2013-10-06T10:39:40Z</time>
      </trkpt>
      <trkpt lat="47.25026" lon="-1.60913">
        <ele>52.3</ele>
        <time>2013-10-06T10:39:44Z</time>
      </trkpt>
      <trkpt lat="47.25021" lon="-1.609">
        <ele>52.6</ele>
        <time>2013-10-06T10:39:47Z</time>
      </trkpt>
      <trkpt lat="47.25015" lon="-1.60886">
        <ele>53</ele>
        <time>2013-10-06T10:39:50Z</time>
      </trkpt>
      <trkpt lat="47.25009" lon="-1.60874">
        <ele>53.4</ele>
        <time>2013-10-06T10:39:53Z</time>
      </trkpt>
      <trkpt lat="47.25002" lon="-1.6086">
        <ele>53.8</ele>
        <time>2013-10-06T10:39:56Z</time>
      </trkpt>
      <trkpt lat="47.24995" lon="-1.60846">
        <ele>54.1</ele>
        <time>2013-10-06T10:39:59Z</time>
      </trkpt>
      <trkpt lat="47.24989" lon="-1.60831">
        <ele>54.5</ele>
        <time>2013-10-06T10:40:02Z</time>
      </trkpt>
      <trkpt lat="47.24988" lon="-1.60817">
        <ele>54.8</ele>
        <time>2013-10-06T10:40:05Z</time>
      </trkpt>
      <trkpt lat="47.2499" lon="-1.60802">
        <ele>54.9</ele>
        <time>2013-10-06T10:40:08Z</time>
      </trkpt>
      <trkpt lat="47.24993" lon="-1.60789">
        <ele>55.1</ele>
        <time>2013-10-06T10:40:11Z</time>
      </trkpt>
      <trkpt lat="47.24989" lon="-1.60776">
        <ele>55.1</ele>
        <time>2013-10-06T10:40:15Z</time>
      </trkpt>
      <trkpt lat="47.24978" lon="-1.60777">
        <ele>54.8</ele>
        <time>2013-10-06T10:40:19Z</time>
      </trkpt>
      <trkpt lat="47.24968" lon="-1.60774">
        <ele>54.7</ele>
        <time>2013-10-06T10:40:25Z</time>
      </trkpt>
      <trkpt lat="47.24962" lon="-1.60761">
        <ele>54.7</ele>
        <time>2013-10-06T10:40:29Z</time>
      </trkpt>
      <trkpt lat="47.24958" lon="-1.60748">
        <ele>54.8</ele>
        <time>2013-10-06T10:40:33Z</time>
      </trkpt>
      <trkpt lat="47.24954" lon="-1.60732">
        <ele>54.5</ele>
        <time>2013-10-06T10:40:37Z</time>
      </trkpt>
      <trkpt lat="47.2495" lon="-1.60716">
        <ele>54.5</ele>
        <time>2013-10-06T10:40:41Z</time>
      </trkpt>
      <trkpt lat="47.24944" lon="-1.60704">
        <ele>54.5</ele>
        <time>2013-10-06T10:40:44Z</time>
      </trkpt>
      <trkpt lat="47.24938" lon="-1.60692">
        <ele>54.5</ele>
        <time>2013-10-06T10:40:47Z</time>
      </trkpt>
      <trkpt lat="47.24931" lon="-1.60678">
        <ele>54.6</ele>
        <time>2013-10-06T10:40:50Z</time>
      </trkpt>
      <trkpt lat="47.24926" lon="-1.60666">
        <ele>54.8</ele>
        <time>2013-10-06T10:40:53Z</time>
      </trkpt>
      <trkpt lat="47.2492" lon="-1.60653">
        <ele>54.8</ele>
        <time>2013-10-06T10:40:56Z</time>
      </trkpt>
      <trkpt lat="47.24915" lon="-1.60639">
        <ele>54.6</ele>
        <time>2013-10-06T10:41:00Z</time>
      </trkpt>
      <trkpt lat="47.2491" lon="-1.60626">
        <ele>54.4</ele>
        <time>2013-10-06T10:41:03Z</time>
      </trkpt>
      <trkpt lat="47.24904" lon="-1.60614">
        <ele>54.6</ele>
        <time>2013-10-06T10:41:06Z</time>
      </trkpt>
      <trkpt lat="47.24898" lon="-1.60601">
        <ele>54.8</ele>
        <time>2013-10-06T10:41:11Z</time>
      </trkpt>
      <trkpt lat="47.24893" lon="-1.60588">
        <ele>54.8</ele>
        <time>2013-10-06T10:41:14Z</time>
      </trkpt>
      <trkpt lat="47.24889" lon="-1.60575">
        <ele>54.7</ele>
        <time>2013-10-06T10:41:17Z</time>
      </trkpt>
      <trkpt lat="47.24882" lon="-1.60559">
        <ele>54.5</ele>
        <time>2013-10-06T10:41:20Z</time>
      </trkpt>
      <trkpt lat="47.24875" lon="-1.60544">
        <ele>54.8</ele>
        <time>2013-10-06T10:41:23Z</time>
      </trkpt>
      <trkpt lat="47.24868" lon="-1.60532">
        <ele>55.1</ele>
        <time>2013-10-06T10:41:26Z</time>
      </trkpt>
      <trkpt lat="47.24863" lon="-1.60521">
        <ele>55.1</ele>
        <time>2013-10-06T10:41:29Z</time>
      </trkpt>
      <trkpt lat="47.24856" lon="-1.60506">
        <ele>55.2</ele>
        <time>2013-10-06T10:41:32Z</time>
      </trkpt>
      <trkpt lat="47.2485" lon="-1.60492">
        <ele>55.4</ele>
        <time>2013-10-06T10:41:35Z</time>
      </trkpt>
      <trkpt lat="47.24843" lon="-1.60477">
        <ele>55.7</ele>
        <time>2013-10-06T10:41:39Z</time>
      </trkpt>
      <trkpt lat="47.24836" lon="-1.60463">
        <ele>55.8</ele>
        <time>2013-10-06T10:41:43Z</time>
      </trkpt>
      <trkpt lat="47.24832" lon="-1.60451">
        <ele>55.9</ele>
        <time>2013-10-06T10:41:46Z</time>
      </trkpt>
      <trkpt lat="47.24826" lon="-1.60436">
        <ele>55.7</ele>
        <time>2013-10-06T10:41:50Z</time>
      </trkpt>
      <trkpt lat="47.2482" lon="-1.60421">
        <ele>55.6</ele>
        <time>2013-10-06T10:41:54Z</time>
      </trkpt>
      <trkpt lat="47.24814" lon="-1.60406">
        <ele>55.3</ele>
        <time>2013-10-06T10:41:58Z</time>
      </trkpt>
      <trkpt lat="47.24811" lon="-1.60393">
        <ele>55</ele>
        <time>2013-10-06T10:42:01Z</time>
      </trkpt>
      <trkpt lat="47.24807" lon="-1.6038">
        <ele>54.7</ele>
        <time>2013-10-06T10:42:04Z</time>
      </trkpt>
      <trkpt lat="47.248" lon="-1.60366">
        <ele>54.3</ele>
        <time>2013-10-06T10:42:08Z</time>
      </trkpt>
      <trkpt lat="47.24794" lon="-1.60355">
        <ele>54.2</ele>
        <time>2013-10-06T10:42:11Z</time>
      </trkpt>
      <trkpt lat="47.24787" lon="-1.60342">
        <ele>54</ele>
        <time>2013-10-06T10:42:15Z</time>
      </trkpt>
      <trkpt lat="47.24781" lon="-1.60331">
        <ele>54</ele>
        <time>2013-10-06T10:42:18Z</time>
      </trkpt>
      <trkpt lat="47.24775" lon="-1.60319">
        <ele>54</ele>
        <time>2013-10-06T10:42:21Z</time>
      </trkpt>
      <trkpt lat="47.2477" lon="-1.60308">
        <ele>54.2</ele>
        <time>2013-10-06T10:42:24Z</time>
      </trkpt>
      <trkpt lat="47.24764" lon="-1.60295">
        <ele>54.1</ele>
        <time>2013-10-06T10:42:27Z</time>
      </trkpt>
      <trkpt lat="47.24758" lon="-1.60283">
        <ele>53.9</ele>
        <time>2013-10-06T10:42:30Z</time>
      </trkpt>
      <trkpt lat="47.2475" lon="-1.60289">
        <ele>53.8</ele>
        <time>2013-10-06T10:42:33Z</time>
      </trkpt>
      <trkpt lat="47.24742" lon="-1.60298">
        <ele>53.8</ele>
        <time>2013-10-06T10:42:37Z</time>
      </trkpt>
      <trkpt lat="47.24735" lon="-1.60309">
        <ele>53.8</ele>
        <time>2013-10-06T10:42:40Z</time>
      </trkpt>
      <trkpt lat="47.24726" lon="-1.60319">
        <ele>53.6</ele>
        <time>2013-10-06T10:42:44Z</time>
      </trkpt>
      <trkpt lat="47.24718" lon="-1.60326">
        <ele>53.4</ele>
        <time>2013-10-06T10:42:47Z</time>
      </trkpt>
      <trkpt lat="47.24709" lon="-1.60335">
        <ele>53</ele>
        <time>2013-10-06T10:42:50Z</time>
      </trkpt>
      <trkpt lat="47.24702" lon="-1.60343">
        <ele>52.4</ele>
        <time>2013-10-06T10:42:53Z</time>
      </trkpt>
      <trkpt lat="47.24692" lon="-1.60353">
        <ele>52.5</ele>
        <time>2013-10-06T10:42:57Z</time>
      </trkpt>
      <trkpt lat="47.24685" lon="-1.60366">
        <ele>52.6</ele>
        <time>2013-10-06T10:43:01Z</time>
      </trkpt>
      <trkpt lat="47.24676" lon="-1.60377">
        <ele>52.6</ele>
        <time>2013-10-06T10:43:04Z</time>
      </trkpt>
      <trkpt lat="47.24669" lon="-1.60389">
        <ele>52.7</ele>
        <time>2013-10-06T10:43:07Z</time>
      </trkpt>
      <trkpt lat="47.24664" lon="-1.60401">
        <ele>52.8</ele>
        <time>2013-10-06T10:43:10Z</time>
      </trkpt>
      <trkpt lat="47.24661" lon="-1.60416">
        <ele>53.4</ele>
        <time>2013-10-06T10:43:15Z</time>
      </trkpt>
      <trkpt lat="47.24659" lon="-1.6043">
        <ele>53.6</ele>
        <time>2013-10-06T10:43:18Z</time>
      </trkpt>
      <trkpt lat="47.24654" lon="-1.60442">
        <ele>53.8</ele>
        <time>2013-10-06T10:43:21Z</time>
      </trkpt>
      <trkpt lat="47.24646" lon="-1.6045">
        <ele>54.1</ele>
        <time>2013-10-06T10:43:24Z</time>
      </trkpt>
      <trkpt lat="47.24635" lon="-1.60457">
        <ele>53.9</ele>
        <time>2013-10-06T10:43:27Z</time>
      </trkpt>
      <trkpt lat="47.24627" lon="-1.60464">
        <ele>54.4</ele>
        <time>2013-10-06T10:43:29Z</time>
      </trkpt>
      <trkpt lat="47.24618" lon="-1.60472">
        <ele>54.8</ele>
        <time>2013-10-06T10:43:31Z</time>
      </trkpt>
      <trkpt lat="47.24608" lon="-1.60482">
        <ele>55.3</ele>
        <time>2013-10-06T10:43:34Z</time>
      </trkpt>
      <trkpt lat="47.24598" lon="-1.60493">
        <ele>54</ele>
        <time>2013-10-06T10:43:37Z</time>
      </trkpt>
      <trkpt lat="47.24586" lon="-1.60502">
        <ele>51.7</ele>
        <time>2013-10-06T10:43:40Z</time>
      </trkpt>
      <trkpt lat="47.24578" lon="-1.60508">
        <ele>52</ele>
        <time>2013-10-06T10:43:42Z</time>
      </trkpt>
      <trkpt lat="47.2457" lon="-1.60515">
        <ele>53</ele>
        <time>2013-10-06T10:43:44Z</time>
      </trkpt>
      <trkpt lat="47.24561" lon="-1.60522">
        <ele>54.1</ele>
        <time>2013-10-06T10:43:46Z</time>
      </trkpt>
      <trkpt lat="47.24552" lon="-1.6053">
        <ele>55</ele>
        <time>2013-10-06T10:43:48Z</time>
      </trkpt>
      <trkpt lat="47.24544" lon="-1.60536">
        <ele>56.1</ele>
        <time>2013-10-06T10:43:50Z</time>
      </trkpt>
      <trkpt lat="47.24533" lon="-1.60544">
        <ele>55.2</ele>
        <time>2013-10-06T10:43:53Z</time>
      </trkpt>
      <trkpt lat="47.24524" lon="-1.60551">
        <ele>54.3</ele>
        <time>2013-10-06T10:43:55Z</time>
      </trkpt>
      <trkpt lat="47.24516" lon="-1.6056">
        <ele>53.7</ele>
        <time>2013-10-06T10:43:57Z</time>
      </trkpt>
      <trkpt lat="47.2451" lon="-1.6057">
        <ele>53.5</ele>
        <time>2013-10-06T10:43:59Z</time>
      </trkpt>
      <trkpt lat="47.24504" lon="-1.60581">
        <ele>53.3</ele>
        <time>2013-10-06T10:44:01Z</time>
      </trkpt>
      <trkpt lat="47.24498" lon="-1.60594">
        <ele>53.4</ele>
        <time>2013-10-06T10:44:03Z</time>
      </trkpt>
      <trkpt lat="47.24495" lon="-1.60607">
        <ele>54.1</ele>
        <time>2013-10-06T10:44:06Z</time>
      </trkpt>
      <trkpt lat="47.24484" lon="-1.6061">
        <ele>51</ele>
        <time>2013-10-06T10:44:09Z</time>
      </trkpt>
      <trkpt lat="47.24473" lon="-1.60612">
        <ele>49.8</ele>
        <time>2013-10-06T10:44:11Z</time>
      </trkpt>
      <trkpt lat="47.24462" lon="-1.60618">
        <ele>49.6</ele>
        <time>2013-10-06T10:44:13Z</time>
      </trkpt>
      <trkpt lat="47.24452" lon="-1.60625">
        <ele>49.7</ele>
        <time>2013-10-06T10:44:15Z</time>
      </trkpt>
      <trkpt lat="47.24443" lon="-1.60632">
        <ele>49.5</ele>
        <time>2013-10-06T10:44:17Z</time>
      </trkpt>
      <trkpt lat="47.24434" lon="-1.60641">
        <ele>49.7</ele>
        <time>2013-10-06T10:44:19Z</time>
      </trkpt>
      <trkpt lat="47.24425" lon="-1.60648">
        <ele>49.8</ele>
        <time>2013-10-06T10:44:21Z</time>
      </trkpt>
      <trkpt lat="47.24417" lon="-1.60657">
        <ele>49.3</ele>
        <time>2013-10-06T10:44:23Z</time>
      </trkpt>
      <trkpt lat="47.24408" lon="-1.60666">
        <ele>50.6</ele>
        <time>2013-10-06T10:44:25Z</time>
      </trkpt>
      <trkpt lat="47.24398" lon="-1.60674">
        <ele>49.8</ele>
        <time>2013-10-06T10:44:28Z</time>
      </trkpt>
      <trkpt lat="47.2439" lon="-1.60682">
        <ele>48.3</ele>
        <time>2013-10-06T10:44:30Z</time>
      </trkpt>
      <trkpt lat="47.24381" lon="-1.6069">
        <ele>46</ele>
        <time>2013-10-06T10:44:32Z</time>
      </trkpt>
      <trkpt lat="47.24372" lon="-1.60698">
        <ele>44.8</ele>
        <time>2013-10-06T10:44:34Z</time>
      </trkpt>
      <trkpt lat="47.24362" lon="-1.60707">
        <ele>45.5</ele>
        <time>2013-10-06T10:44:36Z</time>
      </trkpt>
      <trkpt lat="47.24351" lon="-1.60715">
        <ele>46.9</ele>
        <time>2013-10-06T10:44:38Z</time>
      </trkpt>
      <trkpt lat="47.24341" lon="-1.60724">
        <ele>48.2</ele>
        <time>2013-10-06T10:44:40Z</time>
      </trkpt>
      <trkpt lat="47.24332" lon="-1.60731">
        <ele>48.8</ele>
        <time>2013-10-06T10:44:42Z</time>
      </trkpt>
      <trkpt lat="47.24322" lon="-1.60739">
        <ele>48.7</ele>
        <time>2013-10-06T10:44:44Z</time>
      </trkpt>
      <trkpt lat="47.24312" lon="-1.60748">
        <ele>48.4</ele>
        <time>2013-10-06T10:44:46Z</time>
      </trkpt>
      <trkpt lat="47.24302" lon="-1.60757">
        <ele>48.3</ele>
        <time>2013-10-06T10:44:48Z</time>
      </trkpt>
      <trkpt lat="47.24292" lon="-1.60764">
        <ele>48</ele>
        <time>2013-10-06T10:44:50Z</time>
      </trkpt>
      <trkpt lat="47.24282" lon="-1.60772">
        <ele>47.7</ele>
        <time>2013-10-06T10:44:52Z</time>
      </trkpt>
      <trkpt lat="47.24272" lon="-1.6078">
        <ele>47.4</ele>
        <time>2013-10-06T10:44:54Z</time>
      </trkpt>
      <trkpt lat="47.24263" lon="-1.60788">
        <ele>47</ele>
        <time>2013-10-06T10:44:56Z</time>
      </trkpt>
      <trkpt lat="47.24254" lon="-1.60795">
        <ele>46.7</ele>
        <time>2013-10-06T10:44:58Z</time>
      </trkpt>
      <trkpt lat="47.24245" lon="-1.60802">
        <ele>46.5</ele>
        <time>2013-10-06T10:45:00Z</time>
      </trkpt>
      <trkpt lat="47.24237" lon="-1.60811">
        <ele>46.3</ele>
        <time>2013-10-06T10:45:02Z</time>
      </trkpt>
      <trkpt lat="47.24229" lon="-1.6082">
        <ele>46.9</ele>
        <time>2013-10-06T10:45:04Z</time>
      </trkpt>
      <trkpt lat="47.24222" lon="-1.6083">
        <ele>47.4</ele>
        <time>2013-10-06T10:45:06Z</time>
      </trkpt>
      <trkpt lat="47.2421" lon="-1.60839">
        <ele>45.2</ele>
        <time>2013-10-06T10:45:09Z</time>
      </trkpt>
      <trkpt lat="47.24201" lon="-1.60843">
        <ele>44.7</ele>
        <time>2013-10-06T10:45:11Z</time>
      </trkpt>
      <trkpt lat="47.2419" lon="-1.60847">
        <ele>44.8</ele>
        <time>2013-10-06T10:45:13Z</time>
      </trkpt>
      <trkpt lat="47.2418" lon="-1.60851">
        <ele>44.9</ele>
        <time>2013-10-06T10:45:15Z</time>
      </trkpt>
      <trkpt lat="47.2417" lon="-1.60856">
        <ele>45</ele>
        <time>2013-10-06T10:45:17Z</time>
      </trkpt>
      <trkpt lat="47.24161" lon="-1.6086">
        <ele>44.8</ele>
        <time>2013-10-06T10:45:19Z</time>
      </trkpt>
      <trkpt lat="47.24152" lon="-1.60864">
        <ele>44.6</ele>
        <time>2013-10-06T10:45:21Z</time>
      </trkpt>
      <trkpt lat="47.2414" lon="-1.60854">
        <ele>44.4</ele>
        <time>2013-10-06T10:45:24Z</time>
      </trkpt>
      <trkpt lat="47.24134" lon="-1.60838">
        <ele>44.4</ele>
        <time>2013-10-06T10:45:27Z</time>
      </trkpt>
      <trkpt lat="47.24129" lon="-1.60822">
        <ele>44.5</ele>
        <time>2013-10-06T10:45:30Z</time>
      </trkpt>
      <trkpt lat="47.24125" lon="-1.60809">
        <ele>44.5</ele>
        <time>2013-10-06T10:45:33Z</time>
      </trkpt>
      <trkpt lat="47.24117" lon="-1.60815">
        <ele>48.3</ele>
        <time>2013-10-06T10:46:53Z</time>
      </trkpt>
      <trkpt lat="47.24108" lon="-1.60812">
        <ele>48.7</ele>
        <time>2013-10-06T10:47:07Z</time>
      </trkpt>
      <trkpt lat="47.24117" lon="-1.60816">
        <ele>44.6</ele>
        <time>2013-10-06T10:48:24Z</time>
      </trkpt>
      <trkpt lat="47.24126" lon="-1.60811">
        <ele>45.4</ele>
        <time>2013-10-06T10:48:41Z</time>
      </trkpt>
      <trkpt lat="47.24132" lon="-1.60821">
        <ele>48.4</ele>
        <time>2013-10-06T10:49:44Z</time>
      </trkpt>
      <trkpt lat="47.24122" lon="-1.60818">
        <ele>48.4</ele>
        <time>2013-10-06T10:49:58Z</time>
      </trkpt>
      <trkpt lat="47.24113" lon="-1.60814">
        <ele>48.1</ele>
        <time>2013-10-06T10:50:07Z</time>
      </trkpt>
      <trkpt lat="47.24122" lon="-1.6081">
        <ele>48.6</ele>
        <time>2013-10-06T10:52:08Z</time>
      </trkpt>
      <trkpt lat="47.24131" lon="-1.6081">
        <ele>48.3</ele>
        <time>2013-10-06T10:52:36Z</time>
      </trkpt>
      <trkpt lat="47.24138" lon="-1.60819">
        <ele>48</ele>
        <time>2013-10-06T10:53:09Z</time>
      </trkpt>
      <trkpt lat="47.24131" lon="-1.6081">
        <ele>53.1</ele>
        <time>2013-10-06T10:54:07Z</time>
      </trkpt>
      <trkpt lat="47.24125" lon="-1.608">
        <ele>53.7</ele>
        <time>2013-10-06T10:54:14Z</time>
      </trkpt>
      <trkpt lat="47.24122" lon="-1.60812">
        <ele>53.9</ele>
        <time>2013-10-06T10:54:25Z</time>
      </trkpt>
      <trkpt lat="47.24119" lon="-1.60825">
        <ele>55.5</ele>
        <time>2013-10-06T10:56:03Z</time>
      </trkpt>
      <trkpt lat="47.24123" lon="-1.60812">
        <ele>55.7</ele>
        <time>2013-10-06T10:56:18Z</time>
      </trkpt>
      <trkpt lat="47.24131" lon="-1.60807">
        <ele>54.9</ele>
        <time>2013-10-06T10:56:36Z</time>
      </trkpt>
      <trkpt lat="47.24123" lon="-1.60813">
        <ele>54.7</ele>
        <time>2013-10-06T10:56:55Z</time>
      </trkpt>
      <trkpt lat="47.24131" lon="-1.60822">
        <ele>48.3</ele>
        <time>2013-10-06T11:01:39Z</time>
      </trkpt>
      <trkpt lat="47.24139" lon="-1.60816">
        <ele>51</ele>
        <time>2013-10-06T11:04:08Z</time>
      </trkpt>
      <trkpt lat="47.24129" lon="-1.60816">
        <ele>41.2</ele>
        <time>2013-10-06T11:07:48Z</time>
      </trkpt>
      <trkpt lat="47.24133" lon="-1.60804">
        <ele>51.1</ele>
        <time>2013-10-06T11:09:28Z</time>
      </trkpt>
      <trkpt lat="47.24126" lon="-1.60812">
        <ele>45.7</ele>
        <time>2013-10-06T11:10:00Z</time>
      </trkpt>
      <trkpt lat="47.24118" lon="-1.60802">
        <ele>45</ele>
        <time>2013-10-06T11:10:05Z</time>
      </trkpt>
      <trkpt lat="47.24112" lon="-1.60791">
        <ele>44.9</ele>
        <time>2013-10-06T11:10:09Z</time>
      </trkpt>
      <trkpt lat="47.24103" lon="-1.60782">
        <ele>44.6</ele>
        <time>2013-10-06T11:10:13Z</time>
      </trkpt>
      <trkpt lat="47.24091" lon="-1.60781">
        <ele>42.2</ele>
        <time>2013-10-06T11:10:16Z</time>
      </trkpt>
      <trkpt lat="47.24082" lon="-1.60785">
        <ele>39.8</ele>
        <time>2013-10-06T11:10:18Z</time>
      </trkpt>
      <trkpt lat="47.24073" lon="-1.60791">
        <ele>38</ele>
        <time>2013-10-06T11:10:20Z</time>
      </trkpt>
      <trkpt lat="47.24063" lon="-1.60799">
        <ele>37.7</ele>
        <time>2013-10-06T11:10:23Z</time>
      </trkpt>
      <trkpt lat="47.24052" lon="-1.60805">
        <ele>37.3</ele>
        <time>2013-10-06T11:10:26Z</time>
      </trkpt>
      <trkpt lat="47.24043" lon="-1.60811">
        <ele>37</ele>
        <time>2013-10-06T11:10:30Z</time>
      </trkpt>
      <trkpt lat="47.2404" lon="-1.60824">
        <ele>37.1</ele>
        <time>2013-10-06T11:10:35Z</time>
      </trkpt>
      <trkpt lat="47.24043" lon="-1.6084">
        <ele>38</ele>
        <time>2013-10-06T11:10:40Z</time>
      </trkpt>
      <trkpt lat="47.24045" lon="-1.60855">
        <ele>38.8</ele>
        <time>2013-10-06T11:10:45Z</time>
      </trkpt>
      <trkpt lat="47.24043" lon="-1.60868">
        <ele>39.4</ele>
        <time>2013-10-06T11:10:50Z</time>
      </trkpt>
      <trkpt lat="47.24034" lon="-1.60874">
        <ele>39.3</ele>
        <time>2013-10-06T11:10:54Z</time>
      </trkpt>
      <trkpt lat="47.24023" lon="-1.60878">
        <ele>39</ele>
        <time>2013-10-06T11:10:58Z</time>
      </trkpt>
      <trkpt lat="47.24011" lon="-1.60881">
        <ele>38.7</ele>
        <time>2013-10-06T11:11:02Z</time>
      </trkpt>
      <trkpt lat="47.24002" lon="-1.60885">
        <ele>38.3</ele>
        <time>2013-10-06T11:11:04Z</time>
      </trkpt>
      <trkpt lat="47.23992" lon="-1.60892">
        <ele>38.1</ele>
        <time>2013-10-06T11:11:06Z</time>
      </trkpt>
      <trkpt lat="47.2398" lon="-1.60898">
        <ele>37.5</ele>
        <time>2013-10-06T11:11:08Z</time>
      </trkpt>
      <trkpt lat="47.23967" lon="-1.60905">
        <ele>38.6</ele>
        <time>2013-10-06T11:11:10Z</time>
      </trkpt>
      <trkpt lat="47.23955" lon="-1.60909">
        <ele>39.3</ele>
        <time>2013-10-06T11:11:12Z</time>
      </trkpt>
      <trkpt lat="47.23944" lon="-1.60912">
        <ele>39</ele>
        <time>2013-10-06T11:11:14Z</time>
      </trkpt>
      <trkpt lat="47.23933" lon="-1.60915">
        <ele>38.9</ele>
        <time>2013-10-06T11:11:16Z</time>
      </trkpt>
      <trkpt lat="47.23921" lon="-1.60919">
        <ele>38.4</ele>
        <time>2013-10-06T11:11:18Z</time>
      </trkpt>
      <trkpt lat="47.2391" lon="-1.60923">
        <ele>37.8</ele>
        <time>2013-10-06T11:11:20Z</time>
      </trkpt>
      <trkpt lat="47.23897" lon="-1.60927">
        <ele>37.7</ele>
        <time>2013-10-06T11:11:22Z</time>
      </trkpt>
      <trkpt lat="47.23886" lon="-1.60931">
        <ele>38.1</ele>
        <time>2013-10-06T11:11:24Z</time>
      </trkpt>
      <trkpt lat="47.23875" lon="-1.60935">
        <ele>38</ele>
        <time>2013-10-06T11:11:26Z</time>
      </trkpt>
      <trkpt lat="47.23863" lon="-1.6094">
        <ele>37.7</ele>
        <time>2013-10-06T11:11:28Z</time>
      </trkpt>
      <trkpt lat="47.23851" lon="-1.60947">
        <ele>36.3</ele>
        <time>2013-10-06T11:11:30Z</time>
      </trkpt>
      <trkpt lat="47.23839" lon="-1.60957">
        <ele>34.1</ele>
        <time>2013-10-06T11:11:32Z</time>
      </trkpt>
      <trkpt lat="47.23829" lon="-1.60967">
        <ele>32.7</ele>
        <time>2013-10-06T11:11:34Z</time>
      </trkpt>
      <trkpt lat="47.2382" lon="-1.60976">
        <ele>32.4</ele>
        <time>2013-10-06T11:11:36Z</time>
      </trkpt>
      <trkpt lat="47.23811" lon="-1.60986">
        <ele>31.5</ele>
        <time>2013-10-06T11:11:38Z</time>
      </trkpt>
      <trkpt lat="47.23801" lon="-1.60996">
        <ele>30.9</ele>
        <time>2013-10-06T11:11:40Z</time>
      </trkpt>
      <trkpt lat="47.23789" lon="-1.61006">
        <ele>30.6</ele>
        <time>2013-10-06T11:11:42Z</time>
      </trkpt>
      <trkpt lat="47.23777" lon="-1.61015">
        <ele>31</ele>
        <time>2013-10-06T11:11:44Z</time>
      </trkpt>
      <trkpt lat="47.23762" lon="-1.61027">
        <ele>30</ele>
        <time>2013-10-06T11:11:46Z</time>
      </trkpt>
      <trkpt lat="47.23747" lon="-1.61038">
        <ele>29.1</ele>
        <time>2013-10-06T11:11:48Z</time>
      </trkpt>
      <trkpt lat="47.23733" lon="-1.61047">
        <ele>28.2</ele>
        <time>2013-10-06T11:11:50Z</time>
      </trkpt>
      <trkpt lat="47.23723" lon="-1.61053">
        <ele>26.3</ele>
        <time>2013-10-06T11:11:52Z</time>
      </trkpt>
      <trkpt lat="47.23713" lon="-1.61059">
        <ele>24.6</ele>
        <time>2013-10-06T11:11:55Z</time>
      </trkpt>
      <trkpt lat="47.23703" lon="-1.61065">
        <ele>24.3</ele>
        <time>2013-10-06T11:11:59Z</time>
      </trkpt>
      <trkpt lat="47.23696" lon="-1.61055">
        <ele>24.4</ele>
        <time>2013-10-06T11:12:06Z</time>
      </trkpt>
      <trkpt lat="47.23693" lon="-1.61039">
        <ele>24.3</ele>
        <time>2013-10-06T11:12:10Z</time>
      </trkpt>
      <trkpt lat="47.23691" lon="-1.61024">
        <ele>24.2</ele>
        <time>2013-10-06T11:12:13Z</time>
      </trkpt>
      <trkpt lat="47.23688" lon="-1.61009">
        <ele>24.1</ele>
        <time>2013-10-06T11:12:16Z</time>
      </trkpt>
      <trkpt lat="47.23685" lon="-1.60996">
        <ele>23.8</ele>
        <time>2013-10-06T11:12:19Z</time>
      </trkpt>
      <trkpt lat="47.23682" lon="-1.60982">
        <ele>23.6</ele>
        <time>2013-10-06T11:12:22Z</time>
      </trkpt>
      <trkpt lat="47.23678" lon="-1.60969">
        <ele>22.6</ele>
        <time>2013-10-06T11:12:24Z</time>
      </trkpt>
      <trkpt lat="47.23677" lon="-1.60953">
        <ele>22.1</ele>
        <time>2013-10-06T11:12:26Z</time>
      </trkpt>
      <trkpt lat="47.23673" lon="-1.60935">
        <ele>19</ele>
        <time>2013-10-06T11:12:29Z</time>
      </trkpt>
      <trkpt lat="47.23665" lon="-1.60925">
        <ele>17.1</ele>
        <time>2013-10-06T11:12:31Z</time>
      </trkpt>
      <trkpt lat="47.23656" lon="-1.60916">
        <ele>15.9</ele>
        <time>2013-10-06T11:12:33Z</time>
      </trkpt>
      <trkpt lat="47.23647" lon="-1.60906">
        <ele>15.8</ele>
        <time>2013-10-06T11:12:36Z</time>
      </trkpt>
      <trkpt lat="47.23638" lon="-1.609">
        <ele>15.3</ele>
        <time>2013-10-06T11:12:42Z</time>
      </trkpt>
      <trkpt lat="47.2363" lon="-1.60891">
        <ele>14.6</ele>
        <time>2013-10-06T11:12:47Z</time>
      </trkpt>
      <trkpt lat="47.23626" lon="-1.60878">
        <ele>13.7</ele>
        <time>2013-10-06T11:12:51Z</time>
      </trkpt>
      <trkpt lat="47.23624" lon="-1.6086">
        <ele>12.5</ele>
        <time>2013-10-06T11:12:55Z</time>
      </trkpt>
      <trkpt lat="47.23623" lon="-1.60845">
        <ele>11.9</ele>
        <time>2013-10-06T11:12:58Z</time>
      </trkpt>
      <trkpt lat="47.23616" lon="-1.60832">
        <ele>11.6</ele>
        <time>2013-10-06T11:13:01Z</time>
      </trkpt>
      <trkpt lat="47.23606" lon="-1.60821">
        <ele>11.1</ele>
        <time>2013-10-06T11:13:04Z</time>
      </trkpt>
      <trkpt lat="47.23595" lon="-1.60811">
        <ele>10.9</ele>
        <time>2013-10-06T11:13:07Z</time>
      </trkpt>
      <trkpt lat="47.23587" lon="-1.60804">
        <ele>10.9</ele>
        <time>2013-10-06T11:13:09Z</time>
      </trkpt>
      <trkpt lat="47.23577" lon="-1.60792">
        <ele>10.6</ele>
        <time>2013-10-06T11:13:11Z</time>
      </trkpt>
      <trkpt lat="47.23566" lon="-1.60778">
        <ele>10.7</ele>
        <time>2013-10-06T11:13:13Z</time>
      </trkpt>
      <trkpt lat="47.23557" lon="-1.60765">
        <ele>12.2</ele>
        <time>2013-10-06T11:13:15Z</time>
      </trkpt>
      <trkpt lat="47.23551" lon="-1.60753">
        <ele>14.7</ele>
        <time>2013-10-06T11:13:17Z</time>
      </trkpt>
      <trkpt lat="47.23545" lon="-1.60741">
        <ele>17.4</ele>
        <time>2013-10-06T11:13:19Z</time>
      </trkpt>
      <trkpt lat="47.2354" lon="-1.60729">
        <ele>18.3</ele>
        <time>2013-10-06T11:13:21Z</time>
      </trkpt>
      <trkpt lat="47.23533" lon="-1.60714">
        <ele>17.7</ele>
        <time>2013-10-06T11:13:24Z</time>
      </trkpt>
      <trkpt lat="47.23528" lon="-1.60702">
        <ele>17.5</ele>
        <time>2013-10-06T11:13:26Z</time>
      </trkpt>
      <trkpt lat="47.2352" lon="-1.60689">
        <ele>17.9</ele>
        <time>2013-10-06T11:13:29Z</time>
      </trkpt>
      <trkpt lat="47.23511" lon="-1.6068">
        <ele>17.9</ele>
        <time>2013-10-06T11:13:33Z</time>
      </trkpt>
      <trkpt lat="47.23501" lon="-1.60672">
        <ele>17.7</ele>
        <time>2013-10-06T11:13:38Z</time>
      </trkpt>
      <trkpt lat="47.23491" lon="-1.60666">
        <ele>17.6</ele>
        <time>2013-10-06T11:13:42Z</time>
      </trkpt>
      <trkpt lat="47.23482" lon="-1.60661">
        <ele>17.8</ele>
        <time>2013-10-06T11:13:46Z</time>
      </trkpt>
      <trkpt lat="47.23474" lon="-1.60655">
        <ele>18</ele>
        <time>2013-10-06T11:13:51Z</time>
      </trkpt>
      <trkpt lat="47.23464" lon="-1.60651">
        <ele>17.9</ele>
        <time>2013-10-06T11:13:57Z</time>
      </trkpt>
      <trkpt lat="47.23457" lon="-1.60661">
        <ele>17.6</ele>
        <time>2013-10-06T11:14:01Z</time>
      </trkpt>
      <trkpt lat="47.23448" lon="-1.60671">
        <ele>16.8</ele>
        <time>2013-10-06T11:14:06Z</time>
      </trkpt>
      <trkpt lat="47.2344" lon="-1.60677">
        <ele>16.6</ele>
        <time>2013-10-06T11:14:10Z</time>
      </trkpt>
      <trkpt lat="47.23431" lon="-1.60685">
        <ele>17</ele>
        <time>2013-10-06T11:14:14Z</time>
      </trkpt>
      <trkpt lat="47.23423" lon="-1.60694">
        <ele>17.1</ele>
        <time>2013-10-06T11:14:18Z</time>
      </trkpt>
      <trkpt lat="47.23416" lon="-1.60703">
        <ele>17.1</ele>
        <time>2013-10-06T11:14:21Z</time>
      </trkpt>
      <trkpt lat="47.23408" lon="-1.60712">
        <ele>17.2</ele>
        <time>2013-10-06T11:14:26Z</time>
      </trkpt>
      <trkpt lat="47.23399" lon="-1.60717">
        <ele>16.9</ele>
        <time>2013-10-06T11:14:31Z</time>
      </trkpt>
      <trkpt lat="47.23388" lon="-1.60716">
        <ele>16.5</ele>
        <time>2013-10-06T11:14:35Z</time>
      </trkpt>
      <trkpt lat="47.23379" lon="-1.60715">
        <ele>16.1</ele>
        <time>2013-10-06T11:14:39Z</time>
      </trkpt>
      <trkpt lat="47.23371" lon="-1.60725">
        <ele>16.3</ele>
        <time>2013-10-06T11:14:43Z</time>
      </trkpt>
      <trkpt lat="47.23363" lon="-1.60733">
        <ele>16.9</ele>
        <time>2013-10-06T11:14:47Z</time>
      </trkpt>
      <trkpt lat="47.23353" lon="-1.60739">
        <ele>17.4</ele>
        <time>2013-10-06T11:14:51Z</time>
      </trkpt>
      <trkpt lat="47.23344" lon="-1.60746">
        <ele>18.1</ele>
        <time>2013-10-06T11:14:55Z</time>
      </trkpt>
      <trkpt lat="47.23335" lon="-1.60752">
        <ele>18.8</ele>
        <time>2013-10-06T11:14:59Z</time>
      </trkpt>
      <trkpt lat="47.23325" lon="-1.6076">
        <ele>19.8</ele>
        <time>2013-10-06T11:15:03Z</time>
      </trkpt>
      <trkpt lat="47.23317" lon="-1.60766">
        <ele>20.9</ele>
        <time>2013-10-06T11:15:07Z</time>
      </trkpt>
      <trkpt lat="47.23307" lon="-1.60774">
        <ele>22.3</ele>
        <time>2013-10-06T11:15:12Z</time>
      </trkpt>
      <trkpt lat="47.23297" lon="-1.60781">
        <ele>23.6</ele>
        <time>2013-10-06T11:15:17Z</time>
      </trkpt>
      <trkpt lat="47.23288" lon="-1.60789">
        <ele>24.8</ele>
        <time>2013-10-06T11:15:22Z</time>
      </trkpt>
      <trkpt lat="47.2328" lon="-1.60798">
        <ele>25.8</ele>
        <time>2013-10-06T11:15:27Z</time>
      </trkpt>
      <trkpt lat="47.23271" lon="-1.60809">
        <ele>26.7</ele>
        <time>2013-10-06T11:15:32Z</time>
      </trkpt>
      <trkpt lat="47.23263" lon="-1.60816">
        <ele>27.6</ele>
        <time>2013-10-06T11:15:36Z</time>
      </trkpt>
      <trkpt lat="47.23256" lon="-1.60824">
        <ele>28.1</ele>
        <time>2013-10-06T11:15:40Z</time>
      </trkpt>
      <trkpt lat="47.23246" lon="-1.60825">
        <ele>28.3</ele>
        <time>2013-10-06T11:15:43Z</time>
      </trkpt>
      <trkpt lat="47.23237" lon="-1.60821">
        <ele>28.3</ele>
        <time>2013-10-06T11:15:47Z</time>
      </trkpt>
      <trkpt lat="47.23225" lon="-1.60825">
        <ele>28.7</ele>
        <time>2013-10-06T11:15:52Z</time>
      </trkpt>
      <trkpt lat="47.23215" lon="-1.60819">
        <ele>29.5</ele>
        <time>2013-10-06T11:15:55Z</time>
      </trkpt>
      <trkpt lat="47.23209" lon="-1.60806">
        <ele>30</ele>
        <time>2013-10-06T11:15:58Z</time>
      </trkpt>
      <trkpt lat="47.23205" lon="-1.60791">
        <ele>30.5</ele>
        <time>2013-10-06T11:16:01Z</time>
      </trkpt>
      <trkpt lat="47.23203" lon="-1.60777">
        <ele>31</ele>
        <time>2013-10-06T11:16:05Z</time>
      </trkpt>
      <trkpt lat="47.23194" lon="-1.60766">
        <ele>31.3</ele>
        <time>2013-10-06T11:16:09Z</time>
      </trkpt>
      <trkpt lat="47.23186" lon="-1.60758">
        <ele>31.5</ele>
        <time>2013-10-06T11:16:13Z</time>
      </trkpt>
      <trkpt lat="47.23175" lon="-1.60754">
        <ele>32</ele>
        <time>2013-10-06T11:16:17Z</time>
      </trkpt>
      <trkpt lat="47.23167" lon="-1.60747">
        <ele>32.4</ele>
        <time>2013-10-06T11:16:20Z</time>
      </trkpt>
      <trkpt lat="47.23159" lon="-1.60733">
        <ele>33.1</ele>
        <time>2013-10-06T11:16:24Z</time>
      </trkpt>
      <trkpt lat="47.23151" lon="-1.6072">
        <ele>33.2</ele>
        <time>2013-10-06T11:16:26Z</time>
      </trkpt>
      <trkpt lat="47.23145" lon="-1.60709">
        <ele>33.3</ele>
        <time>2013-10-06T11:16:28Z</time>
      </trkpt>
      <trkpt lat="47.23136" lon="-1.60705">
        <ele>33.5</ele>
        <time>2013-10-06T11:16:32Z</time>
      </trkpt>
      <trkpt lat="47.23126" lon="-1.60713">
        <ele>34.1</ele>
        <time>2013-10-06T11:16:36Z</time>
      </trkpt>
      <trkpt lat="47.23117" lon="-1.60721">
        <ele>34.7</ele>
        <time>2013-10-06T11:16:39Z</time>
      </trkpt>
      <trkpt lat="47.23109" lon="-1.60729">
        <ele>35.1</ele>
        <time>2013-10-06T11:16:42Z</time>
      </trkpt>
      <trkpt lat="47.23101" lon="-1.60736">
        <ele>35.5</ele>
        <time>2013-10-06T11:16:45Z</time>
      </trkpt>
      <trkpt lat="47.23092" lon="-1.60744">
        <ele>35.6</ele>
        <time>2013-10-06T11:16:48Z</time>
      </trkpt>
      <trkpt lat="47.23082" lon="-1.60754">
        <ele>35.7</ele>
        <time>2013-10-06T11:16:52Z</time>
      </trkpt>
      <trkpt lat="47.23074" lon="-1.60759">
        <ele>35.7</ele>
        <time>2013-10-06T11:16:55Z</time>
      </trkpt>
      <trkpt lat="47.23073" lon="-1.60774">
        <ele>35.8</ele>
        <time>2013-10-06T11:17:00Z</time>
      </trkpt>
      <trkpt lat="47.23078" lon="-1.60787">
        <ele>36</ele>
        <time>2013-10-06T11:17:03Z</time>
      </trkpt>
      <trkpt lat="47.23083" lon="-1.60802">
        <ele>36.2</ele>
        <time>2013-10-06T11:17:06Z</time>
      </trkpt>
      <trkpt lat="47.23087" lon="-1.60815">
        <ele>36.5</ele>
        <time>2013-10-06T11:17:09Z</time>
      </trkpt>
      <trkpt lat="47.23092" lon="-1.60828">
        <ele>36.6</ele>
        <time>2013-10-06T11:17:12Z</time>
      </trkpt>
      <trkpt lat="47.23098" lon="-1.60838">
        <ele>36.4</ele>
        <time>2013-10-06T11:17:16Z</time>
      </trkpt>
      <trkpt lat="47.23106" lon="-1.60831">
        <ele>36.7</ele>
        <time>2013-10-06T11:17:21Z</time>
      </trkpt>
      <trkpt lat="47.23097" lon="-1.60837">
        <ele>37.5</ele>
        <time>2013-10-06T11:17:38Z</time>
      </trkpt>
      <trkpt lat="47.2309" lon="-1.60849">
        <ele>37.7</ele>
        <time>2013-10-06T11:17:43Z</time>
      </trkpt>
      <trkpt lat="47.23092" lon="-1.60862">
        <ele>38.1</ele>
        <time>2013-10-06T11:17:46Z</time>
      </trkpt>
      <trkpt lat="47.23097" lon="-1.60877">
        <ele>38.6</ele>
        <time>2013-10-06T11:17:49Z</time>
      </trkpt>
      <trkpt lat="47.23102" lon="-1.60891">
        <ele>38.9</ele>
        <time>2013-10-06T11:17:52Z</time>
      </trkpt>
      <trkpt lat="47.23105" lon="-1.60903">
        <ele>39.1</ele>
        <time>2013-10-06T11:17:55Z</time>
      </trkpt>
      <trkpt lat="47.23112" lon="-1.60917">
        <ele>39.4</ele>
        <time>2013-10-06T11:17:59Z</time>
      </trkpt>
      <trkpt lat="47.23118" lon="-1.60933">
        <ele>39.8</ele>
        <time>2013-10-06T11:18:03Z</time>
      </trkpt>
      <trkpt lat="47.23123" lon="-1.60944">
        <ele>40.1</ele>
        <time>2013-10-06T11:18:06Z</time>
      </trkpt>
      <trkpt lat="47.23133" lon="-1.60942">
        <ele>40.4</ele>
        <time>2013-10-06T11:18:13Z</time>
      </trkpt>
      <trkpt lat="47.23141" lon="-1.60954">
        <ele>40.6</ele>
        <time>2013-10-06T11:18:17Z</time>
      </trkpt>
      <trkpt lat="47.23148" lon="-1.60968">
        <ele>40.4</ele>
        <time>2013-10-06T11:18:20Z</time>
      </trkpt>
      <trkpt lat="47.2315" lon="-1.60983">
        <ele>39.9</ele>
        <time>2013-10-06T11:18:24Z</time>
      </trkpt>
      <trkpt lat="47.23154" lon="-1.60998">
        <ele>39.8</ele>
        <time>2013-10-06T11:18:27Z</time>
      </trkpt>
      <trkpt lat="47.23163" lon="-1.60996">
        <ele>40</ele>
        <time>2013-10-06T11:18:32Z</time>
      </trkpt>
      <trkpt lat="47.23172" lon="-1.60985">
        <ele>40.2</ele>
        <time>2013-10-06T11:18:36Z</time>
      </trkpt>
      <trkpt lat="47.23182" lon="-1.60976">
        <ele>40.3</ele>
        <time>2013-10-06T11:18:40Z</time>
      </trkpt>
      <trkpt lat="47.23191" lon="-1.60973">
        <ele>40.4</ele>
        <time>2013-10-06T11:18:44Z</time>
      </trkpt>
      <trkpt lat="47.232" lon="-1.60975">
        <ele>40.4</ele>
        <time>2013-10-06T11:18:47Z</time>
      </trkpt>
      <trkpt lat="47.2321" lon="-1.60974">
        <ele>40.3</ele>
        <time>2013-10-06T11:18:50Z</time>
      </trkpt>
      <trkpt lat="47.23218" lon="-1.60984">
        <ele>40.3</ele>
        <time>2013-10-06T11:18:53Z</time>
      </trkpt>
      <trkpt lat="47.23222" lon="-1.60996">
        <ele>40.4</ele>
        <time>2013-10-06T11:18:56Z</time>
      </trkpt>
      <trkpt lat="47.23225" lon="-1.61014">
        <ele>40.3</ele>
        <time>2013-10-06T11:19:00Z</time>
      </trkpt>
      <trkpt lat="47.23228" lon="-1.61027">
        <ele>40.1</ele>
        <time>2013-10-06T11:19:04Z</time>
      </trkpt>
      <trkpt lat="47.23223" lon="-1.61014">
        <ele>39.8</ele>
        <time>2013-10-06T11:19:09Z</time>
      </trkpt>
      <trkpt lat="47.23223" lon="-1.61">
        <ele>39.7</ele>
        <time>2013-10-06T11:19:12Z</time>
      </trkpt>
      <trkpt lat="47.23221" lon="-1.60985">
        <ele>39.7</ele>
        <time>2013-10-06T11:19:15Z</time>
      </trkpt>
      <trkpt lat="47.23216" lon="-1.60972">
        <ele>39.7</ele>
        <time>2013-10-06T11:19:18Z</time>
      </trkpt>
      <trkpt lat="47.23208" lon="-1.60959">
        <ele>39.5</ele>
        <time>2013-10-06T11:19:21Z</time>
      </trkpt>
      <trkpt lat="47.23201" lon="-1.60948">
        <ele>39.4</ele>
        <time>2013-10-06T11:19:24Z</time>
      </trkpt>
      <trkpt lat="47.23194" lon="-1.60936">
        <ele>39.4</ele>
        <time>2013-10-06T11:19:27Z</time>
      </trkpt>
      <trkpt lat="47.23189" lon="-1.60921">
        <ele>39.4</ele>
        <time>2013-10-06T11:19:30Z</time>
      </trkpt>
      <trkpt lat="47.23183" lon="-1.6091">
        <ele>39.4</ele>
        <time>2013-10-06T11:19:33Z</time>
      </trkpt>
      <trkpt lat="47.23179" lon="-1.60898">
        <ele>39.1</ele>
        <time>2013-10-06T11:19:36Z</time>
      </trkpt>
      <trkpt lat="47.23174" lon="-1.60885">
        <ele>38.9</ele>
        <time>2013-10-06T11:19:39Z</time>
      </trkpt>
      <trkpt lat="47.23169" lon="-1.60872">
        <ele>38.8</ele>
        <time>2013-10-06T11:19:42Z</time>
      </trkpt>
      <trkpt lat="47.23162" lon="-1.60858">
        <ele>38.7</ele>
        <time>2013-10-06T11:19:45Z</time>
      </trkpt>
      <trkpt lat="47.23156" lon="-1.60845">
        <ele>38.5</ele>
        <time>2013-10-06T11:19:48Z</time>
      </trkpt>
      <trkpt lat="47.2315" lon="-1.60829">
        <ele>38.5</ele>
        <time>2013-10-06T11:19:51Z</time>
      </trkpt>
      <trkpt lat="47.23145" lon="-1.60815">
        <ele>38.6</ele>
        <time>2013-10-06T11:19:54Z</time>
      </trkpt>
      <trkpt lat="47.23139" lon="-1.608">
        <ele>40</ele>
        <time>2013-10-06T11:19:57Z</time>
      </trkpt>
      <trkpt lat="47.23134" lon="-1.60788">
        <ele>41.3</ele>
        <time>2013-10-06T11:19:59Z</time>
      </trkpt>
      <trkpt lat="47.23129" lon="-1.60773">
        <ele>42.3</ele>
        <time>2013-10-06T11:20:02Z</time>
      </trkpt>
      <trkpt lat="47.23123" lon="-1.60757">
        <ele>42.6</ele>
        <time>2013-10-06T11:20:05Z</time>
      </trkpt>
      <trkpt lat="47.23119" lon="-1.60745">
        <ele>43.1</ele>
        <time>2013-10-06T11:20:07Z</time>
      </trkpt>
      <trkpt lat="47.23112" lon="-1.60732">
        <ele>43.1</ele>
        <time>2013-10-06T11:20:10Z</time>
      </trkpt>
      <trkpt lat="47.23102" lon="-1.60731">
        <ele>42.7</ele>
        <time>2013-10-06T11:20:13Z</time>
      </trkpt>
      <trkpt lat="47.23092" lon="-1.60738">
        <ele>42.4</ele>
        <time>2013-10-06T11:20:17Z</time>
      </trkpt>
      <trkpt lat="47.23083" lon="-1.60743">
        <ele>42.1</ele>
        <time>2013-10-06T11:20:20Z</time>
      </trkpt>
      <trkpt lat="47.23077" lon="-1.60733">
        <ele>42.1</ele>
        <time>2013-10-06T11:20:24Z</time>
      </trkpt>
      <trkpt lat="47.23074" lon="-1.60715">
        <ele>42.4</ele>
        <time>2013-10-06T11:20:28Z</time>
      </trkpt>
      <trkpt lat="47.23073" lon="-1.60701">
        <ele>42.8</ele>
        <time>2013-10-06T11:20:31Z</time>
      </trkpt>
      <trkpt lat="47.2307" lon="-1.60688">
        <ele>43</ele>
        <time>2013-10-06T11:20:34Z</time>
      </trkpt>
      <trkpt lat="47.23074" lon="-1.60673">
        <ele>43.1</ele>
        <time>2013-10-06T11:20:38Z</time>
      </trkpt>
      <trkpt lat="47.23073" lon="-1.60659">
        <ele>42.7</ele>
        <time>2013-10-06T11:20:47Z</time>
      </trkpt>
      <trkpt lat="47.23076" lon="-1.60651">
        <ele>42.6</ele>
        <time>2013-10-06T11:21:02Z</time>
      </trkpt>
      <trkpt lat="47.23076" lon="-1.60651">
        <ele>42.6</ele>
        <time>2013-10-06T11:21:02Z</time>
      </trkpt>
    </trkseg>
  </trk>
</gpx>